GFSNW_250_spd_003.txt.gz
Wind_Speed
39 39 31 26 22 22 27 33 30 25 23 22 21 19 17 16 14 11 10 9 10 11 12 11 11 11 12 11 12 12 12 13 11 11 12 15 18 22 26 26 25 30 31 40
42 43 37 29 25 22 23 26 33 29 25 24 23 21 20 18 16 14 13 14 13 12 14 14 14 15 16 18 20 21 21 20 19 20 21 22 25 27 28 29 31 33 37 41
48 46 39 35 29 27 23 25 31 30 28 27 25 23 23 21 17 17 18 18 18 18 19 19 20 22 22 23 27 29 29 28 28 30 29 29 30 28 27 30 31 33 44 38
49 50 44 39 34 33 29 26 32 32 30 29 28 26 25 22 21 22 22 23 23 24 24 24 25 26 28 30 28 30 30 30 28 28 29 31 33 34 32 32 37 40 42 46
55 50 48 46 41 37 36 33 33 35 33 31 30 29 27 26 26 27 27 28 29 29 30 30 30 32 33 33 33 32 33 29 31 34 32 34 37 38 39 38 43 46 48 51
57 58 54 50 44 44 41 38 35 38 39 37 32 30 30 30 30 30 31 32 33 34 34 34 35 34 34 36 36 37 37 32 30 34 34 39 44 41 43 45 50 51 54 58
59 61 61 54 50 46 45 44 39 39 42 43 40 38 36 34 34 33 34 35 36 36 36 36 37 37 40 42 41 41 40 36 32 35 35 39 47 42 44 49 53 56 57 60
64 65 64 60 58 51 49 48 46 43 45 45 45 44 42 41 41 40 40 39 40 40 39 40 42 43 45 47 46 42 43 38 38 37 36 41 50 49 53 55 59 62 64 69
65 64 65 64 58 54 53 54 52 50 48 48 46 46 45 46 47 46 44 45 46 46 44 45 44 46 48 47 46 46 47 45 44 42 44 46 51 54 58 60 65 69 71 74
67 66 66 66 64 62 60 57 55 54 52 52 51 51 51 52 50 50 49 49 51 50 50 48 48 50 50 48 49 49 50 49 51 48 50 54 59 61 65 71 70 71 76 82
66 65 66 65 62 58 59 60 59 56 55 54 52 53 54 55 55 54 55 54 53 53 54 51 53 51 46 48 51 54 55 52 53 54 61 63 66 68 73 73 74 80 84 89
58 61 65 65 64 62 60 60 59 58 57 57 56 54 53 53 54 56 57 58 58 57 55 54 54 51 50 50 53 59 60 61 60 61 67 70 72 74 74 77 81 87 89 94
56 58 59 60 61 62 62 62 62 62 62 62 59 57 56 56 56 58 59 58 57 57 59 59 56 54 54 55 53 57 64 67 65 66 74 75 77 78 82 87 90 92 98 105
56 58 59 60 62 62 65 67 67 65 65 65 64 62 59 59 60 60 60 61 62 62 62 59 57 59 59 57 60 63 70 70 71 74 77 78 83 86 89 94 99 104 106 112
60 59 59 60 62 64 65 66 68 69 69 67 67 65 63 62 62 62 63 64 64 64 60 59 60 61 62 60 64 71 73 74 76 77 81 84 87 92 97 102 110 109 112 116
62 61 61 61 61 62 64 65 67 70 71 71 71 67 65 65 66 67 66 66 66 63 63 64 65 69 70 68 68 74 77 79 80 81 85 90 95 100 107 111 113 114 120 122
68 66 65 65 64 63 63 64 67 68 68 68 65 64 65 67 66 66 68 66 66 66 65 67 70 73 73 73 76 80 81 84 86 89 94 99 104 110 112 116 119 121 127 131
76 73 71 69 68 67 64 65 67 69 70 67 60 59 60 66 69 71 70 71 72 69 71 72 74 76 80 82 86 89 88 90 95 99 104 108 111 114 119 122 126 129 128 129
82 80 78 77 73 70 69 72 72 72 72 68 63 62 63 66 71 75 78 81 81 79 79 81 83 85 89 91 92 93 96 100 104 106 109 113 119 124 126 129 130 126 124 124
87 85 85 81 78 78 79 80 79 76 75 70 67 68 71 73 77 80 83 84 85 83 83 87 87 88 93 95 96 99 102 106 109 113 118 121 124 126 127 130 129 123 121 118
93 93 89 87 87 88 88 88 88 84 79 78 77 79 81 85 87 87 89 89 90 88 88 91 91 94 100 102 104 106 110 113 119 122 123 125 126 124 126 122 120 118 113 112
97 96 95 95 95 95 93 91 90 88 86 87 89 90 90 92 93 94 95 96 98 98 97 98 98 102 105 108 113 115 116 120 122 121 124 125 127 124 119 116 110 109 108 109
103 103 101 100 99 97 95 91 90 91 91 94 96 96 97 97 97 99 100 101 103 105 105 107 110 112 114 117 115 117 117 119 119 124 124 123 116 113 113 112 107 105 106 106
105 104 102 103 104 99 98 97 95 96 98 99 99 100 101 102 104 106 108 108 109 111 113 116 117 117 120 120 122 118 120 121 122 126 119 113 108 105 107 110 109 105 104 102
108 108 107 103 101 100 98 97 99 102 104 104 106 108 109 109 111 110 111 113 118 121 122 120 119 116 119 120 123 122 125 123 119 115 111 106 103 104 104 106 106 104 100 95
105 105 107 107 106 105 105 106 103 102 104 106 106 108 110 112 113 112 113 118 119 119 118 117 118 121 123 123 122 123 121 116 112 109 105 104 104 101 100 100 100 97 93 88
105 104 107 108 105 105 106 107 110 110 106 106 110 110 110 111 112 112 118 119 119 117 115 116 119 117 117 116 116 114 111 108 107 105 103 101 99 97 95 94 92 89 85 79

GFSNW_250_spd_006.txt.gz
Wind_Speed
48 42 37 34 31 32 35 32 29 27 27 24 20 18 16 14 14 13 12 10 7 4 5 5 5 5 6 7 9 10 10 12 15 16 16 16 17 18 18 19 24 31 32 39
50 45 39 34 30 32 35 35 30 26 25 24 22 21 20 18 16 16 14 12 10 8 8 8 9 11 12 13 15 18 21 23 23 21 23 23 22 23 23 25 27 31 33 38
54 52 39 40 32 32 35 37 33 31 28 26 25 24 23 21 18 19 17 14 14 14 14 14 15 16 18 20 23 24 26 28 28 26 27 26 25 24 26 27 27 29 36 37
57 53 46 41 36 32 31 31 29 31 34 30 28 27 26 24 20 21 19 17 18 19 20 21 22 23 24 25 27 28 27 30 32 32 32 35 33 30 31 31 35 36 39 41
59 54 46 47 41 37 33 31 27 30 33 33 31 30 29 28 25 24 23 22 22 23 25 26 28 29 29 30 30 29 28 32 36 39 35 37 36 32 34 37 36 38 42 47
59 54 48 49 47 42 38 32 31 27 31 35 34 32 31 32 30 29 28 26 26 26 28 30 33 34 35 34 33 33 34 36 37 40 39 43 37 39 40 41 42 45 48 53
62 58 56 52 51 47 42 35 34 36 33 34 36 36 34 34 34 32 30 30 30 31 32 33 34 37 38 40 40 39 39 41 40 39 39 44 38 41 43 46 49 52 56 60
64 62 61 57 54 50 48 44 42 40 39 38 37 41 40 39 37 35 35 35 36 38 38 38 39 40 43 44 45 44 44 44 40 37 37 45 44 45 48 49 55 60 62 65
60 61 63 63 59 56 52 50 46 42 42 41 40 39 40 43 44 44 43 43 44 44 44 43 44 46 48 49 50 50 49 46 43 41 43 45 43 47 50 54 58 62 68 72
65 63 61 61 62 61 58 56 53 48 49 47 45 44 42 43 45 46 48 50 50 48 47 48 49 51 52 53 54 54 52 50 46 47 46 46 47 52 57 61 63 67 70 73
70 69 64 63 62 63 60 61 59 56 56 53 51 50 50 50 51 50 51 51 53 52 52 52 52 54 56 57 56 57 56 53 49 51 52 51 55 58 61 64 66 70 74 78
74 70 64 65 66 64 63 65 65 62 59 57 56 56 56 53 53 55 54 53 53 54 53 52 53 56 55 55 56 60 57 54 55 52 57 56 60 62 64 67 70 75 79 85
58 67 75 73 68 66 67 68 68 68 66 64 63 61 61 59 58 58 58 56 54 54 54 55 55 57 56 59 59 56 60 59 59 58 63 64 67 69 73 77 79 82 88 94
52 56 60 67 70 72 71 70 69 69 67 64 62 61 61 62 62 61 61 61 59 58 59 58 59 59 59 58 56 58 64 62 62 64 67 70 76 80 83 84 86 92 98 104
56 53 54 55 60 63 66 66 67 67 67 64 64 62 62 64 65 64 65 66 66 64 62 62 62 65 64 58 57 65 67 65 67 70 73 78 81 82 86 89 93 98 106 110
60 58 56 55 56 57 60 62 62 63 64 63 63 63 63 64 66 69 70 70 70 70 68 67 67 67 64 60 60 70 69 72 75 78 79 80 83 88 92 97 102 106 113 115
65 63 62 60 59 59 59 58 61 61 62 63 62 62 63 67 69 70 71 73 72 70 68 64 66 66 68 66 68 73 73 77 79 80 83 87 92 96 99 103 108 113 118 118
73 69 67 65 65 63 61 61 64 65 64 61 55 56 60 66 65 66 68 69 69 66 66 64 67 67 72 72 77 79 82 84 86 90 93 97 100 104 108 111 116 120 119 122
81 76 74 70 68 67 67 69 71 70 67 63 58 58 60 62 68 70 71 71 71 68 69 71 72 73 76 82 84 87 89 91 93 96 100 103 107 111 116 121 122 121 122 123
86 85 83 78 74 74 76 77 75 72 69 64 61 64 64 67 71 75 78 76 75 74 74 77 77 80 86 91 92 93 95 96 100 103 106 109 113 118 120 119 121 122 121 120
89 90 89 85 82 82 84 84 81 77 74 70 65 68 72 74 77 78 80 81 82 82 80 85 85 87 94 95 96 96 99 103 107 109 112 115 119 121 119 117 119 118 118 118
93 91 92 91 90 90 91 91 90 85 81 75 75 77 79 80 82 83 86 89 90 88 89 90 88 92 96 97 99 103 107 110 112 113 117 121 122 120 121 117 116 115 116 115
95 97 100 99 98 97 98 97 92 87 87 86 86 85 87 87 88 90 91 93 94 95 94 94 96 99 100 101 105 111 113 113 115 118 120 118 121 121 119 115 115 115 113 111
99 100 98 99 100 100 99 97 96 95 94 92 92 93 93 94 94 95 97 97 97 98 99 102 104 106 108 109 109 110 110 111 114 118 118 122 120 117 116 115 114 110 107 106
99 100 102 103 105 105 101 100 101 101 101 102 101 100 100 100 100 99 99 102 101 101 103 103 102 104 110 111 113 114 112 112 115 117 118 117 114 110 113 114 111 104 102 102
97 99 101 102 102 105 105 102 103 105 106 105 104 104 103 105 104 104 103 106 110 112 108 107 109 113 115 115 111 109 111 113 114 114 113 110 111 111 109 106 101 100 98 93
99 102 103 104 106 105 105 107 106 105 106 107 108 108 108 107 108 107 108 110 110 110 110 111 114 114 109 109 110 114 114 113 111 109 110 108 107 105 102 94 97 95 88 84

GFSNW_250_spd_009.txt.gz
Wind_Speed
49 45 44 41 39 38 36 35 33 31 30 29 27 23 21 15 15 14 12 12 10 6 5 5 6 4 4 6 8 9 11 14 17 19 19 18 20 21 23 27 29 33 34 41
52 47 45 40 41 40 37 37 34 32 30 29 28 24 21 18 14 14 14 14 12 11 8 7 7 7 9 11 13 16 18 20 22 23 24 24 25 23 24 26 29 33 34 39
54 49 46 42 40 38 38 38 36 33 32 30 30 25 22 19 17 16 15 16 15 14 13 12 12 14 15 17 19 21 23 24 26 27 27 28 27 29 32 33 35 36 38 38
57 51 48 43 39 39 36 41 39 36 33 31 29 26 24 23 21 20 19 19 19 18 17 17 17 19 21 22 23 24 26 28 30 31 33 35 35 37 37 37 39 39 42 44
60 53 47 45 40 36 37 41 42 39 35 31 29 27 26 25 25 24 23 22 23 23 22 20 21 23 24 26 28 29 29 29 34 39 40 41 40 39 39 40 39 42 44 46
62 59 51 49 43 38 36 41 38 37 33 33 33 32 29 28 28 28 27 27 26 26 25 25 26 27 29 30 31 32 32 34 36 40 42 45 45 43 39 39 40 44 45 48
67 60 58 54 50 46 40 36 37 38 34 30 29 31 33 32 32 32 31 30 30 30 30 30 31 33 34 35 36 37 39 39 40 42 44 47 44 45 44 46 44 43 46 49
66 65 60 57 54 53 48 42 39 36 34 32 29 30 33 35 35 35 34 33 33 35 35 36 37 39 41 43 44 44 44 45 45 46 47 48 48 46 46 48 47 48 51 53
65 66 63 58 59 53 53 51 45 40 36 34 34 34 31 32 34 37 38 38 39 40 42 43 46 47 47 48 48 50 50 51 51 50 50 50 48 46 49 47 49 51 56 61
66 66 64 61 62 56 55 55 51 48 45 43 39 38 38 37 36 35 36 40 43 46 48 50 52 54 55 54 54 54 54 53 56 52 53 52 50 51 54 53 54 59 63 68
70 69 67 66 64 61 60 56 53 52 49 49 46 44 43 42 41 42 44 44 46 48 48 50 51 54 56 56 57 56 55 55 57 57 60 55 53 52 55 57 61 64 68 73
71 65 66 66 70 68 66 60 59 60 55 54 53 53 50 49 50 49 51 51 52 50 53 55 56 57 56 56 56 57 61 60 61 60 66 62 59 57 59 63 66 69 74 77
69 70 71 67 69 69 70 68 67 65 63 59 57 55 59 57 58 58 59 59 59 59 61 61 60 61 61 59 58 61 68 66 62 63 68 64 65 65 66 70 73 77 81 86
59 68 70 71 70 66 67 64 65 64 64 63 64 63 63 64 65 66 65 65 66 66 65 63 64 64 63 63 64 66 75 71 67 66 68 68 71 69 74 76 81 85 90 92
57 57 64 73 71 69 71 69 67 67 67 64 66 65 66 68 70 71 69 69 68 66 65 65 66 66 69 62 62 71 78 72 68 67 68 71 73 75 77 83 87 91 95 100
59 56 53 53 60 72 75 72 72 69 68 68 70 70 70 70 71 72 72 70 69 69 66 65 65 68 70 61 63 70 73 72 71 72 72 74 77 81 87 91 95 97 101 106
65 63 61 58 56 54 55 64 73 76 77 79 77 75 74 74 73 72 70 69 67 67 65 63 67 69 67 61 62 72 71 72 76 78 80 81 86 89 92 95 97 102 107 112
72 67 66 63 59 56 54 54 58 59 59 62 60 58 64 69 68 67 66 67 67 65 65 63 67 66 66 62 73 72 75 75 78 81 85 89 91 93 96 99 104 107 111 114
75 74 72 68 65 60 62 64 64 65 61 57 51 53 59 63 65 67 68 68 68 67 67 69 67 63 66 73 77 77 80 82 85 87 89 91 95 99 103 106 108 112 115 120
80 79 80 74 70 71 73 71 70 68 66 61 60 62 64 66 69 73 76 77 78 72 69 70 67 65 74 83 83 85 87 90 91 92 95 98 101 104 108 110 113 116 119 120
87 87 83 80 82 81 81 78 77 74 72 69 66 67 69 72 74 76 79 79 79 77 72 76 73 73 83 87 88 92 93 93 96 98 99 102 104 107 110 113 118 119 119 118
91 90 88 87 89 91 90 88 85 80 78 73 72 75 78 77 80 82 82 84 85 83 81 83 81 84 91 92 93 95 98 101 103 104 105 106 112 114 115 116 118 118 118 122
92 93 94 95 96 96 96 95 91 87 84 81 84 85 85 85 86 87 88 90 92 92 91 90 92 94 96 98 101 104 106 108 107 108 110 114 117 119 116 117 118 117 120 119
97 98 97 99 104 103 102 98 98 98 95 91 89 89 90 91 93 95 97 97 98 99 98 99 101 102 102 103 106 109 110 110 112 117 120 120 119 117 117 117 117 117 115 112
94 97 99 101 103 103 100 98 97 97 98 96 95 95 95 97 99 99 102 104 103 102 104 104 105 106 108 111 115 115 116 117 119 117 115 117 118 115 114 117 118 113 109 108
96 96 97 99 100 104 106 106 105 106 104 104 103 102 102 104 104 106 105 105 104 105 108 110 110 112 114 115 115 117 117 117 115 116 117 115 115 114 116 114 110 107 105 101
97 97 98 97 97 99 101 102 103 103 105 107 108 105 106 105 106 109 109 108 109 109 109 111 112 113 113 112 113 113 113 113 113 113 115 115 115 112 108 104 104 99 97 96

GFSNW_250_spd_012.txt.gz
Wind_Speed
47 44 41 42 42 40 39 38 33 30 29 27 28 25 20 18 20 19 15 13 11 8 8 8 9 7 6 5 5 6 8 11 12 15 17 17 17 19 21 26 29 31 35 42
51 46 43 43 43 43 40 35 33 31 29 29 30 26 22 20 20 19 16 13 12 11 9 10 8 9 8 9 10 13 15 17 18 20 22 26 28 31 33 35 37 38 37 41
53 47 46 44 43 40 41 39 35 30 30 30 31 28 25 23 19 17 15 14 14 14 13 11 10 11 11 12 15 17 19 21 22 23 24 26 29 32 34 34 38 41 39 40
51 50 47 46 43 39 39 36 35 34 34 33 32 30 26 25 22 19 15 15 17 17 16 16 16 16 16 16 18 20 22 25 26 26 29 31 33 35 37 40 40 39 43 41
53 51 47 46 43 40 38 37 37 36 35 33 32 31 29 27 24 22 19 18 19 21 21 21 21 21 21 20 21 22 24 27 31 31 33 36 39 40 42 44 45 44 44 46
56 52 50 48 44 39 35 40 41 38 36 34 33 31 31 30 27 25 23 22 22 25 25 25 26 26 25 25 26 27 30 32 36 40 42 42 44 44 46 49 47 47 49 48
60 57 54 51 46 41 40 37 35 39 40 37 35 31 30 29 28 28 26 25 27 27 28 30 30 30 30 31 32 34 36 39 42 44 47 50 50 50 49 48 50 52 50 49
64 61 58 54 51 46 41 37 34 39 39 37 36 33 31 33 34 31 31 31 31 31 32 33 34 34 35 36 39 42 44 46 48 49 50 53 52 50 54 50 54 53 53 51
67 65 62 58 56 49 48 40 36 35 35 37 34 29 31 27 27 30 30 32 33 34 36 38 38 39 42 44 47 49 49 50 53 54 54 55 56 55 55 54 56 55 56 57
64 66 65 62 59 55 49 48 43 41 37 37 36 29 33 29 30 27 28 30 30 31 34 34 35 38 42 43 47 52 53 54 55 55 56 56 57 58 62 62 61 60 59 61
63 64 65 66 62 59 56 53 50 48 48 45 39 36 35 36 35 34 35 37 36 38 40 41 44 45 49 51 54 57 60 63 62 61 61 60 61 60 64 69 66 62 62 65
63 63 64 65 68 64 60 57 56 54 53 53 51 48 43 42 41 43 45 41 45 46 49 50 53 56 57 60 61 64 69 69 65 64 66 68 68 64 65 66 64 65 67 70
62 65 64 64 64 65 66 62 61 57 56 53 49 50 50 51 49 49 49 51 51 53 56 57 59 62 63 66 67 72 67 69 66 63 66 67 69 69 67 67 66 67 72 76
65 65 66 66 65 64 65 64 62 60 61 58 55 57 53 55 56 54 53 54 57 59 62 64 66 68 68 68 71 71 70 70 71 67 66 67 69 67 68 69 70 74 78 83
61 64 67 65 66 65 66 65 65 63 65 64 66 64 64 64 64 63 64 63 65 65 66 69 70 71 74 71 70 68 74 73 71 68 66 69 69 69 71 74 78 81 86 90
61 58 61 67 68 66 68 63 64 65 66 67 71 70 70 69 66 65 66 67 67 67 69 72 72 74 78 73 66 68 73 73 72 73 70 69 71 74 77 82 84 89 92 95
63 61 59 60 63 67 69 68 71 69 69 67 66 67 67 65 67 67 70 69 71 74 74 73 77 81 75 65 62 74 73 73 73 76 74 76 79 81 84 88 93 96 98 103
65 62 60 57 56 57 59 63 69 71 72 73 69 66 70 73 71 72 74 75 78 78 79 78 75 72 67 60 70 73 77 77 76 76 79 80 84 87 91 95 98 102 106 110
72 70 65 61 59 57 61 62 62 62 61 62 63 68 75 77 78 79 78 77 77 73 68 67 66 62 64 72 77 80 78 79 80 81 84 87 91 96 100 102 106 107 108 112
79 76 75 70 67 69 69 66 66 65 62 57 53 57 59 62 66 70 70 70 68 65 65 70 68 65 73 81 85 86 84 83 86 87 91 95 98 102 107 109 110 110 113 118
85 84 79 77 78 76 76 76 72 69 65 63 61 63 64 65 69 74 76 76 76 73 70 75 73 71 78 85 89 90 90 91 91 95 99 101 105 108 110 112 114 117 121 124
89 87 88 85 84 84 84 82 76 72 72 69 68 69 72 76 77 78 79 79 80 78 77 80 79 81 84 87 90 92 94 97 100 103 106 108 109 112 114 117 121 122 125 124
91 91 91 94 94 96 95 90 85 82 77 76 79 81 82 82 81 83 85 88 87 87 86 86 89 91 94 95 97 99 99 104 105 106 109 112 116 116 119 122 122 121 121 120
89 95 98 99 101 101 100 97 92 89 87 85 85 87 90 89 91 93 95 97 96 96 96 95 98 100 100 99 100 102 104 108 110 114 115 117 118 121 118 118 117 115 112 113
89 93 95 96 101 103 104 103 101 99 97 96 96 96 96 96 98 98 100 102 102 102 102 103 104 105 105 106 108 110 110 114 119 119 119 119 118 117 116 114 111 109 111 114
96 91 91 94 95 97 102 104 104 104 105 103 103 103 104 104 103 105 106 108 109 111 111 109 108 108 109 112 113 117 117 115 111 110 110 111 111 109 108 108 110 110 107 104
92 95 96 96 97 97 97 97 101 102 103 106 106 106 106 107 108 109 109 112 114 114 111 111 113 114 113 113 112 108 106 106 107 106 104 105 106 108 109 107 104 101 99 96

GFSNW_250_spd_015.txt.gz
Wind_Speed
57 44 41 44 38 38 36 38 35 30 29 26 28 27 23 21 20 19 18 15 14 11 11 12 12 11 10 8 6 6 6 7 9 12 12 13 15 17 19 24 25 28 34 43
58 46 41 41 44 40 39 39 39 31 28 25 28 26 24 21 20 19 17 16 14 12 13 13 12 12 11 10 10 10 9 11 14 17 19 20 19 23 26 30 34 34 35 41
58 48 43 43 44 43 40 39 39 32 29 28 27 28 25 22 20 20 18 17 14 13 12 12 12 11 12 12 13 13 14 15 16 18 19 21 23 26 28 29 33 39 41 42
57 50 43 44 45 43 40 40 40 36 33 31 30 30 28 24 20 19 20 17 16 15 14 14 14 14 14 14 15 17 18 19 19 21 23 27 29 33 35 37 39 41 45 45
60 50 44 40 43 44 41 36 38 34 32 27 28 31 31 26 23 22 20 17 16 16 18 20 19 18 18 18 19 21 22 24 25 27 30 34 38 39 42 45 47 49 47 51
62 53 45 45 44 43 41 38 39 37 36 30 31 33 32 29 26 23 21 18 18 22 20 19 22 21 21 22 23 24 27 29 31 34 38 42 45 48 49 51 51 52 50 52
64 56 48 43 45 41 42 41 36 34 33 32 34 33 33 30 29 24 22 23 24 24 21 23 23 23 23 25 27 29 31 33 37 41 43 44 43 48 51 53 54 57 55 55
62 54 51 48 46 47 45 38 34 33 35 33 33 33 33 31 29 26 28 28 25 25 27 27 27 27 27 29 30 33 35 36 37 40 44 49 48 54 58 57 58 62 62 62
64 58 52 50 48 48 42 38 38 35 31 32 36 35 32 31 28 29 29 28 28 28 29 28 28 29 27 27 30 31 34 38 44 47 51 53 55 60 62 59 60 63 65 67
65 61 56 52 50 49 46 43 41 35 32 29 31 30 37 34 31 29 28 25 20 22 25 28 29 31 30 32 38 41 44 48 52 54 56 59 61 59 58 60 60 61 63 64
61 64 60 57 54 51 49 48 42 42 39 32 28 30 34 34 31 30 30 28 28 30 31 33 36 39 43 43 46 49 52 56 60 61 63 64 63 59 61 65 63 62 60 62
59 61 63 61 59 56 52 50 51 50 46 43 37 34 32 35 34 36 37 32 36 35 39 42 42 42 45 49 52 56 57 62 66 67 68 70 65 64 62 62 65 65 63 63
58 58 61 59 61 59 59 56 54 52 52 47 45 45 44 41 40 40 45 44 42 43 45 48 49 51 53 54 57 62 65 68 71 71 71 75 72 64 62 63 65 66 66 69
60 58 57 59 61 63 64 61 59 57 57 53 51 51 50 50 50 50 51 51 51 49 51 51 50 54 55 56 61 66 70 74 76 74 78 77 71 67 67 67 67 69 71 75
59 58 57 56 59 61 63 62 62 61 60 58 58 57 56 54 54 53 54 53 55 57 58 59 62 64 66 64 66 66 72 76 80 78 81 79 71 71 72 73 74 76 79 81
57 57 57 56 56 57 59 59 62 64 66 64 64 62 62 61 61 59 60 62 64 66 67 68 68 71 69 63 65 69 75 81 83 82 80 73 72 75 77 78 82 85 88 90
57 57 56 57 59 58 56 59 61 62 63 65 63 63 63 61 63 64 65 68 71 72 70 70 70 70 69 69 67 75 80 84 84 82 78 75 77 80 83 85 88 91 94 97
60 57 55 54 54 58 61 62 62 63 62 60 56 57 63 65 63 65 67 69 70 69 68 68 72 74 74 69 76 79 82 84 78 76 78 79 81 85 87 91 93 96 100 104
66 62 59 57 56 57 59 61 64 65 65 63 61 64 66 68 71 72 73 74 75 74 75 78 77 72 72 78 78 73 72 74 78 81 82 83 87 89 92 96 100 102 105 107
72 69 67 63 62 62 62 61 59 58 58 56 58 64 67 72 75 78 78 79 78 75 75 79 74 68 71 74 76 76 78 80 82 83 85 88 91 94 97 101 104 107 109 112
80 77 73 71 72 70 69 66 63 61 58 55 56 59 62 65 69 73 75 73 73 70 69 72 69 68 73 78 82 83 83 84 86 89 92 95 97 100 104 107 109 112 114 119
83 82 80 81 80 80 78 73 70 68 66 63 64 67 69 70 73 76 76 76 78 77 75 78 76 77 79 81 83 85 87 90 94 97 100 103 105 107 110 115 116 116 119 123
86 89 89 88 89 90 88 82 78 76 75 75 76 77 79 79 81 82 84 84 84 82 82 82 84 86 87 87 88 92 96 100 102 104 107 110 112 112 117 120 120 122 121 113
93 96 93 93 95 96 94 90 88 87 86 86 85 87 87 86 88 90 91 93 92 92 91 90 93 95 97 97 99 101 104 106 108 110 113 115 118 120 123 122 118 111 110 108
84 86 86 91 98 100 100 99 98 97 96 95 95 96 95 95 98 98 99 101 102 102 103 102 101 102 104 107 109 110 112 114 117 118 119 119 118 116 112 110 107 105 103 104
74 83 76 89 96 99 102 103 105 104 104 104 103 103 104 104 104 105 107 108 111 113 113 114 114 114 115 117 119 119 120 121 119 119 114 108 104 105 103 102 103 102 101 99
72 74 80 87 91 93 96 97 98 99 101 103 106 108 108 109 111 113 113 116 116 116 117 119 121 122 124 123 122 121 117 113 107 106 106 103 103 103 101 99 101 100 98 94

GFSNW_250_spd_018.txt.gz
Wind_Speed
40 54 47 42 41 39 38 37 36 35 35 31 28 26 25 24 22 21 20 18 15 13 12 13 14 17 15 13 11 9 9 9 8 10 11 13 16 16 20 22 22 29 32 32
47 59 48 44 42 41 41 39 38 37 35 32 30 28 25 22 21 21 20 17 15 13 13 16 16 14 13 13 13 13 12 12 13 13 14 14 15 18 23 27 29 31 35 36
54 59 48 46 44 41 43 37 40 36 33 32 31 29 25 22 21 21 20 17 16 15 15 15 14 13 14 14 14 14 15 16 16 17 18 17 18 21 27 30 34 39 40 45
59 59 48 49 45 40 41 38 42 39 36 33 33 30 26 23 21 21 20 17 17 17 16 16 16 16 15 15 15 15 16 18 18 18 20 22 25 30 32 35 38 41 44 47
63 60 49 46 46 41 40 42 40 40 34 27 28 29 28 25 22 20 18 17 20 21 21 19 18 16 16 17 17 17 18 19 21 22 23 27 31 35 37 39 43 46 50 54
64 61 49 45 45 43 42 43 41 41 35 31 28 27 28 28 25 21 20 22 22 21 18 16 18 19 18 19 19 20 21 22 24 26 27 30 34 37 40 43 48 50 56 58
63 61 50 44 42 42 46 44 42 41 39 34 32 27 26 30 28 25 23 24 22 18 16 18 18 19 20 21 22 23 25 25 26 28 29 31 36 41 44 49 54 54 58 58
61 61 52 50 40 40 46 42 42 39 38 32 30 25 28 31 31 29 26 23 23 21 21 22 21 22 23 25 26 27 27 27 29 31 35 38 43 46 49 53 59 59 63 62
61 60 54 50 42 43 45 43 41 36 33 32 31 27 30 32 32 30 31 28 25 25 25 26 26 23 22 24 28 30 27 29 36 39 41 44 50 53 55 58 63 64 69 66
64 61 57 51 43 42 45 44 42 39 34 31 30 30 31 32 34 31 31 30 30 29 27 21 20 21 23 25 28 34 37 39 42 46 49 52 54 57 60 63 63 65 70 68
58 63 61 55 47 44 46 45 42 42 39 34 26 25 29 33 36 36 34 33 33 30 26 27 29 26 28 32 34 39 41 45 49 53 57 57 61 64 65 66 69 69 74 69
50 61 64 59 50 46 45 48 45 42 39 35 32 32 27 28 31 35 38 37 37 33 35 35 34 33 36 39 41 47 50 52 54 56 59 63 67 69 69 71 72 73 75 70
51 52 65 62 55 50 47 45 47 46 41 39 37 36 35 30 30 31 35 40 40 38 39 39 41 42 45 46 49 51 51 54 60 64 67 70 70 71 73 73 75 77 75 71
53 50 58 66 60 56 51 50 47 47 49 47 45 44 43 42 41 43 43 43 42 44 45 47 50 53 51 52 54 56 61 63 69 69 73 70 71 74 75 77 79 79 73 72
54 53 50 60 67 59 57 54 52 51 52 51 51 50 50 49 49 49 51 52 51 52 54 55 57 57 56 56 58 60 69 73 75 73 74 74 76 76 77 80 81 78 76 79
52 53 54 51 54 61 63 60 57 57 57 56 56 55 54 54 54 55 57 57 58 60 61 61 61 65 65 61 62 69 77 79 76 73 77 81 80 80 81 83 79 79 82 85
54 53 53 55 55 54 53 54 57 56 57 58 59 60 60 61 60 62 63 65 67 66 66 66 68 69 69 66 65 75 74 76 77 81 84 82 82 83 85 83 84 85 88 90
57 55 55 56 55 55 55 58 58 54 54 55 54 54 61 65 65 67 71 72 72 69 69 70 70 70 70 63 74 76 77 79 82 83 83 84 84 84 84 85 88 89 92 94
61 58 56 55 53 54 55 55 56 56 55 53 51 53 58 62 66 68 70 72 72 68 67 69 69 68 70 76 77 78 80 81 81 80 82 82 84 87 89 90 93 95 99 101
63 61 59 58 57 57 55 55 53 52 53 53 58 61 62 66 69 72 73 73 72 69 69 72 70 69 75 79 78 79 80 80 79 82 84 87 89 91 93 96 99 102 105 109
66 66 64 64 62 62 62 60 57 56 55 55 57 62 64 67 70 73 75 73 72 70 70 73 71 70 74 75 78 79 79 82 86 89 90 92 95 98 100 103 106 108 111 116
69 70 71 71 70 70 70 67 64 61 61 59 61 66 69 69 72 73 72 73 73 72 72 72 71 73 77 79 81 83 86 89 91 94 97 100 102 105 107 110 112 115 118 122
73 72 75 77 77 77 74 72 70 70 70 71 71 72 74 75 77 79 79 80 80 81 81 81 81 84 86 88 89 92 94 96 98 101 105 108 110 114 117 120 121 124 128 128
73 78 82 81 80 80 79 80 82 82 82 81 80 80 82 83 86 88 89 90 90 91 91 91 93 95 99 99 101 102 103 104 106 109 112 116 119 123 126 127 126 122 117 109
75 81 88 87 85 84 85 88 89 90 90 90 90 90 90 91 94 96 97 99 101 103 103 103 104 106 108 109 109 112 114 116 119 119 121 123 121 117 115 113 110 105 104 105
72 75 76 81 86 93 97 95 94 93 93 95 98 98 99 100 103 105 107 108 110 112 113 114 114 115 117 118 119 121 121 121 117 115 114 111 107 108 107 108 105 105 103 100
70 71 75 76 80 82 89 93 95 98 101 104 105 105 105 108 111 110 110 114 115 116 117 118 119 118 119 119 117 114 115 114 109 105 102 103 103 104 103 102 100 97 97 94

GFSNW_250_spd_021.txt.gz
Wind_Speed
57 58 49 44 47 43 37 34 34 34 35 33 31 28 25 26 27 26 23 22 20 18 14 13 14 15 20 20 18 15 13 10 7 7 8 10 11 13 15 16 17 20 22 26
62 56 48 47 51 41 40 38 38 38 38 34 31 29 28 28 26 24 23 21 18 15 14 16 16 19 19 17 16 15 13 10 10 11 13 15 15 15 16 19 24 27 29 31
61 53 51 53 49 43 43 41 39 39 37 34 32 30 28 26 24 24 24 20 17 15 14 16 17 18 18 18 15 14 12 13 15 17 17 16 17 19 21 25 28 29 32 35
58 52 55 57 47 44 43 40 39 42 36 34 34 30 27 25 24 25 24 21 19 17 16 16 17 19 19 17 16 16 16 18 19 19 21 20 20 21 26 29 28 32 36 43
56 55 60 54 47 45 44 43 43 42 40 35 32 31 28 25 24 23 24 22 21 20 17 15 16 16 14 14 15 17 18 19 20 22 22 23 24 26 29 28 32 37 40 45
54 59 61 54 49 45 44 43 43 43 40 37 33 32 30 27 25 26 24 23 22 20 18 17 16 16 18 19 19 18 20 21 21 24 23 24 30 30 28 34 40 43 45 50
55 63 61 53 51 49 48 44 42 44 40 38 35 32 33 30 27 27 26 25 23 19 18 19 19 20 19 18 20 22 23 24 25 27 27 26 31 35 34 38 45 48 51 56
57 65 62 54 51 49 49 46 44 45 43 40 33 32 31 31 30 29 28 26 23 22 21 22 22 21 21 22 25 27 28 29 29 28 28 28 37 41 42 45 51 54 58 61
59 65 60 53 48 49 48 48 46 46 45 38 34 32 30 31 31 32 32 29 27 26 26 24 25 24 26 27 28 30 28 26 28 31 34 35 42 47 50 52 55 61 63 63
60 64 58 52 47 47 48 47 47 47 43 41 38 33 33 33 32 32 32 32 32 30 29 28 29 29 30 30 29 30 29 30 33 36 38 40 49 52 56 56 60 65 67 66
60 65 60 53 46 41 43 45 47 46 44 40 38 38 36 36 35 33 33 33 34 34 33 33 34 31 31 33 35 38 38 37 40 43 48 49 56 57 56 62 65 69 68 70
60 62 62 53 48 43 40 46 45 45 42 40 37 36 35 36 36 36 35 35 37 36 37 38 38 36 36 39 38 41 40 45 48 54 58 59 60 60 63 66 70 71 71 73
58 60 58 56 50 46 41 40 42 44 42 42 39 37 38 36 35 35 34 38 40 39 41 42 42 41 42 43 42 43 47 54 56 59 64 66 64 65 69 73 74 73 74 79
58 58 58 57 55 50 45 40 39 42 45 41 42 42 42 42 41 40 37 37 36 37 39 40 40 42 42 45 46 50 56 62 64 61 65 65 70 74 76 78 75 75 79 83
56 56 54 60 58 56 50 46 42 42 43 46 47 44 44 44 45 46 45 45 45 47 47 48 50 50 51 51 52 56 64 68 67 66 71 72 74 77 78 77 78 80 84 84
50 54 55 52 60 61 56 53 49 46 43 45 46 50 50 49 52 53 54 55 55 55 56 54 54 58 57 53 55 66 74 74 75 74 76 75 77 76 80 82 83 84 83 81
52 50 51 53 51 55 61 60 56 52 50 48 49 50 51 53 57 58 59 59 60 59 58 59 61 63 64 61 63 77 76 78 77 76 78 78 80 81 82 83 83 84 84 87
51 53 52 50 53 51 49 60 62 59 57 55 52 52 56 58 60 62 65 65 66 65 65 67 69 67 69 66 75 74 76 77 77 79 80 81 82 82 83 84 86 88 90 92
53 51 49 50 50 53 56 58 57 60 61 58 57 58 60 63 65 67 69 70 69 68 68 72 72 68 67 73 74 76 77 79 81 80 81 82 84 85 86 88 90 94 96 100
55 52 49 48 50 52 53 54 55 57 59 58 58 63 67 71 74 75 75 75 71 66 67 69 68 66 71 75 75 77 78 79 80 80 81 83 85 89 92 93 97 101 105 109
57 57 54 53 52 51 50 49 49 51 53 54 56 61 64 67 69 71 70 67 68 67 68 71 69 69 74 76 77 78 79 81 84 85 87 90 92 95 98 102 105 108 112 116
62 61 60 60 59 58 55 52 53 53 55 56 62 66 67 68 70 71 70 71 71 70 72 73 72 74 77 79 80 82 84 86 88 91 94 97 100 103 107 111 115 118 121 123
66 67 66 65 65 63 61 60 60 62 63 64 68 70 72 72 74 75 76 78 78 78 77 78 79 81 84 85 87 89 92 95 97 99 102 105 109 112 114 116 119 123 122 116
69 69 70 72 71 70 68 68 70 71 72 73 74 76 77 78 81 83 85 86 87 87 87 87 90 92 93 93 96 98 102 104 105 107 110 113 115 118 121 122 119 115 114 114
72 73 72 70 72 73 72 74 75 76 78 81 82 84 85 88 90 91 92 95 97 96 97 98 100 103 104 104 106 108 111 112 113 114 115 118 119 118 113 111 112 114 112 114
74 76 78 77 77 80 80 78 78 79 83 85 87 89 92 94 96 97 98 100 102 105 106 106 107 108 109 111 114 114 113 116 115 111 108 107 109 107 107 107 107 107 108 100
67 70 76 79 82 81 79 80 85 86 88 90 92 94 99 99 101 103 106 108 109 110 112 113 114 115 116 113 112 113 109 109 110 109 107 105 103 103 105 106 100 97 95 91

GFSNW_250_spd_024.txt.gz
Wind_Speed
57 51 47 46 43 43 43 41 36 32 33 30 29 27 25 24 24 22 21 20 20 20 18 14 13 14 15 16 17 17 16 13 11 9 6 5 7 10 12 12 14 16 19 21
59 51 50 49 50 47 46 43 39 35 35 33 32 30 27 26 26 25 24 24 23 20 18 15 15 16 17 19 19 19 17 14 10 6 6 9 13 15 16 17 19 21 22 25
54 51 52 55 53 51 49 48 40 38 37 36 35 33 29 28 29 27 27 26 24 21 16 15 16 16 19 19 19 17 14 11 9 9 12 15 17 19 19 20 22 24 25 27
53 55 57 57 56 51 52 46 38 41 37 36 35 33 30 30 29 28 28 25 22 19 17 16 18 19 20 19 17 15 13 12 12 14 17 18 20 22 24 26 27 29 29 32
58 60 62 59 56 52 53 45 43 43 44 40 39 35 33 31 28 27 28 25 22 19 16 15 15 15 15 15 15 15 15 17 18 19 19 21 23 27 26 29 30 29 32 38
62 64 62 60 52 55 52 48 48 47 44 39 37 36 35 31 29 28 27 25 22 18 18 16 15 15 16 17 19 20 20 20 20 22 22 22 29 30 29 31 30 35 39 42
67 65 62 56 59 56 52 51 49 46 43 41 41 39 35 31 29 27 26 26 24 21 20 20 21 21 21 22 24 23 24 25 24 26 28 25 34 36 33 29 35 40 45 47
67 64 60 57 62 56 54 52 49 47 47 46 41 38 36 32 29 30 27 25 25 24 24 25 25 25 26 26 26 27 28 28 29 30 33 29 34 40 39 35 40 49 52 55
65 61 59 63 57 55 54 51 49 49 48 44 42 37 36 35 33 29 27 27 25 25 26 27 26 25 26 25 29 31 31 32 34 33 28 27 37 42 41 42 44 55 57 60
63 59 61 62 57 55 53 52 51 49 47 44 43 40 38 37 35 33 31 30 28 29 28 29 29 29 29 31 34 37 36 37 38 36 33 33 40 41 46 50 53 59 63 63
59 59 63 60 55 55 54 52 51 49 48 46 44 42 40 38 35 32 30 30 32 33 33 33 33 32 33 35 37 39 39 39 40 40 42 40 44 49 54 57 60 62 64 67
55 59 64 59 55 55 53 54 51 47 49 48 45 44 41 38 34 34 31 32 34 34 34 35 36 37 38 39 40 43 43 46 46 50 50 49 51 56 58 62 65 68 71 74
52 57 65 60 52 49 52 50 51 49 49 48 47 44 44 41 39 38 37 37 36 36 37 38 38 39 41 43 45 48 49 50 50 50 54 57 59 60 63 67 70 73 76 78
47 56 66 60 53 47 43 44 47 47 48 48 47 45 44 43 42 42 42 42 41 39 38 38 40 42 43 45 47 48 53 54 56 55 60 61 65 68 71 73 76 80 82 82
47 58 66 60 54 49 45 44 43 44 45 44 46 46 46 45 44 44 44 45 45 43 43 43 41 41 41 43 46 54 60 63 61 59 64 65 69 74 77 80 83 84 84 84
45 57 67 62 56 50 47 42 42 41 41 44 45 44 45 47 49 50 49 49 48 46 47 48 49 54 53 49 51 66 66 65 67 67 71 72 76 80 83 84 85 86 87 90
43 53 66 62 57 54 50 49 47 44 42 40 42 44 45 46 49 53 54 54 53 52 52 54 56 57 57 54 58 71 69 71 75 76 78 80 83 83 84 86 88 90 90 90
44 50 61 65 60 56 56 54 51 48 46 45 43 43 46 49 53 54 55 56 58 58 58 58 60 59 62 61 69 73 75 78 80 81 82 83 83 84 86 88 89 89 88 90
49 48 51 61 66 63 60 58 56 55 53 49 51 53 55 55 58 59 60 60 60 59 59 62 64 64 67 70 74 78 80 80 80 81 83 84 85 86 86 87 88 92 94 96
51 51 50 51 53 58 60 60 62 62 59 57 60 62 62 63 64 64 63 63 63 63 66 69 69 69 73 76 77 78 81 83 85 85 85 86 85 87 89 92 95 97 100 104
51 50 50 50 50 50 52 51 52 56 58 62 67 68 68 70 71 73 74 71 70 66 67 72 71 74 78 81 82 82 81 81 82 84 86 88 90 93 96 99 102 105 107 111
54 53 51 50 47 47 47 48 49 50 51 55 61 64 65 66 69 71 71 74 75 76 76 75 73 73 78 79 80 82 84 87 89 92 94 97 99 102 103 105 108 112 116 117
58 57 54 52 52 51 51 50 51 54 56 59 62 63 63 65 68 70 71 72 71 72 71 72 75 79 83 85 86 88 91 94 96 98 101 104 106 109 111 112 113 117 121 122
61 61 58 56 55 54 55 56 57 58 59 61 63 64 65 67 69 71 73 74 76 76 79 82 86 89 91 92 93 96 99 101 103 105 107 110 114 114 115 117 119 118 115 114
62 62 61 61 62 62 62 64 64 65 66 68 69 71 72 74 76 78 81 84 85 87 90 92 94 96 97 98 101 104 105 106 109 111 113 117 118 119 113 111 110 110 113 118
68 67 67 67 68 70 71 71 72 73 74 76 77 78 79 82 84 84 87 90 92 94 95 97 99 101 104 106 109 110 112 115 113 112 111 108 108 107 106 105 105 109 112 104
67 70 71 72 73 74 75 75 75 77 79 80 81 82 85 86 87 88 91 95 98 98 99 101 103 107 111 112 110 108 109 110 108 109 109 106 109 108 105 105 101 97 95 93

GFSNW_250_spd_027.txt.gz
Wind_Speed
75 76 71 64 57 46 41 30 31 28 30 29 29 28 26 26 26 25 23 22 20 19 18 16 16 14 13 13 13 13 14 16 18 19 16 12 7 4 4 7 9 12 15 16
72 78 74 66 57 48 43 35 36 33 33 33 32 31 30 30 28 26 24 21 20 18 18 17 14 13 12 13 14 17 19 19 19 15 10 7 6 7 9 11 14 17 19 21
72 74 72 68 62 56 48 42 42 39 38 37 37 35 33 31 28 27 25 23 21 21 19 16 14 15 14 15 17 18 17 15 12 10 9 8 9 11 14 17 19 21 22 26
66 70 71 72 66 59 55 45 43 43 41 37 41 38 34 31 30 30 27 25 24 22 20 16 15 14 16 18 17 17 15 14 12 11 12 12 13 15 19 21 24 26 26 31
66 66 71 71 67 61 55 50 46 47 47 46 44 38 35 32 32 32 29 27 26 23 20 17 17 16 18 19 17 16 15 15 16 16 15 15 18 22 25 26 29 29 31 33
62 66 69 68 62 61 54 53 54 53 48 46 42 40 38 36 35 34 31 29 27 25 22 20 19 18 19 19 19 19 20 21 19 18 19 19 25 30 30 32 32 32 34 34
66 65 64 63 60 59 60 56 56 54 50 48 44 42 39 37 36 34 32 30 28 25 23 22 21 21 21 21 21 21 23 23 22 24 25 24 32 36 37 35 34 34 36 37
60 63 63 64 63 65 57 61 60 55 53 50 46 41 40 39 38 35 32 31 31 27 24 23 23 23 23 24 26 26 27 27 26 28 30 30 35 39 42 40 37 38 37 42
62 64 66 64 66 62 64 61 59 56 54 49 48 45 42 40 38 36 32 31 30 29 27 25 25 26 26 27 28 29 30 29 29 33 32 34 41 44 44 42 40 42 45 50
66 64 64 67 65 62 64 59 59 57 53 51 47 43 42 42 39 35 31 30 30 29 28 28 27 27 27 30 32 32 32 32 34 36 36 39 44 45 46 47 47 48 52 58
63 65 66 65 59 65 60 60 60 57 54 52 47 44 44 43 40 35 33 31 30 30 30 29 28 29 31 33 34 36 37 37 40 42 44 44 44 46 48 51 53 56 59 63
66 65 61 57 65 61 60 58 57 56 54 52 48 46 44 43 40 37 36 34 33 33 31 31 32 34 34 36 37 40 41 43 44 47 49 49 48 47 51 54 58 61 64 67
67 62 61 57 65 59 58 59 58 56 55 52 48 44 43 43 40 38 38 37 35 33 32 33 35 35 37 38 40 43 44 47 49 50 53 53 54 56 57 59 63 65 69 72
60 60 59 65 58 56 59 58 57 55 54 52 49 46 44 43 42 41 39 38 36 36 36 36 36 38 40 42 43 44 49 49 47 47 53 55 59 61 63 65 68 71 75 79
55 53 56 65 56 55 58 54 54 54 51 50 50 47 45 44 44 44 44 43 42 42 42 42 42 41 42 43 44 51 55 52 54 57 60 60 62 66 69 72 75 79 83 87
54 52 60 63 56 54 51 48 49 49 50 49 48 49 48 47 46 46 48 48 48 47 46 45 45 47 45 45 50 58 59 61 62 60 60 63 67 71 74 77 82 86 90 90
51 46 62 64 57 52 48 50 54 52 51 51 50 48 49 49 49 49 49 49 49 48 48 49 49 51 51 52 55 63 65 66 66 66 67 71 74 77 81 85 89 89 87 87
49 45 51 65 62 53 48 46 45 44 45 45 45 47 51 52 51 50 48 48 48 49 50 52 55 57 59 59 63 67 69 71 72 73 75 77 80 85 88 90 87 86 85 86
47 44 43 54 63 59 53 49 46 44 42 42 44 46 49 49 52 52 51 52 52 52 54 58 59 59 62 65 67 68 70 74 77 80 83 86 89 91 87 87 87 89 91 94
46 43 41 46 62 65 60 54 49 46 45 44 47 49 51 51 53 53 54 54 55 55 58 60 61 61 64 69 70 74 77 81 83 86 87 90 90 88 88 90 92 96 97 102
47 44 42 43 51 61 65 59 54 53 53 53 55 56 57 59 59 61 60 60 61 61 63 66 65 68 74 78 80 82 85 87 91 92 91 88 88 91 94 97 100 102 105 109
48 48 44 41 42 47 55 62 60 58 58 61 64 66 65 65 67 68 67 68 67 67 70 74 75 78 83 85 86 89 89 89 89 88 89 92 95 99 102 104 107 109 112 115
51 47 47 47 46 44 46 51 53 57 61 64 65 64 65 64 65 66 68 67 67 69 70 71 75 78 80 82 84 84 84 86 89 92 95 99 101 103 106 108 112 113 116 116
55 55 53 52 49 48 51 54 56 58 59 61 62 63 63 65 65 66 68 69 70 70 72 74 75 76 78 80 83 87 90 92 95 98 101 102 106 108 111 113 116 118 117 118
60 58 55 53 55 56 56 57 57 58 59 60 61 61 62 64 65 66 68 70 71 73 76 78 80 83 86 89 92 95 98 100 101 103 106 107 107 112 112 114 116 115 114 115
67 62 61 61 61 60 60 60 62 63 64 65 66 66 67 68 70 71 74 77 79 81 83 86 89 92 94 96 99 101 103 105 107 109 109 109 110 115 115 114 114 118 117 110
72 71 69 67 67 66 65 67 69 70 70 71 72 72 75 75 77 80 83 84 86 89 92 94 95 96 98 101 103 105 104 105 108 107 108 111 112 111 111 114 110 106 104 103

GFSNW_250_spd_030.txt.gz
Wind_Speed
104 110 110 105 99 84 75 64 51 45 41 34 32 25 19 24 22 21 23 23 22 21 21 20 20 19 18 17 17 16 16 17 18 17 18 19 19 16 14 12 13 14 16 17
103 102 101 101 91 79 76 61 53 47 43 33 33 30 24 27 25 24 25 24 24 23 22 21 19 18 17 15 14 15 16 18 20 22 21 19 17 15 14 14 15 18 20 21
99 96 93 89 83 82 78 62 58 50 43 32 37 33 28 31 28 29 28 27 25 22 21 20 20 17 16 15 16 17 20 22 23 20 17 17 16 14 15 17 19 22 24 25
90 85 81 79 81 83 78 65 60 49 41 34 40 35 34 34 31 32 31 27 24 24 26 25 21 17 16 16 19 22 23 23 21 19 17 15 15 17 19 21 22 25 27 29
75 67 77 77 80 81 75 67 60 50 44 42 44 38 37 36 35 35 32 28 27 28 27 23 18 17 17 20 21 22 22 22 21 20 20 19 19 22 23 24 25 29 30 35
66 73 72 73 77 76 72 69 62 56 45 46 47 41 41 40 38 37 34 30 31 30 27 23 21 20 20 21 23 24 23 23 23 24 22 20 24 27 26 28 31 33 35 39
70 70 69 73 73 74 75 72 66 58 49 52 49 48 47 44 42 38 35 33 33 30 27 26 24 23 24 25 26 26 27 27 27 27 25 24 31 31 32 33 35 37 39 42
64 64 66 71 76 79 77 74 70 61 56 56 54 52 49 45 41 38 36 36 35 32 30 28 26 27 28 28 28 29 30 29 29 29 30 30 33 36 39 37 39 40 43 46
60 60 66 70 77 78 77 75 70 63 59 59 56 53 50 45 41 39 39 37 36 34 32 31 29 30 30 31 31 32 32 32 32 33 33 34 39 40 40 41 42 46 48 49
59 60 66 67 75 76 74 72 69 67 64 60 57 53 48 45 43 41 41 39 37 37 34 33 31 31 30 32 32 32 32 33 34 36 37 39 41 42 43 45 47 49 50 51
58 63 67 70 74 73 73 70 71 67 65 58 57 54 48 46 44 43 43 39 39 37 37 36 34 32 33 34 34 34 34 35 37 38 41 41 43 44 46 49 52 54 56 58
64 68 70 72 70 68 68 71 69 68 63 60 59 55 50 49 45 43 42 40 37 38 38 36 34 35 35 35 35 35 37 37 41 44 46 46 47 49 52 53 54 57 60 63
66 68 70 69 69 68 72 70 67 65 61 61 59 55 51 49 46 45 43 40 39 39 36 34 35 35 36 36 37 40 42 44 45 46 49 48 49 50 49 51 57 61 64 67
66 69 70 69 68 72 70 68 63 63 60 59 57 55 52 49 47 46 44 43 41 39 37 37 37 38 38 40 41 43 45 45 46 48 51 50 53 53 58 62 64 65 67 69
65 67 68 69 71 66 70 64 61 62 60 58 57 56 52 49 47 47 46 45 44 43 42 41 40 40 40 41 42 45 48 49 50 53 55 56 59 62 65 67 69 70 73 77
65 66 67 68 62 64 66 62 60 57 56 56 55 54 52 49 48 47 46 45 45 44 42 42 42 45 46 46 49 53 57 57 57 56 58 61 65 67 70 72 75 78 81 81
62 64 63 55 57 62 58 55 54 55 55 56 56 55 53 51 49 48 47 48 48 47 48 48 50 51 51 52 54 58 60 60 62 64 68 69 71 72 76 79 80 81 84 87
53 55 55 55 63 63 56 54 53 55 54 55 54 55 54 53 51 50 49 48 49 50 51 52 53 54 54 52 58 60 64 68 70 72 73 73 75 78 80 81 84 87 91 95
47 47 47 48 58 56 51 50 52 51 52 52 54 56 56 54 54 54 54 53 52 51 52 54 55 54 56 60 63 66 69 73 73 74 76 77 80 81 84 88 92 95 96 94
47 44 48 54 60 55 50 50 49 48 49 52 54 55 56 55 55 55 54 54 54 53 55 57 58 58 62 66 70 72 73 73 75 78 80 83 86 90 92 94 94 93 94 94
49 45 42 49 56 58 56 51 54 52 49 50 52 52 53 55 56 55 53 53 56 55 57 60 59 61 69 72 73 74 75 78 81 85 87 89 91 90 92 93 94 96 99 102
47 48 45 43 46 53 57 54 53 55 55 56 56 55 54 53 54 55 55 56 56 56 61 64 63 69 73 74 75 78 82 86 87 87 87 88 91 91 92 96 100 103 105 108
50 47 45 42 40 39 48 61 64 61 59 60 59 57 57 58 59 60 61 61 61 64 65 67 72 76 78 80 82 83 82 83 85 88 89 91 94 97 100 103 106 108 111 113
51 48 47 44 41 42 44 51 59 64 66 65 63 62 62 62 62 61 63 64 66 68 71 75 77 77 75 76 80 82 83 85 87 90 94 97 99 103 106 109 111 112 111 114
55 52 48 47 48 48 48 48 49 52 56 60 63 66 68 70 71 71 72 73 72 72 73 74 75 77 78 79 81 84 87 90 94 97 99 102 104 106 108 110 112 113 111 112
56 55 56 54 53 50 52 55 55 54 55 57 59 61 63 64 66 67 68 70 70 71 73 75 78 81 82 84 87 90 95 98 99 102 103 104 106 107 109 109 109 110 109 109
58 58 59 61 62 63 62 61 61 61 61 62 63 65 67 67 68 70 72 73 75 77 79 81 84 87 89 92 95 97 100 101 101 101 102 104 106 107 106 106 108 109 109 107

GFSNW_250_spd_033.txt.gz
Wind_Speed
118 112 112 103 97 97 97 95 91 84 82 79 68 67 72 58 44 35 25 25 27 26 23 23 21 22 22 23 22 22 21 22 24 24 22 22 22 24 24 21 20 21 20 19
107 108 112 110 101 97 94 94 92 85 80 80 65 62 61 48 39 33 25 25 24 24 23 23 24 24 24 24 23 23 24 26 25 25 25 25 24 24 22 22 23 22 21 21
100 104 107 108 107 100 98 98 89 84 81 76 58 58 56 47 35 32 28 27 25 26 26 25 26 25 25 24 24 23 24 24 25 25 22 23 24 22 22 23 23 22 25 24
93 100 104 104 102 98 102 102 92 81 77 51 52 58 54 44 35 33 31 30 28 29 29 28 29 27 25 24 23 23 24 25 25 25 26 25 24 24 23 23 24 27 26 28
90 95 99 97 96 99 102 92 86 79 75 62 54 57 52 43 37 35 35 34 33 32 30 31 29 27 25 23 22 22 24 25 26 27 27 26 22 25 26 26 28 28 29 33
86 88 87 84 90 88 85 87 82 77 69 57 61 54 48 45 38 38 38 36 35 32 31 32 30 28 25 24 24 26 28 29 28 29 27 25 27 29 26 28 32 31 32 34
78 81 73 75 75 74 81 78 76 70 60 56 59 55 47 45 40 41 41 39 37 33 33 33 32 30 26 25 27 30 30 30 30 30 28 28 33 31 32 33 34 34 36 40
74 66 60 64 66 74 74 73 68 68 61 69 65 54 49 48 43 43 42 40 39 35 34 34 34 31 27 27 30 32 32 32 32 32 32 34 35 36 36 37 40 37 42 45
54 52 60 63 68 66 67 67 67 60 70 69 61 54 52 48 45 46 45 42 41 37 36 36 35 32 28 30 32 32 33 33 34 36 37 37 38 39 41 42 43 43 49 49
54 62 64 65 66 64 69 69 65 65 81 76 66 53 51 48 50 48 48 45 42 40 38 38 36 33 31 31 33 34 34 36 37 38 39 40 41 41 42 45 48 49 51 53
62 64 64 63 63 65 65 67 70 78 84 74 66 60 54 48 52 51 50 46 42 41 40 39 37 35 33 33 34 35 36 37 38 39 40 41 43 43 47 48 49 51 55 57
61 60 59 60 62 64 67 68 70 82 82 75 63 59 51 54 54 53 51 45 42 40 39 41 38 37 37 36 36 36 38 39 41 43 43 42 43 45 47 50 53 55 57 59
58 58 58 59 62 66 67 67 79 85 81 75 66 60 55 57 54 56 50 46 43 43 43 41 39 40 40 40 40 40 40 40 42 44 45 44 47 49 51 54 56 59 61 61
54 54 56 59 66 70 73 73 82 83 78 70 62 62 59 58 55 55 51 48 47 45 43 41 41 42 42 42 42 42 43 43 45 47 48 49 49 48 54 57 59 62 65 67
55 57 61 64 67 71 74 75 78 76 74 66 67 61 61 59 58 56 52 49 47 46 45 43 43 44 43 43 43 43 46 46 48 48 48 53 56 56 60 62 66 69 71 72
57 61 62 63 66 69 72 73 74 73 70 66 65 61 60 59 58 56 54 52 50 47 46 46 44 44 44 44 46 47 49 49 51 54 57 58 61 63 64 68 72 73 75 79
62 64 66 66 67 67 68 71 70 67 63 64 64 62 61 60 58 56 56 54 52 50 49 49 48 49 49 48 47 51 54 56 58 60 62 62 67 66 72 75 77 79 81 83
61 62 63 65 64 64 66 67 68 65 62 62 59 57 58 58 57 56 56 54 52 51 51 51 52 51 51 51 57 60 61 61 63 65 68 69 71 76 79 80 80 83 85 86
61 62 62 62 61 61 65 64 64 63 58 53 54 53 55 57 57 57 57 55 54 54 53 54 55 54 55 60 63 64 65 65 66 69 71 75 80 82 82 83 84 86 90 94
52 54 55 56 59 59 59 58 59 60 55 50 50 53 54 56 57 57 58 58 57 55 56 57 56 56 61 65 66 66 68 68 71 74 77 80 81 83 84 86 91 95 95 93
43 50 52 54 56 55 51 53 56 52 51 51 50 50 51 53 56 58 59 60 60 58 59 61 59 60 68 69 69 70 71 73 76 78 80 81 83 86 91 94 94 93 95 96
46 48 52 50 46 44 46 51 52 50 50 51 53 53 54 56 58 60 59 59 59 56 60 61 57 65 71 71 72 73 75 76 78 80 81 85 90 93 91 93 95 96 98 102
45 43 45 46 44 42 45 53 57 53 51 54 55 55 54 55 56 57 58 58 57 57 58 59 60 70 71 72 74 75 76 79 81 85 89 92 91 93 94 96 99 102 105 108
43 42 42 40 39 41 47 52 59 57 53 52 52 54 57 60 62 61 61 62 62 62 62 63 69 70 70 72 74 77 80 84 88 90 91 91 93 95 98 102 105 108 110 113
45 45 42 43 43 42 43 46 52 58 61 60 59 57 59 61 62 63 64 64 64 64 66 70 72 73 75 78 81 85 87 87 88 89 91 95 98 101 104 107 109 111 113 111
47 45 45 47 47 48 48 48 48 49 51 53 57 62 67 70 69 70 71 72 71 72 75 77 79 81 84 84 83 84 85 87 90 94 97 101 103 106 108 109 108 108 109 110
47 49 52 52 52 53 53 53 55 55 56 55 55 55 58 61 65 68 70 72 73 75 76 77 78 79 81 82 84 87 90 93 97 100 104 105 106 106 107 107 107 109 111 112

GFSNW_250_spd_036.txt.gz
Wind_Speed
112 106 101 97 100 91 98 84 90 96 91 88 78 71 75 73 70 70 66 67 59 37 35 25 22 22 25 28 31 35 33 34 34 33 33 33 33 29 27 28 27 25 22 22
119 116 112 107 99 96 90 94 94 98 96 87 77 76 76 72 71 69 65 65 54 40 37 34 31 27 31 27 28 30 33 33 31 30 32 31 28 29 28 27 24 24 24 25
106 112 116 115 107 103 100 98 96 98 90 85 80 77 73 72 71 67 68 68 48 42 36 33 28 25 25 25 27 28 28 28 29 31 29 29 30 27 26 27 28 26 28 22
98 100 109 115 114 111 107 102 94 93 87 82 80 81 76 73 68 68 67 61 42 41 33 31 25 26 26 27 28 28 29 30 30 31 29 31 28 28 29 29 28 25 26 25
87 92 95 109 115 116 112 101 97 95 90 88 82 80 74 74 71 63 63 49 44 40 34 33 27 27 29 30 30 30 30 30 29 30 30 31 29 30 30 29 26 25 27 27
77 83 90 97 101 104 101 104 100 98 94 91 87 78 76 70 67 57 56 47 46 42 35 34 32 32 32 30 29 29 29 30 29 30 31 29 31 31 29 27 26 29 29 32
68 75 78 88 93 93 96 99 96 91 83 81 78 80 76 68 68 58 52 49 46 38 41 36 34 33 34 32 31 30 30 29 30 31 29 29 33 30 29 29 32 30 32 36
65 70 74 71 83 79 89 87 83 82 77 79 79 73 68 61 50 52 52 47 45 44 42 39 35 34 34 34 31 30 29 29 31 31 30 34 34 31 34 34 35 35 39 43
60 67 65 66 66 76 83 81 79 74 74 69 73 74 67 59 44 55 52 49 47 40 44 41 37 36 35 33 33 29 30 31 33 34 34 34 34 37 38 40 39 41 47 47
56 60 59 60 64 72 74 75 76 73 62 70 71 67 57 51 50 50 50 50 47 43 46 44 39 36 35 37 34 30 32 34 35 37 37 37 36 41 41 42 46 46 49 51
50 51 56 55 63 68 64 67 71 64 61 61 66 64 54 51 58 51 50 49 47 43 46 46 40 36 36 37 36 33 32 34 36 38 39 39 41 41 44 46 48 50 52 54
49 53 51 58 62 65 65 64 61 61 56 53 57 52 53 55 63 55 50 48 50 48 47 46 40 37 36 39 38 34 33 35 38 40 40 41 42 44 44 49 53 52 53 54
53 56 60 62 64 65 65 65 52 32 68 57 59 61 57 63 60 52 52 50 47 47 47 49 42 40 38 40 39 37 36 37 38 42 42 41 45 45 46 52 51 53 54 56
61 61 60 61 64 64 65 63 65 77 94 64 57 59 64 67 61 54 55 49 49 48 48 48 43 42 41 42 40 40 39 42 43 46 45 48 45 44 52 52 52 54 58 61
59 61 62 61 60 61 58 67 61 62 68 61 58 65 70 67 61 57 54 49 48 48 50 49 45 44 44 43 42 43 44 45 48 48 48 53 48 50 52 54 57 62 65 66
56 56 57 57 60 64 67 70 67 59 59 63 63 64 68 67 63 59 54 51 50 51 49 47 47 48 45 44 45 44 47 49 50 50 53 52 53 53 58 61 64 67 70 72
53 53 56 58 58 60 63 61 61 61 60 64 65 69 73 68 65 59 54 52 51 51 53 51 50 50 48 48 48 48 52 52 54 56 56 54 56 60 65 68 70 73 75 78
46 48 50 53 57 59 64 63 63 63 61 67 67 70 74 71 62 58 54 52 54 56 56 55 53 52 52 51 52 54 56 56 58 59 60 61 64 67 69 72 74 76 80 84
45 49 51 53 54 56 61 60 60 59 62 67 66 70 71 67 62 59 57 54 56 57 57 58 58 55 54 55 58 59 60 60 61 63 66 68 70 72 73 74 78 83 87 88
44 45 48 51 54 57 57 54 56 58 61 62 66 66 66 63 61 58 54 55 56 58 58 60 58 57 58 61 63 65 65 66 67 68 70 73 74 75 77 81 85 86 87 88
45 48 51 52 54 54 54 49 53 56 59 63 65 64 60 55 54 52 53 52 52 54 57 60 59 58 63 67 68 68 69 70 71 71 73 75 76 80 83 85 86 88 90 94
39 40 43 45 47 48 49 50 52 51 55 57 56 55 52 49 48 49 50 52 55 55 57 59 56 61 69 72 73 73 72 72 73 74 76 79 82 84 85 87 89 92 96 99
34 37 40 41 42 43 45 47 49 51 52 53 55 54 54 49 47 47 50 50 51 51 53 54 55 65 70 72 73 73 73 75 76 78 81 83 84 85 87 90 94 98 100 100
33 35 37 36 41 45 48 48 49 50 50 51 54 55 55 54 55 54 55 55 55 54 53 54 64 67 69 72 73 74 76 77 80 82 84 85 86 90 93 96 99 99 100 103
32 34 37 39 42 45 46 47 47 45 46 47 51 56 55 54 53 54 56 57 58 58 59 65 68 69 71 73 75 78 79 82 83 84 86 90 93 96 100 99 100 102 105 109
30 31 33 35 38 41 43 44 44 43 43 48 53 58 58 58 57 56 57 57 56 60 65 67 70 73 75 76 79 80 82 84 88 91 95 97 97 96 98 101 105 108 110 113
39 39 37 37 39 41 43 43 44 43 45 48 51 55 60 65 66 65 66 68 70 71 73 74 75 78 80 83 86 89 92 93 91 90 91 94 96 100 104 106 109 109 112 114

GFSNW_250_spd_039.txt.gz
Wind_Speed
122 121 116 118 118 115 110 105 98 96 97 91 83 75 74 75 75 68 64 67 69 66 58 57 49 40 30 25 23 28 29 30 32 28 32 35 35 32 34 33 33 34 31 26
120 122 121 118 118 118 117 110 101 98 100 92 80 77 78 78 75 68 65 67 66 63 57 60 48 38 32 29 23 26 31 35 34 34 37 34 37 34 33 32 31 32 30 31
115 116 117 117 118 116 116 112 110 103 100 91 85 78 76 76 76 67 66 67 67 66 61 61 50 43 32 34 32 30 32 34 35 35 37 34 32 32 31 29 34 32 35 33
108 113 113 111 116 114 114 115 107 99 89 88 82 77 74 75 71 65 66 64 65 63 63 57 49 36 33 35 32 27 29 31 31 31 28 27 30 28 30 32 35 34 34 33
94 102 105 109 111 113 114 105 97 95 91 89 85 76 74 74 72 70 66 63 67 65 62 57 52 33 34 32 28 26 26 27 26 29 28 29 30 32 33 34 36 35 32 28
80 90 96 100 105 108 104 96 93 91 89 87 80 71 69 69 71 73 68 68 68 64 60 52 46 34 34 32 29 26 27 28 29 31 31 30 32 33 33 37 36 33 27 25
69 75 83 90 90 90 89 94 95 91 88 82 74 70 75 73 70 69 66 66 65 61 55 50 41 35 36 34 31 29 31 29 30 32 30 31 36 35 35 35 30 26 28 31
60 62 69 76 79 78 82 89 95 97 93 87 85 79 75 76 76 73 72 67 64 63 61 52 38 37 36 37 35 33 31 30 30 30 31 33 32 33 32 30 29 30 34 37
58 61 64 68 67 71 79 80 87 91 90 88 85 84 82 76 70 72 67 67 60 62 53 45 38 40 39 36 37 36 34 32 29 30 30 30 30 32 33 31 31 36 39 41
53 56 58 61 62 61 68 75 76 77 79 83 85 82 74 78 79 74 70 63 55 48 39 42 40 42 41 38 39 36 33 33 29 29 30 31 32 34 35 36 38 42 43 46
52 55 57 57 55 58 63 70 72 68 70 74 78 83 80 77 71 64 60 53 42 45 43 45 44 44 43 40 40 37 35 33 31 30 31 33 35 36 38 41 44 45 47 48
49 51 53 54 55 60 65 65 64 65 66 65 66 66 67 61 57 53 54 50 39 44 48 48 46 45 44 42 42 39 37 36 36 33 34 34 36 37 42 47 48 46 49 51
47 53 55 57 59 56 57 62 61 60 59 57 56 50 46 47 47 50 45 41 38 45 45 47 48 43 45 44 43 40 40 40 38 38 36 35 36 39 43 51 49 51 53 55
50 58 60 61 60 62 60 54 52 52 52 52 46 42 36 35 42 46 42 51 46 56 55 52 50 44 45 47 43 40 41 43 42 43 38 39 39 41 45 50 50 53 55 59
57 60 63 63 61 58 52 45 41 38 42 39 39 39 38 36 41 51 52 58 61 61 56 53 47 45 48 49 45 42 43 44 44 44 43 43 45 47 49 51 52 56 59 61
68 68 67 67 64 58 52 47 35 31 28 40 51 58 46 45 44 50 54 58 68 65 59 48 45 48 50 49 46 44 45 48 46 47 46 47 49 52 53 54 57 60 62 65
68 67 66 67 77 71 48 34 42 36 36 49 49 53 53 53 54 51 55 60 60 60 54 48 48 51 52 49 46 47 48 51 51 50 49 51 55 58 59 61 62 63 67 70
74 77 76 75 77 82 76 72 82 71 66 69 70 65 58 55 56 55 58 64 63 62 56 51 52 52 51 48 47 50 51 54 56 57 55 56 59 61 62 64 67 70 74 76
70 76 83 89 88 82 79 67 80 80 64 58 58 62 64 67 61 59 63 66 67 62 57 54 55 52 50 49 53 55 56 57 60 61 62 62 62 64 68 71 74 76 78 81
51 55 63 64 79 85 83 81 77 68 59 53 49 59 66 65 64 63 66 68 64 62 58 57 55 51 51 54 58 61 61 61 64 65 65 67 68 71 74 76 77 79 82 84
37 37 40 48 55 64 78 79 77 71 69 64 56 54 59 64 65 66 68 65 63 63 59 59 54 51 54 59 61 63 65 67 67 68 71 72 73 75 77 79 81 83 86 87
40 37 39 41 45 49 53 59 61 59 58 57 55 51 54 56 59 61 62 63 62 59 57 57 52 52 58 61 63 65 67 68 68 70 71 73 75 78 80 82 83 85 87 90
39 39 39 37 37 38 44 49 52 47 49 52 52 53 55 57 58 57 59 59 59 59 58 56 51 56 58 62 65 65 66 65 67 69 70 73 76 79 81 83 85 88 91 93
19 22 26 31 34 40 43 44 43 41 43 49 50 50 51 53 54 53 56 56 55 53 48 50 55 56 58 61 61 62 64 66 70 72 75 77 79 81 84 86 89 91 94 97
23 23 24 27 29 31 35 39 42 41 40 42 45 47 49 52 53 53 53 54 54 55 56 58 59 60 61 62 66 68 70 73 75 77 79 81 83 85 88 91 94 96 99 100
22 24 25 27 30 33 37 40 42 42 43 43 44 45 46 48 50 54 57 57 57 60 63 62 61 62 63 65 68 68 70 74 77 80 82 85 88 91 94 96 96 95 96 99
21 24 27 31 32 34 36 38 40 42 43 44 45 45 45 48 51 53 57 62 67 68 67 66 65 65 65 68 71 73 77 81 85 86 87 87 87 88 92 94 97 101 103 105

GFSNW_250_spd_042.txt.gz
Wind_Speed
123 121 120 120 119 116 112 105 98 96 98 88 76 67 63 64 71 66 65 61 60 60 58 56 55 51 55 54 49 33 27 29 24 22 19 22 28 29 30 31 31 33 33 32
114 120 121 123 119 119 118 112 106 103 106 94 77 73 72 69 75 67 63 60 62 61 59 57 55 51 54 55 46 34 27 30 32 27 24 24 27 32 34 34 35 38 36 35
111 117 118 121 125 123 123 121 117 111 108 95 87 81 77 74 76 70 64 61 61 58 58 57 54 51 52 51 43 34 28 30 30 31 30 27 31 34 33 33 36 36 35 32
100 108 112 115 122 126 130 127 118 107 102 98 91 84 81 80 80 73 68 63 63 59 58 57 57 52 51 53 50 33 29 32 35 35 29 27 31 33 35 35 33 33 29 30
88 100 107 109 113 123 131 125 119 111 104 104 100 93 84 79 82 74 66 61 61 60 59 58 54 51 54 52 49 34 31 32 31 30 27 25 24 28 30 28 29 32 34 30
76 86 96 105 107 115 110 109 119 117 108 106 100 92 82 78 81 75 67 60 60 58 56 55 56 56 55 52 42 33 27 27 28 28 24 22 26 33 27 30 31 32 34 32
69 75 86 91 103 97 99 103 112 115 110 105 100 92 82 79 79 73 65 61 59 60 55 52 52 51 52 52 41 31 27 30 30 30 25 24 32 28 30 30 33 35 35 34
64 69 76 85 91 88 92 94 100 105 108 105 94 89 82 87 82 75 68 61 59 59 54 53 53 53 54 55 42 30 31 32 32 30 28 28 31 30 31 32 31 31 31 30
57 62 69 75 79 79 85 87 92 97 99 98 100 89 82 79 78 77 70 62 60 56 54 57 56 56 53 51 44 31 33 33 33 34 30 28 32 33 30 31 26 30 31 31
51 57 63 65 68 70 74 77 83 90 90 92 93 81 76 80 78 72 66 59 55 55 56 55 55 53 56 48 39 31 32 34 35 35 32 32 34 31 30 29 31 33 35 36
47 50 53 54 60 64 67 70 75 79 88 87 84 81 80 78 72 64 60 62 59 56 58 59 57 55 52 38 36 30 32 36 38 36 33 34 34 32 31 34 36 36 38 40
44 46 49 53 58 60 63 67 70 75 80 82 82 76 77 72 68 67 64 60 59 59 62 61 59 53 45 39 36 32 35 38 38 38 34 35 36 37 38 38 38 40 41 44
43 46 51 56 56 60 63 66 69 71 75 71 70 70 72 74 69 66 65 62 63 60 60 59 54 50 48 45 43 34 36 39 41 40 37 39 41 41 42 42 41 42 45 47
46 52 57 61 62 63 64 64 66 68 67 63 63 62 64 64 63 63 62 60 61 60 54 46 45 36 38 39 42 39 38 40 41 42 41 41 44 45 46 45 45 45 47 50
51 58 63 66 68 68 65 63 60 63 61 57 56 52 51 53 52 52 48 49 49 46 50 48 42 42 41 43 44 41 43 45 43 43 43 43 45 50 50 50 50 50 52 54
57 60 65 67 66 63 61 61 57 54 52 48 45 42 43 40 40 38 40 40 45 47 49 51 46 45 52 54 49 48 47 47 47 48 49 49 48 49 52 52 52 54 55 57
60 64 64 65 63 58 53 51 51 49 47 39 33 31 35 39 39 39 34 28 36 46 44 50 56 53 54 51 51 51 49 50 51 50 52 53 52 52 55 57 59 60 63 65
66 67 66 63 61 59 54 49 47 40 46 56 54 45 45 37 37 33 41 36 42 41 47 54 62 59 57 54 52 51 51 55 53 53 54 56 57 57 59 61 63 66 67 68
73 72 69 67 63 59 52 53 59 47 48 49 53 46 47 48 47 52 45 49 55 54 54 56 60 65 65 58 58 59 60 57 54 55 57 59 60 62 63 64 66 67 69 73
81 80 79 75 64 61 60 56 54 65 53 52 52 56 57 54 58 58 54 57 64 64 57 60 60 57 60 58 60 61 61 61 59 59 60 62 64 66 67 69 70 72 74 76
79 81 79 71 64 62 58 59 60 57 51 55 55 54 64 65 59 62 63 60 58 58 57 58 58 58 60 63 66 66 64 64 63 64 65 65 66 68 69 71 73 74 76 79
72 69 71 70 75 67 72 70 65 64 67 61 58 55 49 45 44 45 49 55 57 55 55 57 55 59 64 70 72 71 68 67 66 67 67 67 67 69 73 74 75 77 78 80
63 60 55 60 57 65 62 61 61 63 60 55 55 50 50 50 49 49 55 54 55 60 60 57 58 64 69 72 74 75 71 71 71 69 68 69 70 71 71 73 76 79 82 85
22 33 36 33 46 55 61 60 60 55 55 54 56 57 55 53 52 55 58 55 56 59 62 63 63 66 70 73 72 72 72 73 73 72 72 70 70 71 75 78 81 83 85 87
21 19 19 37 49 50 56 55 58 60 61 61 63 65 61 61 59 60 59 56 52 54 57 59 61 64 66 68 68 70 71 71 71 71 72 74 76 78 80 82 84 86 87 90
30 32 32 40 50 58 53 56 60 63 63 63 63 65 66 62 58 58 57 54 50 53 56 57 59 62 63 65 68 71 72 74 75 74 75 76 78 82 84 84 87 90 94 95
26 27 31 37 42 47 51 58 59 59 61 61 61 59 57 53 52 54 56 57 56 56 57 59 61 64 66 67 68 69 71 75 79 81 82 84 87 88 90 92 94 94 94 98

GFSNW_250_spd_045.txt.gz
Wind_Speed
101 109 113 109 108 113 116 110 102 99 102 98 83 73 66 67 73 68 65 60 55 54 53 47 49 49 48 50 49 48 46 41 37 23 21 21 18 17 22 24 26 27 27 27
94 103 113 116 112 114 113 113 108 105 110 101 82 78 72 71 75 68 63 59 55 53 53 50 51 47 49 47 49 46 45 43 41 28 22 25 26 23 23 27 30 32 28 31
88 96 107 117 117 116 117 118 119 114 112 98 88 82 81 74 77 70 64 58 54 53 54 54 51 48 50 47 50 47 44 44 45 32 27 25 28 31 29 31 32 31 33 30
81 90 98 111 119 118 121 125 118 112 108 99 90 86 81 76 76 70 66 64 58 56 57 54 51 51 47 47 49 49 46 46 47 34 27 28 30 33 36 33 33 32 32 28
75 83 91 98 109 118 124 118 118 114 104 101 96 89 80 75 76 70 66 63 62 58 56 55 52 54 52 50 48 49 49 48 43 36 29 27 27 26 27 28 24 21 24 26
71 75 84 92 103 114 111 105 113 115 108 105 101 86 80 80 86 76 70 63 61 58 55 61 58 52 52 46 45 49 49 45 43 36 29 22 21 31 23 20 23 24 25 28
66 69 76 85 96 96 92 98 108 108 106 103 94 93 88 84 86 82 78 70 65 63 60 56 54 51 55 50 48 50 48 44 43 36 27 20 31 30 27 27 26 25 27 29
60 65 69 81 88 87 87 93 96 100 103 102 104 98 93 88 91 86 82 73 66 69 68 64 58 53 53 49 48 49 48 45 43 35 29 25 30 32 31 30 27 29 31 32
57 61 67 73 78 79 83 84 88 94 95 95 102 101 96 90 89 90 82 79 73 72 66 66 62 60 54 48 45 47 49 48 43 36 30 28 36 32 34 30 27 34 35 32
53 58 63 68 72 72 74 77 83 87 89 98 102 103 100 94 91 88 87 80 71 69 63 58 54 51 46 43 48 51 49 47 41 34 30 32 37 33 32 33 38 34 34 32
52 55 60 63 64 65 66 71 73 79 91 94 94 98 102 96 95 90 88 85 79 73 67 62 54 52 47 46 46 49 51 46 39 36 30 32 39 34 34 38 40 37 35 33
47 47 49 52 53 57 59 66 70 76 87 85 83 84 86 87 90 92 88 80 72 65 59 56 56 52 48 44 48 50 49 47 43 37 32 36 40 39 39 38 39 41 40 38
40 41 43 46 49 54 59 63 66 71 77 82 82 85 85 85 82 81 75 74 74 67 60 60 55 52 45 42 45 50 50 46 42 38 37 41 42 43 42 39 40 43 45 44
37 38 42 45 52 56 58 59 64 69 73 76 80 83 81 81 78 74 74 71 65 63 62 58 51 46 48 49 50 48 46 45 43 40 40 41 42 43 44 44 43 45 48 49
39 42 47 50 54 57 58 63 67 67 66 68 72 72 77 77 74 70 68 68 65 64 61 57 54 50 50 50 49 44 46 43 45 42 40 41 44 46 47 47 47 47 49 52
38 42 46 51 55 56 59 62 65 64 66 64 67 68 70 71 69 67 63 63 65 62 59 56 53 52 51 51 44 47 50 50 47 48 48 45 45 48 50 52 52 53 54 56
43 46 50 53 56 60 59 58 63 64 63 64 59 58 56 59 61 61 60 62 61 60 61 58 53 49 55 52 46 52 53 55 53 55 55 52 50 50 51 53 56 58 59 60
49 52 57 61 63 64 68 69 65 59 52 48 46 44 44 45 46 47 49 50 52 54 56 53 50 53 56 51 47 51 56 57 59 57 54 55 56 59 58 57 59 61 63 64
53 57 58 61 66 68 66 63 60 54 47 43 43 42 36 17 33 34 30 24 24 35 38 40 46 47 52 55 55 58 59 63 60 59 58 57 61 62 66 68 64 64 65 67
56 60 64 64 63 63 63 57 53 49 47 49 47 52 48 50 43 39 27 27 26 37 34 36 43 47 46 54 56 61 62 63 67 69 70 69 68 71 73 72 68 67 69 70
59 64 67 62 59 53 49 50 52 52 58 56 55 54 56 58 49 44 49 43 34 56 52 48 53 54 62 69 66 62 65 68 69 71 75 76 77 78 76 74 74 75 75 73
61 58 58 60 59 57 54 51 49 53 52 57 58 61 58 54 52 56 54 57 58 67 67 66 61 59 60 62 63 65 66 66 70 73 76 77 77 77 78 80 81 81 80 80
62 60 61 62 61 59 55 52 52 50 60 59 60 58 59 66 66 63 65 70 73 76 74 71 70 74 69 66 68 72 73 67 66 71 74 77 80 80 82 84 86 86 85 84
64 64 63 61 61 62 63 59 50 52 60 66 68 68 65 66 66 73 73 76 80 80 74 66 65 67 68 68 69 72 72 73 71 70 74 76 76 76 79 83 86 86 87 86
52 48 57 60 61 63 60 61 61 58 60 63 67 69 70 69 70 69 60 56 55 52 57 61 60 57 60 65 70 71 73 75 77 76 72 72 72 74 77 81 82 82 84 88
12 27 30 28 35 57 49 62 61 64 61 57 50 52 54 50 56 57 60 56 56 55 56 59 58 62 69 69 68 66 64 65 66 67 69 70 72 74 76 78 81 85 87 90
14 9 16 18 19 38 37 37 50 53 56 56 52 51 53 52 51 53 56 56 59 62 65 65 68 68 65 64 62 60 59 62 65 68 70 72 75 77 80 83 86 91 94 95

GFSNW_250_spd_048.txt.gz
Wind_Speed
84 88 94 96 99 100 99 94 91 97 107 106 88 74 68 73 71 68 65 63 59 57 55 50 49 47 46 43 44 45 43 43 49 48 38 25 22 20 21 19 24 23 24 32
78 82 88 94 99 99 97 96 93 100 107 106 87 78 75 70 73 71 65 63 59 56 52 49 49 47 46 41 45 44 43 42 47 48 42 40 21 22 23 25 28 30 28 35
73 79 83 90 94 96 97 101 103 106 103 96 96 86 77 71 72 71 68 65 59 58 53 51 51 48 47 44 47 44 43 45 47 47 44 39 29 23 25 28 30 31 33 36
71 75 80 85 90 94 99 100 102 100 96 93 89 89 83 76 77 71 68 65 58 56 53 52 51 49 49 48 49 43 44 45 47 49 50 41 34 27 26 26 30 31 37 35
67 71 77 82 86 94 96 95 94 97 90 94 93 89 81 76 77 72 68 62 60 59 55 55 55 55 54 51 49 47 46 45 47 48 50 45 36 28 25 28 32 34 36 38
64 66 70 77 84 91 85 80 89 92 91 96 95 80 84 82 81 73 69 65 64 61 59 61 60 55 53 52 49 45 45 49 45 46 53 44 37 34 25 22 21 25 27 30
61 63 67 72 75 76 78 79 87 89 87 94 85 82 84 86 81 79 73 67 63 62 63 61 59 56 54 49 46 45 48 48 48 46 52 44 41 34 29 22 22 23 27 31
58 59 62 64 70 73 75 78 85 89 89 93 92 86 85 89 84 84 79 73 69 71 68 66 64 59 57 55 53 49 47 49 46 44 50 42 42 41 31 26 25 28 30 32
53 55 59 60 63 70 73 76 78 84 88 93 93 88 83 84 85 88 81 75 78 78 75 68 64 60 52 52 51 52 49 45 43 42 44 42 44 41 34 31 30 34 30 30
51 53 53 56 62 66 67 70 76 77 80 95 96 90 84 81 81 85 85 82 79 74 69 66 63 60 55 53 54 52 49 47 47 47 46 40 40 42 34 32 40 33 32 33
47 48 51 54 58 59 62 68 72 75 78 87 94 94 90 82 80 83 87 92 82 75 73 70 64 60 55 51 50 48 50 51 47 47 47 41 43 40 38 35 38 36 33 35
44 45 46 48 50 54 59 63 68 72 76 81 90 90 91 86 82 85 88 87 85 78 74 68 64 61 61 56 54 51 54 53 49 47 44 44 44 43 41 39 36 38 39 39
39 39 40 43 46 50 56 61 65 66 70 80 87 95 95 96 87 86 85 87 81 76 75 74 71 69 60 56 53 51 53 56 50 44 42 44 46 45 41 38 37 36 41 43
36 37 37 40 44 48 53 58 62 66 75 76 81 90 93 91 88 85 80 83 82 79 73 69 67 65 63 60 62 61 57 54 45 43 46 51 47 43 42 40 38 35 38 43
32 34 37 40 43 48 53 58 61 69 76 72 72 76 87 90 88 86 85 83 78 71 73 72 65 61 63 63 62 60 56 46 43 46 50 47 46 45 43 42 42 43 43 45
35 37 38 40 43 48 53 55 57 59 61 68 70 71 80 85 85 87 82 78 73 70 66 64 63 62 60 56 53 53 51 47 45 48 51 53 52 53 52 46 50 50 50 49
35 37 40 43 47 49 52 53 58 61 63 63 62 64 66 74 81 79 76 75 72 69 66 65 63 64 63 59 53 47 48 50 48 51 55 58 61 56 54 51 55 56 57 57
34 36 41 44 47 51 56 59 58 60 65 64 63 62 66 69 73 71 69 68 69 67 66 64 62 63 62 57 53 53 54 51 53 55 57 64 60 55 60 62 62 59 58 61
34 38 42 45 50 54 53 54 57 58 54 51 52 52 53 54 57 49 63 66 66 65 61 61 62 60 55 53 54 56 58 55 55 61 66 65 64 60 59 59 65 67 67 69
40 42 42 43 48 51 53 56 57 55 52 48 45 45 46 45 46 48 48 50 52 53 53 55 55 51 49 50 47 50 53 55 57 58 63 67 70 67 67 69 71 73 75 78
38 42 46 44 46 51 56 58 55 52 51 48 45 41 40 36 31 30 33 33 39 40 40 41 36 32 32 35 37 42 50 56 57 59 63 69 73 78 76 73 73 75 79 83
38 42 44 44 43 44 48 52 51 49 46 47 44 46 48 40 28 29 28 37 38 40 37 35 36 32 33 32 43 53 59 65 67 68 67 67 69 71 72 73 79 83 83 80
46 48 48 44 41 44 49 50 45 44 44 44 51 54 48 48 55 50 47 43 39 33 27 28 31 44 57 51 61 69 72 73 69 67 66 68 67 69 74 80 81 81 83 86
50 49 51 49 49 46 43 42 44 46 51 58 64 58 54 56 56 50 53 51 47 41 42 40 45 58 63 63 63 65 70 75 78 77 72 71 70 77 79 82 85 85 82 81
52 53 52 50 50 51 51 53 57 56 56 62 63 58 57 57 59 56 57 56 55 53 55 57 58 61 64 70 76 80 83 85 85 81 77 78 77 81 83 81 80 77 75 75
47 50 53 48 49 47 55 56 57 55 56 63 65 62 61 61 65 62 65 61 61 61 66 69 72 70 73 79 83 85 86 86 85 83 82 82 79 82 77 75 72 72 74 78
11 29 38 18 27 42 18 51 52 52 59 57 61 64 68 67 71 69 69 67 69 71 75 76 78 80 84 83 88 83 74 76 82 84 86 82 84 81 76 76 79 81 82 84

GFSNW_250_spd_051.txt.gz
Wind_Speed
80 81 83 88 91 94 100 98 94 94 107 104 84 69 68 70 67 69 65 66 64 64 59 52 49 50 48 44 41 40 38 35 35 36 36 37 40 32 27 22 23 25 28 33
77 78 80 83 85 91 93 92 90 96 110 94 77 67 73 74 70 68 67 66 63 62 58 53 53 52 52 47 42 40 37 35 35 35 38 37 41 38 32 21 25 29 29 36
75 76 77 80 80 85 89 91 93 101 101 79 79 74 76 75 72 71 66 66 65 63 58 56 53 52 53 45 41 39 37 36 37 36 39 37 39 40 36 27 26 31 31 35
70 73 75 77 76 82 85 87 89 90 81 75 73 71 77 80 77 73 69 67 62 59 58 57 54 52 52 47 44 40 39 37 39 38 38 37 40 42 40 31 27 29 36 33
65 68 70 74 75 78 79 77 79 78 77 77 83 77 76 77 79 77 68 66 63 60 57 58 57 53 52 47 43 41 40 39 39 38 39 39 38 43 39 34 28 27 32 33
62 62 66 68 68 69 69 69 74 75 78 79 83 75 77 77 77 77 72 68 68 64 62 64 60 54 52 46 45 44 43 41 41 39 40 38 38 40 37 32 31 25 24 32
57 60 62 63 61 59 64 68 73 72 74 78 79 82 81 80 76 80 78 75 69 68 69 65 59 56 53 50 49 46 44 43 43 42 38 34 43 44 37 35 33 25 28 31
52 56 56 58 60 57 62 68 68 70 79 82 86 88 85 84 80 83 82 82 77 75 68 64 61 57 54 50 49 47 43 45 44 39 35 34 37 46 38 38 32 33 28 28
48 50 52 56 53 56 63 65 64 71 79 83 88 91 89 87 81 85 81 83 81 77 72 68 63 61 57 53 49 47 44 46 43 39 37 33 41 41 44 40 36 35 26 30
43 46 50 50 51 55 58 57 61 68 75 82 86 92 91 90 85 84 83 83 84 80 75 70 68 64 59 52 47 48 47 48 46 40 35 34 35 46 44 44 38 36 31 31
43 45 48 49 49 49 52 55 59 66 72 80 84 92 95 91 87 84 84 88 84 80 74 67 65 62 58 55 50 49 48 46 44 42 40 33 45 42 47 45 42 34 32 33
40 41 42 41 41 47 49 53 56 64 74 77 80 86 92 93 89 88 86 82 84 78 76 68 64 59 55 49 47 47 48 47 47 49 43 40 45 47 48 46 40 35 36 36
34 35 34 37 41 43 47 51 56 61 72 77 81 86 93 97 92 89 85 83 81 77 73 69 66 60 52 49 48 50 50 50 52 54 48 48 45 47 51 45 42 41 40 37
29 31 35 39 41 43 45 49 56 62 71 74 79 86 93 97 95 88 85 85 81 79 76 72 65 61 60 59 58 57 55 56 56 55 52 51 50 55 48 47 45 44 45 40
32 34 36 38 41 42 45 49 53 61 68 74 78 83 89 92 94 91 88 84 80 77 73 69 66 64 63 63 62 57 54 53 56 53 54 52 51 52 47 48 50 50 49 48
31 32 34 35 36 40 42 46 51 57 62 69 73 72 81 93 95 92 88 85 79 75 70 67 66 66 67 66 61 58 56 51 52 54 54 54 51 50 48 53 54 54 54 52
29 30 31 33 37 41 46 51 54 57 60 61 64 72 76 86 91 92 90 85 77 74 70 65 64 65 66 64 59 56 56 56 56 55 56 54 53 50 49 52 57 59 58 53
28 29 31 33 37 42 44 47 48 52 57 62 66 67 72 82 91 94 92 86 81 77 71 66 64 64 61 55 51 55 58 58 59 58 58 57 57 53 52 54 57 61 64 61
31 32 32 33 35 36 39 43 47 50 54 62 63 61 66 73 81 89 89 83 78 77 73 70 68 63 57 53 55 58 59 58 60 60 61 60 57 57 56 57 59 61 62 64
28 30 31 31 31 32 35 36 39 43 48 49 58 64 63 61 66 76 79 79 76 76 73 73 68 62 61 58 58 60 61 61 60 59 61 60 60 60 62 62 65 67 64 65
21 21 23 26 27 30 32 35 37 37 39 44 50 51 49 48 57 65 71 73 79 77 71 71 66 63 61 62 62 63 61 59 59 61 59 57 58 60 61 65 70 69 69 72
23 25 26 28 30 33 38 43 48 51 54 52 48 47 46 48 51 55 65 71 65 63 65 68 64 62 60 61 62 62 60 59 58 58 54 55 61 62 62 67 68 71 71 71
31 31 32 34 32 36 40 45 50 53 49 45 43 43 45 46 45 44 47 47 49 48 48 48 49 52 53 55 55 54 51 52 52 49 53 53 56 65 70 70 71 73 75 76
39 35 35 33 36 40 40 40 40 41 43 44 44 43 42 44 42 43 43 47 48 46 48 42 45 49 50 54 55 52 51 47 47 58 51 54 63 67 73 75 77 80 80 81
43 41 45 44 42 43 44 44 43 40 40 39 42 48 52 51 49 42 42 46 48 48 45 45 50 53 53 51 56 49 50 48 58 63 65 70 73 75 79 81 84 84 87 92
41 38 38 39 38 37 39 41 40 42 39 37 40 46 51 51 48 50 47 46 48 48 49 54 52 52 48 52 50 54 54 59 67 69 69 73 77 79 83 88 92 94 96 94
33 37 31 35 33 33 38 39 42 44 42 46 50 51 52 50 44 45 49 52 54 53 56 59 59 59 57 60 59 58 62 66 69 70 76 82 86 88 91 95 95 98 98 101

GFSNW_250_spd_054.txt.gz
Wind_Speed
83 83 83 85 88 93 95 97 94 97 104 111 103 88 84 86 81 80 72 70 73 65 61 60 61 59 57 54 48 43 42 41 35 32 28 25 25 29 28 28 28 21 27 32
75 79 81 81 83 86 87 85 88 94 106 103 88 79 79 80 80 78 76 72 74 65 63 62 61 63 61 54 52 45 46 42 37 34 30 25 24 26 31 28 27 25 24 34
71 73 78 78 81 84 85 81 80 86 92 83 81 78 77 80 79 80 78 75 74 67 64 63 60 64 62 58 54 49 49 43 39 35 31 25 25 28 32 27 27 27 26 31
70 72 74 76 78 83 82 74 71 70 72 77 74 76 75 78 78 80 78 75 70 67 64 66 62 62 64 61 57 52 48 44 41 35 31 27 26 33 32 28 25 24 28 26
66 68 69 72 74 77 72 63 63 64 66 73 72 75 72 74 79 81 76 76 73 70 66 67 64 64 62 60 55 51 47 44 40 35 33 30 31 35 33 27 26 27 27 28
62 62 65 67 68 68 54 55 63 62 62 65 68 70 76 75 80 80 81 83 80 74 68 70 66 63 60 58 55 51 47 43 41 37 36 31 33 35 36 29 27 31 27 30
53 58 60 61 62 50 53 59 65 61 61 64 66 74 78 82 80 83 84 82 76 74 75 73 67 61 58 57 55 51 47 44 40 38 38 30 37 33 37 28 29 30 29 25
48 51 52 53 51 49 55 62 61 59 59 63 71 78 82 88 89 90 86 85 81 83 83 74 69 63 59 57 56 52 47 44 41 40 38 34 36 36 36 31 32 29 27 31
45 45 47 45 45 50 57 62 60 54 56 61 71 78 89 91 93 96 92 88 88 87 81 77 71 68 61 61 56 52 48 47 44 43 38 32 44 40 37 33 35 31 30 30
38 40 42 44 48 51 59 58 53 54 59 63 71 84 89 94 98 98 96 91 89 88 82 77 71 70 65 61 56 52 48 48 45 45 39 36 44 38 44 36 40 36 35 34
36 39 41 46 50 55 54 50 49 52 58 65 74 86 95 101 103 101 95 96 90 89 84 77 71 69 65 61 56 53 52 51 50 47 41 36 47 42 41 40 36 40 38 39
35 39 43 47 50 50 46 46 49 52 59 64 73 84 94 98 103 103 96 88 91 86 82 77 74 69 69 63 58 58 55 54 52 47 42 43 43 44 41 40 44 41 40 45
37 39 42 43 42 43 44 48 49 52 61 69 76 84 93 98 100 100 98 96 89 84 83 83 81 73 68 64 60 59 59 57 50 49 45 48 47 47 45 46 42 42 45 46
34 36 38 39 40 42 43 46 50 55 63 68 75 84 92 98 100 98 95 92 91 86 83 81 78 73 68 65 65 63 59 55 50 49 49 52 52 50 49 45 43 44 45 48
31 33 35 37 38 38 42 45 47 52 56 62 70 81 88 95 95 97 96 93 89 85 82 73 70 71 71 68 64 56 56 53 52 52 55 57 53 52 48 46 47 47 48 51
30 31 34 36 38 40 42 47 50 54 57 59 66 78 86 90 96 95 97 93 88 84 80 74 72 68 68 64 58 58 57 54 55 55 58 58 54 53 53 52 49 49 52 54
30 31 31 32 35 37 40 44 48 50 53 59 68 76 81 85 91 97 98 92 85 82 78 73 69 68 67 61 57 59 59 60 59 59 60 59 58 59 58 53 51 53 55 56
27 27 27 29 30 32 35 39 43 46 50 58 63 71 76 79 90 97 99 92 88 82 77 73 69 64 61 59 60 62 65 65 63 63 64 60 59 59 60 60 58 56 58 59
23 23 23 24 25 29 33 36 38 40 46 50 55 60 68 75 80 88 93 93 86 77 73 72 70 64 57 58 62 66 70 68 67 65 64 61 62 63 64 64 62 59 60 63
19 19 20 21 24 27 29 31 34 38 42 45 51 57 66 71 77 83 89 91 88 79 74 72 67 62 63 63 63 64 66 66 67 66 64 63 65 65 66 64 63 63 65 68
18 19 20 22 22 23 25 28 31 36 41 48 58 65 72 75 78 83 87 90 88 79 78 73 68 67 67 64 64 65 67 68 69 69 66 63 64 66 66 64 63 65 69 73
20 19 19 20 21 22 25 28 30 33 38 44 54 61 63 67 71 74 79 83 83 82 77 74 72 69 69 68 68 68 69 70 69 68 67 65 65 65 66 67 68 72 73 73
25 25 26 25 25 28 32 37 40 39 40 45 45 41 43 51 53 60 64 73 79 80 82 81 79 76 74 73 73 72 73 73 73 71 70 70 70 69 69 72 75 74 74 74
28 27 30 28 29 27 31 32 38 43 45 45 44 47 50 49 49 55 62 71 78 81 77 79 78 77 78 79 78 77 76 75 76 73 71 70 70 70 73 73 75 74 73 75
32 28 28 31 31 30 29 32 34 38 42 44 44 44 46 47 50 53 58 61 63 69 74 75 75 75 75 74 73 75 76 77 78 77 73 72 71 72 70 71 69 72 72 74
33 30 29 31 32 33 34 35 37 38 40 42 44 44 45 46 47 51 54 58 57 57 59 61 65 67 67 67 70 71 69 68 66 65 69 70 70 72 68 70 69 76 81 83
32 31 25 28 29 29 30 31 31 32 33 34 35 38 42 46 49 51 50 49 51 52 55 57 57 58 62 63 63 63 66 66 65 65 64 66 69 76 75 75 79 82 88 90

GFSNW_250_spd_057.txt.gz
Wind_Speed
87 89 91 93 95 98 100 99 96 99 107 109 109 105 99 96 97 99 95 90 85 80 72 70 63 59 61 56 55 53 47 49 40 41 41 41 36 30 29 26 30 26 19 24
83 85 87 89 89 89 91 89 91 95 103 95 94 95 92 87 92 100 99 95 94 89 84 76 66 64 64 60 53 45 55 46 45 44 41 42 37 32 32 28 31 28 23 25
80 81 82 81 82 84 84 82 82 86 87 85 83 83 84 84 85 88 92 98 99 93 87 79 69 66 63 64 59 49 55 53 48 47 45 44 39 35 31 28 30 27 26 26
69 72 76 79 82 84 86 80 74 76 71 68 70 74 76 77 78 84 88 95 94 88 86 79 72 69 65 67 69 58 54 57 55 53 46 45 42 37 32 29 32 29 31 26
67 69 70 73 76 80 85 76 65 67 67 71 70 67 67 72 76 84 84 87 89 90 85 80 78 72 71 68 69 65 63 60 58 55 50 46 44 40 33 29 31 30 29 27
65 67 69 73 76 80 77 62 60 63 63 67 69 59 63 64 73 73 80 84 90 91 84 85 77 74 73 69 70 58 63 59 60 55 53 47 41 44 35 33 32 30 31 27
60 64 68 71 73 71 64 57 61 59 62 65 59 61 65 63 70 72 80 88 93 87 90 84 80 76 73 71 70 61 59 59 59 57 52 45 44 43 39 35 33 34 34 27
52 56 59 64 65 63 56 59 54 58 64 64 65 58 61 63 73 83 89 86 90 94 88 85 82 78 75 71 69 69 59 59 57 54 51 45 44 45 43 37 35 37 36 26
44 47 51 53 56 55 55 54 57 61 62 61 63 64 65 70 73 80 88 92 98 93 91 85 80 76 73 70 64 64 63 61 58 53 50 41 47 50 47 41 36 44 31 31
38 40 42 47 51 51 51 53 55 59 60 64 63 59 62 68 73 78 90 93 92 92 90 83 79 77 74 69 63 62 63 59 54 50 46 44 51 53 49 42 49 42 33 34
33 37 40 42 45 48 51 53 57 58 61 59 54 57 63 68 74 79 87 92 95 95 93 84 79 78 71 68 68 67 61 59 53 52 50 45 53 57 46 48 47 43 38 35
29 33 38 41 47 53 55 56 57 57 57 52 57 61 64 67 74 82 91 86 92 91 90 84 82 78 74 70 70 70 64 58 55 54 49 50 54 56 51 50 47 43 43 40
30 34 40 45 47 49 50 50 52 51 50 54 59 59 62 69 79 86 88 97 97 97 92 91 86 79 78 75 70 72 69 63 58 55 51 51 53 57 54 54 50 45 44 43
33 37 41 45 47 47 47 47 49 49 51 54 57 58 62 71 79 81 88 91 96 96 93 87 84 79 78 76 71 66 65 65 59 54 53 56 55 61 63 55 51 50 50 48
33 36 37 39 40 41 43 44 44 47 48 52 55 57 62 70 75 80 87 89 89 89 87 81 77 74 76 75 71 64 65 63 63 60 61 62 60 63 62 60 56 54 55 52
31 34 36 37 37 39 40 42 46 49 52 52 53 56 60 65 71 80 83 84 86 90 85 82 81 77 77 74 70 69 67 67 67 64 63 60 62 64 65 61 60 56 58 54
29 31 32 33 35 37 39 41 43 44 42 42 46 52 58 61 66 72 77 81 84 88 84 81 81 79 74 72 69 69 69 65 65 65 62 65 67 68 67 62 64 59 60 59
28 28 30 31 33 34 35 35 34 36 38 40 44 50 53 58 67 75 80 84 85 82 82 81 80 78 76 72 68 73 73 69 69 69 67 68 69 69 67 65 68 68 63 63
26 27 27 28 27 27 27 30 32 32 36 39 43 48 54 61 67 74 80 82 81 82 81 81 80 76 72 69 67 72 74 71 72 72 69 69 70 69 71 71 71 70 71 72
23 22 22 23 23 25 26 27 28 30 34 37 43 45 45 58 67 71 81 80 78 79 80 79 77 73 75 71 68 73 72 71 70 72 74 74 74 72 71 73 72 71 74 76
20 20 20 22 24 25 27 28 29 30 33 35 40 44 56 64 70 73 78 79 79 82 80 78 76 75 72 69 69 72 72 72 73 74 76 76 76 74 73 73 74 76 76 76
19 19 19 19 19 22 23 24 29 31 32 33 41 48 56 61 59 70 76 78 80 81 80 80 78 73 71 69 69 70 70 71 73 76 79 80 80 78 76 74 74 76 77 78
18 19 21 22 22 22 24 26 29 32 34 40 46 49 52 56 50 59 68 68 76 78 79 78 76 74 71 69 71 72 73 72 72 74 76 76 76 76 76 74 74 75 76 77
19 19 20 21 21 23 25 26 28 30 33 37 42 45 48 48 56 63 60 62 68 76 77 77 76 74 75 76 75 75 75 74 75 76 76 77 77 77 77 78 78 80 79 82
22 19 19 23 23 23 24 24 23 24 25 28 34 38 43 45 44 49 52 58 65 71 77 77 76 79 79 78 78 78 79 79 78 79 80 81 81 82 82 83 84 83 84 85
23 25 25 24 22 21 22 24 24 26 27 28 29 30 33 35 38 44 49 54 61 67 71 76 78 79 81 82 83 84 84 84 83 84 85 84 86 87 87 86 86 86 87 87
26 26 26 29 28 24 22 22 24 28 30 31 32 34 36 38 40 43 45 51 55 62 68 73 77 79 81 82 84 86 86 88 91 90 89 89 89 88 88 84 84 86 84 83

GFSNW_250_spd_060.txt.gz
Wind_Speed
82 84 87 89 91 94 96 98 97 101 106 107 107 103 102 106 106 105 108 103 97 93 92 91 84 80 74 73 69 65 60 56 50 41 37 41 39 39 39 37 37 32 29 32
79 81 84 85 88 90 93 93 96 99 102 96 93 95 97 102 104 102 105 110 103 103 99 98 93 84 81 80 72 66 58 55 58 44 39 34 38 41 38 39 39 34 29 34
74 76 79 82 83 84 87 88 89 91 89 88 87 88 89 88 95 88 92 106 109 109 106 103 97 88 77 75 73 70 64 55 58 45 44 46 42 39 40 41 38 38 31 31
74 74 75 77 77 80 86 82 74 76 75 74 75 80 79 82 85 85 85 96 95 96 107 108 95 89 84 76 73 72 66 55 56 58 46 46 45 45 41 42 43 39 35 30
71 73 75 75 74 79 83 76 62 63 63 66 69 69 70 74 76 78 76 89 87 92 99 105 102 93 89 84 77 75 68 58 63 60 47 44 53 50 44 45 46 41 36 33
67 70 71 74 76 79 80 77 64 59 55 60 62 56 59 65 71 69 69 83 84 92 86 101 98 96 94 92 83 79 71 63 67 55 49 47 50 48 50 46 48 43 37 37
65 67 69 72 73 74 79 65 67 63 57 62 53 59 65 65 64 66 69 80 76 74 90 94 97 98 97 95 87 81 74 66 69 63 57 43 44 48 52 48 49 44 39 38
63 63 66 68 69 70 74 57 64 64 57 60 57 65 65 66 64 65 70 74 60 77 89 89 90 94 97 100 88 81 75 68 67 70 62 49 47 53 54 52 52 47 43 40
56 57 60 64 67 70 65 61 63 60 60 53 60 71 71 68 67 69 66 67 68 80 82 87 91 93 98 96 85 79 74 69 66 70 61 53 49 58 53 55 46 52 48 42
46 49 52 55 57 58 57 61 61 58 53 58 65 67 68 65 69 69 73 69 69 76 71 80 85 96 90 83 75 74 74 70 65 64 61 53 51 57 58 51 55 54 50 45
39 42 45 46 48 49 51 53 54 53 53 59 60 62 63 66 64 63 68 75 72 72 75 82 86 81 78 78 78 75 72 70 65 64 64 52 52 59 57 56 62 54 51 46
30 34 37 40 42 42 46 49 51 54 60 61 59 60 65 63 63 67 71 58 64 65 71 74 76 78 80 77 78 73 70 63 65 67 62 61 57 61 61 61 56 57 55 51
24 28 32 35 37 41 46 49 55 58 60 55 58 64 56 58 56 58 56 56 60 61 70 76 76 81 82 80 75 71 68 67 65 65 63 59 60 61 66 62 59 59 55 51
23 26 30 33 37 41 45 48 51 49 51 54 54 52 51 50 53 54 54 56 59 65 73 74 78 78 78 78 75 73 69 68 63 62 62 63 62 64 67 65 59 57 57 52
19 21 24 29 34 38 43 45 46 47 45 47 48 48 48 52 52 53 53 56 59 64 73 69 71 75 80 81 78 66 65 63 60 61 63 66 65 66 64 63 62 61 59 57
20 24 27 30 32 35 37 39 39 39 43 44 45 46 50 50 50 50 54 57 60 67 72 79 74 76 78 78 72 69 66 64 64 66 71 69 65 69 69 64 66 65 61 61
20 22 25 28 30 33 36 39 40 42 42 43 44 44 46 47 47 50 53 56 61 69 68 63 70 77 79 78 71 69 69 66 66 67 70 70 72 70 70 70 69 69 66 65
23 24 26 29 32 34 33 32 33 35 37 37 40 42 41 41 43 46 48 55 59 63 63 66 72 78 79 77 73 72 74 75 70 69 67 68 72 73 73 73 73 74 73 70
27 26 25 25 25 26 29 30 30 31 33 34 34 34 33 35 41 44 46 52 54 58 59 66 72 77 77 76 75 76 73 68 68 69 68 67 69 70 71 73 74 72 70 71
21 21 22 22 23 25 25 26 27 29 29 30 30 31 32 34 38 42 47 51 55 58 62 68 71 75 74 75 72 71 70 69 70 73 73 71 71 71 70 69 70 72 74 77
18 19 19 20 21 21 22 23 24 25 27 27 24 28 32 36 39 44 46 48 52 55 63 68 68 68 70 70 69 69 73 72 72 72 74 73 75 75 74 74 75 76 79 80
14 14 15 16 17 19 20 24 26 27 28 28 31 33 34 35 37 39 43 50 52 56 58 60 61 61 68 70 72 73 76 75 72 73 75 76 77 78 79 81 82 82 82 81
16 15 15 15 16 17 18 18 19 23 25 28 29 31 34 36 38 41 44 45 48 52 56 58 61 65 69 72 73 72 74 75 74 74 75 76 78 78 79 81 82 82 82 83
17 16 17 19 19 19 17 19 21 22 23 24 26 30 33 34 35 38 41 46 48 50 54 56 60 64 67 71 73 75 76 76 76 76 75 75 77 78 79 79 80 83 85 87
20 20 19 20 22 23 20 19 19 19 21 22 22 23 24 22 22 29 38 38 31 49 51 56 60 64 68 70 72 74 76 78 78 77 77 77 78 80 81 82 83 84 85 87
23 22 21 20 20 24 26 24 22 19 18 18 19 22 23 24 25 26 25 28 27 42 47 50 57 64 68 70 73 74 75 77 78 78 79 79 80 82 84 85 87 87 89 89
25 24 25 25 25 24 23 23 23 21 20 17 17 17 21 26 29 31 33 36 40 46 50 54 57 61 65 68 71 76 78 79 82 84 85 86 87 88 89 90 91 92 95 96

GFSNW_250_spd_063.txt.gz
Wind_Speed
79 80 81 83 84 87 90 90 90 94 97 96 93 92 94 96 99 102 105 106 99 94 94 97 95 95 86 82 80 73 73 70 66 59 56 48 46 48 48 39 40 30 39 29
73 75 76 78 80 84 87 88 89 92 92 85 84 87 89 92 92 92 97 104 104 101 96 98 96 94 91 89 87 78 76 74 71 65 60 53 49 53 51 49 39 27 34 35
71 72 74 76 77 80 84 86 85 86 83 81 81 83 85 86 86 87 91 93 99 103 102 100 100 93 96 96 89 83 81 77 69 66 62 59 53 54 46 44 36 32 31 39
64 65 68 70 72 76 82 80 73 76 75 71 75 78 80 83 84 86 84 83 90 98 100 105 100 99 98 94 88 84 85 78 72 66 65 65 60 55 51 43 36 33 34 38
59 61 64 66 68 72 79 71 64 66 69 68 72 70 67 70 78 78 79 74 86 92 86 95 98 105 103 100 94 88 88 79 78 71 67 64 62 57 53 44 42 37 39 38
59 60 61 64 66 71 72 62 60 59 58 57 65 54 56 63 72 70 73 77 77 75 82 88 89 97 98 98 100 95 94 89 85 76 68 66 62 55 54 42 44 40 45 45
59 60 62 64 66 67 71 59 58 56 52 57 50 55 55 59 65 65 67 68 57 68 86 86 85 81 91 96 98 96 99 92 87 82 70 72 54 54 56 52 41 42 47 46
60 62 64 66 68 69 73 62 59 51 48 52 54 52 52 60 65 64 63 62 63 79 82 81 77 77 85 85 85 93 102 94 88 81 75 65 57 53 58 55 42 40 46 47
61 62 64 67 70 71 72 66 59 60 56 49 58 58 62 60 62 62 59 64 69 75 76 74 71 73 77 80 77 82 92 95 89 83 79 71 60 57 61 59 40 41 49 53
57 59 60 63 67 68 67 60 65 66 59 57 59 59 62 67 65 64 67 73 76 75 71 65 62 63 72 74 75 83 91 94 82 85 78 71 63 61 64 61 47 54 51 52
54 56 58 61 63 66 64 61 68 67 58 60 54 59 66 66 66 65 69 78 70 63 58 51 52 59 66 72 78 84 91 94 79 75 76 71 67 66 65 57 61 64 57 52
43 45 48 52 54 57 57 58 63 64 61 57 54 60 64 63 65 68 69 65 66 56 53 47 51 57 65 70 71 80 80 80 75 65 68 73 67 64 64 65 63 63 61 52
32 35 38 40 44 45 46 55 58 58 53 54 57 57 61 62 65 65 65 64 54 48 46 52 56 61 66 71 71 75 71 73 67 66 66 66 65 65 65 64 64 61 60 55
24 26 29 32 35 38 43 48 50 50 48 52 54 55 52 55 52 57 55 51 38 44 47 51 56 59 64 67 71 68 66 73 68 62 62 66 63 62 64 65 70 66 60 56
18 20 23 26 31 36 41 43 43 45 45 44 45 46 47 44 47 48 46 38 39 45 47 49 54 54 61 64 69 62 66 64 62 63 70 68 66 66 63 66 72 76 68 64
15 18 21 24 27 28 30 32 33 35 38 39 41 37 35 35 40 39 37 39 43 46 48 54 55 53 56 62 62 64 68 63 64 70 73 72 69 66 66 67 68 70 69 64
16 18 20 21 22 25 28 31 31 30 29 28 29 32 36 36 37 38 37 39 43 44 48 47 44 55 58 61 62 67 69 67 68 70 67 65 64 60 61 67 68 66 64 67
22 22 24 26 26 26 27 28 30 31 33 34 34 34 34 35 36 36 36 41 43 44 46 48 46 54 56 61 65 65 65 66 68 67 63 59 58 62 64 66 69 69 69 70
25 23 24 26 27 29 30 31 32 32 32 31 30 29 30 32 34 34 35 38 41 44 46 45 50 59 58 58 62 64 67 70 69 68 64 62 62 63 66 70 68 69 70 71
25 25 24 23 23 24 23 24 24 24 23 23 23 26 27 28 29 31 34 37 40 41 44 46 53 57 52 59 61 64 69 71 70 68 64 65 65 65 67 69 72 74 74 76
22 24 24 25 24 24 25 24 24 24 24 24 25 27 29 29 30 32 34 35 37 39 44 44 48 47 47 55 60 66 72 72 70 70 70 71 68 66 66 68 70 71 71 73
20 20 21 22 21 21 21 21 21 24 25 26 27 27 29 31 34 34 33 34 33 36 40 37 40 45 49 55 59 66 72 73 73 73 74 72 71 70 69 71 72 73 74 74
20 20 20 19 19 20 20 19 20 22 23 23 23 22 22 26 29 30 32 31 34 34 35 35 38 43 48 54 62 68 71 72 72 72 72 72 72 73 73 74 76 77 78 79
18 18 19 19 18 18 18 18 19 18 16 17 16 17 19 20 22 25 28 27 30 31 35 37 42 46 51 57 63 66 69 71 72 72 73 72 73 74 75 77 78 80 82 83
18 18 18 19 20 21 21 20 18 16 15 13 11 11 13 14 18 23 23 22 23 26 30 34 38 44 49 54 60 65 69 71 72 73 73 74 75 76 78 80 81 82 84 85
22 18 19 19 21 22 23 23 22 21 19 16 13 11 9 5 9 7 15 17 20 24 25 30 35 42 48 54 60 64 67 70 72 73 74 77 78 80 82 83 84 86 87 88
22 20 20 19 19 21 23 23 23 23 22 20 17 15 16 16 13 10 10 12 11 17 24 21 34 42 46 53 60 64 68 71 74 75 77 79 81 82 83 85 86 88 90 92

GFSNW_250_spd_066.txt.gz
Wind_Speed
76 75 75 76 78 80 86 88 85 90 92 92 90 86 95 98 101 103 103 105 105 104 96 90 84 87 88 90 86 80 74 76 72 68 64 61 58 54 55 48 39 40 37 38
73 73 73 75 77 80 84 84 82 84 85 78 79 85 91 89 91 93 95 97 97 99 97 90 87 80 85 87 84 85 86 80 78 74 68 60 59 58 59 55 48 48 43 45
67 69 71 72 74 77 81 80 77 74 73 73 75 80 81 80 85 86 86 91 92 94 96 92 88 84 90 85 79 82 87 83 78 71 69 68 64 60 61 60 54 49 45 43
64 66 67 68 70 74 79 73 66 66 69 71 74 78 79 79 80 77 79 82 86 89 89 93 85 93 94 92 90 85 88 81 78 72 72 75 71 61 62 60 53 53 45 44
59 60 62 64 66 71 75 63 61 63 66 68 67 70 71 77 72 69 72 75 84 79 81 88 91 92 88 91 91 91 93 85 80 77 72 75 75 69 65 63 55 50 46 43
54 56 57 59 62 67 65 57 58 59 61 62 63 62 69 68 69 68 69 73 72 77 83 85 86 83 89 88 86 91 88 90 86 78 77 78 83 68 65 63 56 54 50 46
51 53 54 55 57 59 61 55 57 56 52 53 53 60 63 65 66 65 67 68 71 81 80 81 81 79 77 81 86 86 87 91 91 84 83 88 67 72 67 66 62 61 53 52
49 51 52 54 56 59 59 56 56 51 50 50 55 56 59 59 58 57 62 66 72 78 77 77 75 73 73 74 78 79 90 91 84 82 88 83 77 72 69 68 65 62 59 55
46 48 50 52 54 56 57 53 52 48 47 41 56 57 58 57 57 61 59 66 67 71 68 70 66 67 65 68 70 72 75 84 90 89 82 83 78 80 79 76 66 64 61 61
47 50 52 54 55 56 55 51 48 47 46 49 50 46 49 56 55 55 60 64 67 69 65 60 62 60 60 61 65 68 71 77 79 78 89 81 81 78 75 77 61 66 66 59
49 51 54 56 55 55 54 49 51 51 46 49 44 48 48 52 52 52 59 64 62 65 63 59 57 55 54 57 61 63 69 68 74 79 84 81 83 84 87 79 73 70 67 64
47 49 51 53 56 56 54 52 54 55 51 46 44 48 52 54 55 57 60 61 65 65 61 55 51 47 52 54 56 63 64 62 74 77 80 80 77 69 61 68 74 74 72 68
41 43 44 47 50 52 49 49 57 55 52 51 42 46 57 62 64 65 62 61 65 64 57 53 49 45 55 54 55 63 63 68 71 79 79 82 75 71 69 68 72 76 76 70
30 33 36 38 41 43 43 43 50 50 50 48 49 57 61 65 63 63 63 64 65 59 49 51 47 47 53 53 57 60 64 74 74 79 83 83 77 65 65 62 69 75 73 70
24 26 29 32 34 36 39 43 44 46 46 50 51 50 50 51 53 59 55 55 52 52 51 50 42 48 52 53 57 60 67 73 77 85 87 76 60 56 54 57 67 71 71 70
19 21 23 26 29 33 35 36 36 38 42 45 43 40 42 45 45 47 48 47 46 46 45 39 39 48 54 56 58 62 63 68 74 73 67 60 59 65 61 58 60 65 66 68
17 19 21 24 25 27 29 32 34 34 36 33 34 36 35 35 35 37 38 39 42 42 38 39 44 50 51 52 55 55 60 62 67 63 61 66 66 65 59 59 58 59 64 68
18 20 21 23 25 27 28 28 29 29 28 25 27 26 26 29 34 37 35 37 36 38 39 43 47 51 50 48 50 54 58 59 58 62 69 66 66 59 57 62 63 65 69 67
20 22 25 26 26 27 27 28 29 31 33 33 32 32 31 32 32 33 33 34 38 39 41 45 47 45 41 37 45 53 55 57 57 60 65 66 65 61 60 63 66 67 69 68
24 25 24 25 26 26 28 29 29 29 28 29 31 32 31 32 33 35 37 39 39 42 44 43 39 37 36 42 49 54 54 54 58 63 65 65 60 58 59 62 66 68 69 69
27 29 30 26 26 27 27 28 27 28 29 29 29 28 30 32 33 35 36 38 38 39 38 35 31 33 34 39 42 44 49 53 57 60 62 63 61 61 61 64 67 70 69 68
25 26 29 29 29 27 28 29 28 28 27 27 27 29 29 30 31 31 31 30 29 31 30 29 29 29 31 33 40 46 50 53 58 61 62 62 65 66 68 67 67 68 68 68
23 23 24 26 26 26 27 26 26 25 24 24 24 23 23 24 24 25 26 26 28 28 27 27 27 32 32 33 34 38 49 53 57 60 61 65 66 67 69 68 68 69 71 71
23 23 23 23 23 23 23 22 21 20 19 18 18 18 19 20 20 19 20 22 25 28 27 27 30 32 34 33 33 38 47 52 56 57 59 62 66 69 70 73 74 73 73 72
19 20 22 22 22 21 21 22 21 19 18 17 16 15 16 16 18 18 21 24 24 23 24 27 28 31 34 36 40 45 48 51 55 57 60 65 69 72 74 75 77 77 78 80
22 21 21 22 24 24 23 23 24 23 22 21 20 19 17 13 13 15 19 19 20 21 22 24 25 30 33 36 42 47 50 54 56 59 63 68 71 73 75 76 80 82 84 85
26 24 21 21 21 22 22 22 22 23 21 21 20 20 18 15 12 7 11 11 16 18 20 25 26 29 34 39 43 46 50 54 57 60 64 69 72 76 79 81 82 83 84 86

GFSNW_250_spd_069.txt.gz
Wind_Speed
74 76 75 74 75 79 83 83 78 82 85 84 83 92 93 99 102 102 99 96 96 96 93 93 90 89 89 86 85 84 82 79 73 72 72 68 66 62 60 55 53 44 43 40
71 72 74 74 72 74 77 80 75 78 83 72 73 79 87 98 100 103 104 104 103 98 97 102 100 98 94 95 93 89 86 82 76 75 77 74 69 65 58 56 54 43 44 41
65 67 69 71 74 76 78 77 71 68 70 68 73 77 81 85 90 96 99 102 105 102 100 97 94 93 92 94 91 92 88 83 82 77 79 77 72 69 61 59 55 48 45 46
59 61 64 66 69 73 78 76 66 63 65 69 76 78 77 80 80 84 87 92 96 95 96 97 95 97 95 94 93 89 84 79 74 72 77 78 71 69 68 65 62 56 51 48
54 56 59 62 64 69 71 64 61 61 65 71 72 73 69 72 75 77 82 83 90 91 86 91 93 90 88 87 88 86 85 79 77 76 74 75 74 68 67 67 63 55 50 50
52 53 55 58 63 66 60 58 56 57 61 67 66 64 68 69 72 75 79 79 81 84 85 85 86 84 87 84 85 82 82 80 80 80 81 83 80 61 67 62 59 58 54 53
50 52 54 56 59 58 57 53 58 56 59 60 59 62 63 62 66 72 73 72 78 81 78 76 77 76 75 74 79 79 80 83 81 78 85 87 72 78 73 70 66 63 60 57
46 49 51 53 55 56 53 53 52 52 55 57 59 60 62 63 62 62 64 67 75 73 74 73 72 71 68 69 72 72 74 78 82 79 81 82 77 78 82 80 70 68 64 62
45 46 48 50 51 53 50 50 47 48 50 48 53 55 57 60 63 64 66 69 71 69 68 66 67 68 67 67 68 70 71 72 73 74 80 79 68 74 81 84 76 73 72 69
46 46 47 48 49 51 49 47 46 47 46 49 49 49 53 55 57 58 59 63 62 64 60 60 62 63 64 63 65 69 70 70 72 74 77 63 72 76 77 80 68 81 80 72
44 45 46 47 47 48 46 45 44 42 45 48 49 51 50 51 52 53 56 57 55 54 56 56 58 58 61 62 63 66 68 69 71 73 70 69 68 70 74 78 76 76 79 77
43 44 46 48 49 49 48 45 44 43 45 45 47 49 48 49 57 59 56 56 58 55 54 53 56 54 54 56 59 64 67 70 72 72 71 75 73 67 62 75 77 80 78 72
46 48 50 51 52 52 50 49 51 49 46 46 45 48 56 57 59 58 55 56 55 54 53 55 56 55 54 53 54 61 63 67 69 72 68 74 72 70 70 76 74 75 79 78
43 46 48 49 50 51 50 48 50 48 44 43 48 50 50 56 56 54 54 54 54 55 52 52 54 55 55 52 52 55 61 66 64 66 68 69 75 74 77 77 71 69 67 70
33 36 39 41 42 43 43 46 46 45 45 45 51 49 51 55 57 58 57 55 58 54 53 53 52 54 55 52 51 51 58 60 60 61 66 66 72 73 77 74 73 69 64 63
26 28 31 33 32 32 37 37 36 39 42 46 51 50 53 60 61 59 58 57 55 52 51 51 49 54 49 45 50 51 57 57 56 59 64 67 70 80 78 74 72 64 65 63
19 23 25 27 32 34 34 39 43 42 41 43 44 47 52 56 55 56 56 55 50 46 47 45 49 46 43 45 49 53 57 56 56 59 65 70 72 76 78 75 71 68 61 62
16 19 23 26 27 30 36 36 35 37 37 35 34 31 31 33 40 46 48 50 47 45 46 42 42 45 48 47 47 52 58 55 57 58 64 66 72 78 78 78 73 68 65 62
21 22 22 22 23 23 25 26 26 27 25 24 25 26 27 27 29 33 37 40 42 42 42 42 45 46 43 42 49 55 57 54 53 53 58 65 70 80 81 79 75 67 62 59
20 21 22 23 24 26 27 29 28 29 31 28 28 31 34 35 36 38 38 38 36 38 39 40 38 41 40 42 47 49 49 50 52 55 56 60 63 72 73 76 77 71 65 62
24 24 25 24 25 26 27 27 26 26 26 27 28 27 27 28 30 31 33 34 37 40 38 36 38 39 36 39 43 45 47 47 50 54 52 51 58 65 75 77 74 79 71 70
25 29 28 28 28 28 27 27 26 26 26 28 29 29 29 29 31 32 32 33 33 34 33 35 35 36 37 40 42 40 40 42 43 47 51 52 53 57 65 69 71 72 68 65
25 28 29 27 28 28 29 28 27 24 24 24 23 23 23 25 25 25 26 25 25 24 29 33 34 33 34 34 33 35 38 43 46 50 51 54 54 55 60 65 66 64 65 65
23 24 26 27 26 25 25 25 24 24 24 23 23 23 24 24 23 23 24 25 24 25 26 27 29 31 33 35 36 39 41 43 45 48 49 49 49 51 55 60 64 67 70 71
22 24 24 24 24 24 24 24 22 21 21 21 21 20 19 18 18 19 20 22 22 23 23 24 26 26 26 28 31 35 40 43 46 47 49 49 46 49 52 58 62 66 70 73
22 25 28 27 25 26 24 24 23 22 20 20 19 17 15 13 12 12 13 14 14 16 17 20 23 26 26 29 31 31 32 35 40 43 46 47 47 50 53 57 62 67 72 75
27 26 25 25 26 25 25 24 23 24 21 21 20 18 17 15 12 10 10 9 11 14 15 17 18 21 24 28 31 33 35 36 41 44 46 48 50 52 56 60 64 68 74 77

GFSNW_250_spd_072.txt.gz
Wind_Speed
74 73 74 74 75 77 77 76 73 75 78 72 67 71 79 81 86 90 91 86 85 86 82 79 79 79 75 75 74 75 74 68 68 71 71 71 70 65 62 56 50 45 43 41
71 71 72 74 74 73 75 74 71 72 80 66 64 68 74 82 85 91 90 91 91 90 90 90 88 87 81 80 79 79 78 76 75 74 73 74 73 72 70 64 58 50 46 42
64 64 65 67 69 70 71 68 70 68 67 62 68 71 73 76 85 93 92 95 97 97 95 95 92 94 90 90 87 84 84 85 82 79 75 76 71 67 64 64 60 54 46 50
56 57 57 59 61 62 65 62 61 61 56 62 71 73 73 75 81 84 88 94 98 98 98 98 97 98 93 91 88 86 88 84 84 88 85 83 80 75 75 68 64 64 57 56
50 51 51 53 55 57 56 49 50 53 59 65 65 68 68 72 77 81 82 83 92 97 96 98 101 102 99 92 92 91 92 91 89 88 88 86 85 78 82 76 69 61 58 53
46 47 48 49 51 50 45 39 46 49 58 64 63 61 67 71 74 76 79 80 86 88 90 89 93 96 96 94 94 91 90 88 87 82 85 85 77 82 80 72 65 59 55 58
43 43 44 45 45 41 39 45 47 45 52 58 61 65 68 69 70 74 75 77 81 83 79 78 80 84 83 82 86 87 86 90 92 88 89 89 79 83 82 78 68 63 57 56
41 40 40 41 40 40 41 41 41 45 51 55 56 60 64 68 69 70 72 75 79 74 72 72 71 73 73 73 76 78 79 80 80 79 82 77 75 80 83 83 72 70 67 64
40 39 39 38 38 40 40 42 42 45 51 52 56 58 61 62 65 64 69 74 69 69 67 68 68 70 70 71 72 73 72 72 74 73 74 73 73 81 82 79 66 77 71 68
38 39 39 39 39 40 40 41 42 44 45 49 53 55 57 58 60 62 67 67 63 62 61 63 66 67 67 68 70 71 71 70 70 70 73 66 68 76 79 74 68 76 75 70
38 38 39 39 40 40 41 43 43 45 47 50 52 52 53 53 55 60 65 59 55 57 58 59 62 65 67 66 69 70 70 70 69 70 69 65 70 70 73 72 72 75 75 71
38 39 38 38 40 40 38 41 42 45 48 47 49 50 51 53 56 58 56 55 54 55 55 55 59 60 62 63 63 64 65 68 70 68 69 69 68 70 71 72 69 71 72 73
38 38 38 39 39 39 38 40 41 43 43 46 46 48 49 50 52 53 52 54 52 49 53 54 54 54 57 58 60 62 64 66 64 63 65 66 66 70 74 75 70 67 65 70
37 40 40 40 40 40 38 40 44 46 46 46 45 47 48 50 51 51 53 53 46 49 49 48 48 50 52 53 54 56 61 62 63 59 64 61 65 68 72 73 70 62 67 72
36 39 41 40 41 41 41 42 43 45 52 52 51 50 50 50 50 52 52 48 43 44 45 43 45 46 49 50 51 51 55 54 55 54 57 60 66 66 66 72 72 70 67 73
31 35 39 42 44 44 42 40 42 42 42 44 47 48 49 49 51 52 51 52 45 44 41 39 41 47 51 51 52 51 54 54 53 53 54 59 62 62 62 70 72 72 70 71
27 30 33 36 38 40 44 48 51 46 45 45 44 47 47 53 55 55 56 50 43 43 42 42 46 51 52 50 51 53 54 52 48 46 50 53 60 62 63 68 72 78 78 77
23 27 30 33 34 35 37 41 39 39 41 43 46 50 55 57 54 53 57 52 51 49 46 48 51 52 50 47 48 52 52 45 44 48 51 52 57 63 64 65 70 78 78 78
20 23 25 27 28 33 38 37 37 37 39 42 47 49 53 51 52 58 55 52 49 47 47 49 48 44 41 43 48 46 45 48 46 47 50 53 56 57 60 61 65 70 75 74
19 20 24 25 24 27 29 28 28 28 30 31 34 34 33 38 45 48 50 49 45 45 47 48 45 44 42 40 43 45 48 50 49 49 50 52 48 49 52 56 60 66 72 73
21 22 21 22 23 22 21 21 22 24 27 31 36 39 41 44 42 42 41 41 44 45 45 41 41 40 40 38 40 46 49 48 50 49 51 50 50 51 52 54 57 59 63 68
20 22 22 23 23 25 26 27 27 28 27 27 27 26 28 30 31 33 33 33 36 37 36 36 39 40 38 38 39 40 41 44 47 47 47 47 48 49 50 51 55 59 63 65
20 23 22 21 21 20 20 21 21 23 23 23 22 21 22 23 23 24 24 26 27 27 28 29 30 30 31 33 37 40 42 43 43 43 43 43 45 48 51 52 54 58 62 63
22 26 27 26 25 23 23 23 23 22 22 20 18 18 18 17 18 19 20 20 19 20 20 23 24 25 26 30 32 36 38 40 40 41 43 46 50 53 54 54 56 57 59 61
25 26 26 28 27 27 25 23 23 21 20 19 18 17 17 16 16 16 15 15 15 15 16 17 18 20 22 26 30 33 36 39 42 44 45 47 49 51 51 49 49 51 54 58
24 25 26 26 25 26 26 24 23 22 20 19 17 16 16 14 11 11 10 10 11 11 13 14 15 18 21 24 28 31 34 36 37 38 40 44 47 49 48 48 50 51 53 57
22 24 24 25 24 23 23 22 21 19 19 18 16 15 14 12 10 7 5 5 4 5 8 11 14 17 20 22 24 26 27 31 35 37 41 44 46 48 49 47 47 49 51 54

GFSNW_250_spd_075.txt.gz
Wind_Speed
72 72 72 72 73 73 70 69 62 64 67 60 53 55 59 64 73 77 77 81 86 79 75 74 80 76 74 71 63 61 57 55 55 57 58 56 52 54 54 51 49 48 47 45
67 68 69 70 71 70 69 65 62 63 65 53 53 56 64 70 72 77 83 81 80 88 87 80 74 81 79 76 74 69 66 64 65 65 61 58 59 60 58 56 56 54 54 53
65 65 66 66 66 64 62 58 55 56 54 50 60 59 68 71 75 75 79 85 85 82 90 92 87 83 82 81 79 75 73 73 72 71 74 74 68 69 68 64 59 57 54 55
60 61 59 61 61 58 53 50 49 53 48 55 59 65 67 72 75 75 79 84 88 87 87 93 92 90 82 78 76 80 82 79 74 73 72 71 73 73 69 67 62 56 56 56
54 54 55 54 54 50 40 43 45 44 48 57 58 59 61 69 77 75 79 83 84 87 86 90 93 90 90 84 82 80 75 75 76 75 74 77 78 78 80 79 75 70 69 63
48 48 49 50 48 42 36 42 42 41 46 52 53 56 68 71 74 75 76 78 80 80 87 82 82 82 87 90 89 85 86 86 86 83 84 83 81 85 85 85 81 76 75 69
44 43 43 41 39 36 35 40 38 36 43 50 55 60 68 67 69 75 75 76 78 78 75 73 77 79 84 85 90 91 91 91 92 91 94 91 84 89 86 86 83 83 80 74
38 37 37 35 32 33 36 36 35 43 48 52 54 57 63 67 65 67 71 76 78 76 70 70 73 76 76 81 87 85 87 92 93 94 95 90 89 92 94 90 89 86 79 75
37 36 34 32 33 34 34 35 38 42 48 50 56 56 61 66 65 66 70 69 73 70 66 64 67 69 70 73 74 77 80 84 87 89 92 90 89 92 93 94 83 87 86 83
33 33 33 33 32 32 32 35 38 42 46 50 51 52 56 62 64 66 66 64 64 61 59 58 63 65 68 71 72 75 75 78 79 80 77 77 78 82 87 90 86 84 87 85
30 30 31 30 31 31 33 36 38 42 46 48 48 50 53 57 61 64 63 63 61 60 58 60 63 64 66 66 68 70 71 71 71 71 72 71 70 72 79 79 77 76 78 79
27 28 29 31 30 32 32 36 38 41 41 43 47 49 53 57 59 58 57 58 54 55 55 58 63 63 63 63 63 64 65 66 68 67 70 70 71 69 73 74 74 72 73 76
27 26 27 29 31 32 35 36 37 39 40 42 43 46 49 53 54 53 54 55 53 54 56 58 58 59 58 59 58 59 61 63 64 66 69 71 69 68 68 72 72 73 70 72
26 26 25 26 31 33 37 38 38 39 40 41 42 45 47 49 48 50 52 50 47 50 51 53 53 53 55 56 56 57 57 57 59 61 65 66 67 65 65 69 70 72 73 70
27 28 27 27 28 33 37 39 40 41 40 40 44 46 46 46 47 49 47 45 47 48 48 47 50 49 52 53 52 53 54 54 56 59 62 65 66 62 61 63 67 70 74 73
26 28 30 29 27 30 34 36 38 38 37 38 39 39 39 41 41 41 42 45 42 41 39 43 45 49 47 45 45 49 51 53 53 54 57 58 60 60 57 59 64 67 69 72
23 27 30 30 29 31 34 39 42 39 37 38 38 38 41 40 39 39 38 38 38 38 38 40 44 45 41 43 45 48 50 52 51 51 54 55 57 58 59 56 56 62 66 69
22 24 26 30 33 34 36 39 36 39 41 39 39 39 40 40 41 41 40 40 41 35 34 39 41 43 42 40 44 48 50 48 48 52 54 57 57 53 56 57 56 58 59 63
21 22 25 28 30 30 30 28 32 34 37 40 42 44 43 42 42 42 45 45 44 42 41 37 41 43 42 41 44 45 50 52 56 57 54 55 55 52 49 49 51 57 57 56
19 22 22 23 23 24 25 26 26 26 28 32 37 41 46 45 49 50 51 49 54 53 47 43 37 34 36 42 48 54 58 57 57 52 47 43 46 52 46 47 52 56 53 50
19 20 20 21 22 22 22 22 22 23 24 25 27 33 39 41 45 46 51 48 51 52 49 45 37 37 43 47 49 53 52 50 50 50 47 49 53 49 49 49 50 51 50 50
21 24 24 21 20 19 18 19 22 25 25 26 29 32 35 34 35 35 38 38 40 40 43 38 34 38 36 34 34 36 38 42 45 47 47 49 50 49 49 50 49 49 48 49
21 24 25 24 25 26 23 20 19 20 20 21 21 22 24 25 27 27 28 28 29 29 29 30 27 23 24 26 25 26 29 32 36 40 44 44 45 44 46 48 47 47 46 48
22 24 26 25 23 23 23 23 22 22 21 21 20 20 19 18 18 17 15 16 16 17 18 19 18 17 18 19 20 23 27 29 30 32 32 33 34 36 39 41 43 45 46 48
24 25 26 27 26 25 25 24 23 22 21 21 20 18 17 16 16 15 13 11 11 12 13 14 15 16 18 18 19 21 22 23 24 26 27 30 33 35 37 40 44 46 48 50
26 26 26 26 25 24 23 24 24 23 21 20 20 19 18 17 16 16 15 13 12 13 15 15 15 16 17 19 21 23 24 26 28 30 31 32 34 38 41 44 46 47 48 48
29 31 30 29 29 28 28 27 26 24 23 21 19 17 13 12 11 9 9 11 10 11 12 12 14 15 17 20 22 23 26 28 30 32 34 36 38 39 41 42 44 46 47 48

GFSNW_250_spd_078.txt.gz
Wind_Speed
70 69 71 72 71 70 66 65 62 65 59 51 47 46 53 58 64 61 66 71 76 73 72 68 65 65 64 66 65 61 59 59 61 59 58 62 58 57 53 53 53 54 48 43
64 66 68 68 69 68 66 62 60 61 57 48 51 52 55 59 67 66 68 74 76 79 76 76 70 72 64 67 65 61 64 65 63 61 60 54 53 57 58 58 54 54 51 46
62 64 64 65 65 63 59 54 52 57 56 52 56 55 57 64 69 67 69 76 78 86 83 77 77 72 67 64 72 69 61 67 70 65 61 59 56 53 54 51 52 52 52 48
56 57 59 59 59 56 48 46 49 55 52 57 58 56 59 67 70 68 71 75 81 83 93 85 78 80 73 70 71 69 66 65 67 64 59 58 55 51 48 50 57 53 54 51
51 52 51 50 49 45 43 47 53 55 55 54 53 52 56 66 72 66 68 76 83 82 83 92 88 82 82 78 78 80 78 74 77 76 73 70 69 66 66 64 62 59 59 60
44 45 45 46 43 42 45 48 49 46 48 49 50 54 60 66 73 69 68 77 80 82 86 82 90 89 86 84 82 86 88 85 84 81 83 77 69 73 76 76 76 76 73 67
39 39 40 40 39 39 41 42 43 38 45 44 50 56 59 65 66 70 70 73 78 80 79 82 82 89 93 89 88 86 85 85 88 86 86 83 79 78 79 79 81 81 81 78
34 34 34 34 34 35 38 37 37 38 43 48 47 52 59 65 65 65 68 69 71 75 77 78 82 83 85 88 92 95 95 92 89 89 87 83 84 84 84 86 89 88 87 82
32 31 31 32 32 35 38 38 36 41 46 47 51 53 58 61 63 64 65 66 65 68 70 73 76 79 79 82 85 86 90 92 97 96 93 90 85 89 88 87 89 86 84 84
31 31 30 31 31 33 35 35 34 39 44 46 46 49 55 60 61 61 61 63 63 60 65 68 71 72 75 79 82 83 83 84 86 91 92 91 92 99 95 92 96 94 94 94
29 30 28 30 30 32 32 31 34 38 42 44 46 49 51 55 56 57 59 59 57 55 59 64 67 67 71 72 74 74 76 77 81 86 87 89 91 91 93 96 97 98 98 98
26 27 27 29 30 31 31 31 33 34 37 42 45 45 48 51 52 55 55 55 54 53 54 58 64 68 68 68 68 69 71 75 76 76 78 79 80 81 84 89 93 95 98 98
25 25 27 28 29 31 32 31 29 31 36 39 40 43 45 48 49 51 52 50 51 53 51 51 54 57 60 62 65 66 68 69 69 72 74 74 73 73 76 78 80 82 83 84
24 26 27 28 29 31 30 32 32 34 38 40 40 40 41 43 46 47 46 47 49 51 51 52 54 55 57 60 61 63 64 65 67 68 71 71 69 70 72 73 75 76 76 76
24 27 30 29 29 31 32 32 34 35 38 39 40 41 41 42 44 45 47 46 47 46 48 51 54 55 57 60 61 61 61 62 63 65 66 67 66 66 69 69 70 72 73 73
24 28 31 28 27 29 30 29 31 33 38 39 39 41 40 42 42 41 40 41 42 42 46 50 53 55 56 55 56 56 57 59 60 61 64 64 64 63 63 63 65 68 70 71
23 28 32 32 30 27 28 32 37 36 35 35 37 38 39 39 38 38 41 40 40 43 45 49 51 50 49 50 52 55 56 56 57 60 61 62 62 63 64 63 64 66 67 68
22 27 35 36 31 30 31 31 32 35 37 37 36 37 37 38 36 38 40 40 41 42 45 46 47 45 44 44 49 53 54 54 54 56 56 57 59 59 62 60 60 60 61 63
20 25 33 36 34 31 31 28 28 29 32 34 35 34 33 32 33 35 34 35 36 39 40 42 43 44 40 43 49 50 53 53 54 56 55 55 55 57 59 60 61 60 59 57
20 22 28 34 37 34 30 28 27 27 26 25 23 23 24 25 26 28 29 29 29 29 31 35 38 37 37 40 44 47 50 49 50 52 52 53 55 58 59 57 53 50 49 49
21 21 21 24 28 31 29 26 23 20 18 20 21 22 24 27 29 31 32 31 31 30 27 27 23 25 29 35 41 45 49 53 54 55 56 55 54 52 50 46 44 46 48 50
24 25 25 24 25 27 27 27 26 24 24 26 29 32 35 36 36 34 33 35 31 29 30 29 27 32 32 34 38 45 50 54 56 54 50 46 45 46 46 44 47 50 49 48
23 24 25 27 27 26 26 27 29 30 31 32 33 32 31 32 32 35 34 34 32 27 26 28 30 28 26 28 32 39 45 46 46 47 46 45 43 43 42 43 45 46 45 46
22 25 25 24 25 24 23 23 20 18 19 20 20 21 22 21 21 20 21 21 22 22 21 20 20 21 22 23 25 27 30 32 33 33 34 34 35 36 36 38 40 41 43 45
22 22 23 23 23 22 21 20 19 18 17 16 15 15 15 15 15 16 17 17 17 18 19 18 18 18 18 19 20 21 22 23 24 25 26 26 28 30 33 35 36 37 39 42
23 24 25 24 23 22 20 18 17 15 13 12 10 10 11 11 9 11 11 12 11 11 10 10 10 13 15 18 21 23 24 25 26 28 30 30 31 31 32 33 36 38 40 42
31 30 30 29 27 26 24 24 24 24 23 21 19 17 15 13 11 10 10 9 10 11 12 14 17 19 21 22 23 25 26 28 30 32 33 34 35 36 38 39 40 42 43 44

GFSNW_250_spd_081.txt.gz
Wind_Speed
63 66 68 71 72 72 69 72 69 68 66 61 56 54 57 58 61 59 59 57 57 58 60 61 61 55 63 68 70 60 56 51 50 53 55 53 58 55 56 58 58 55 55 56
56 58 63 67 68 67 65 66 66 70 67 59 60 61 61 61 65 63 62 61 60 60 65 66 65 59 64 68 63 63 54 62 57 54 65 59 57 58 53 54 58 59 58 56
49 52 56 60 62 62 61 60 60 65 63 60 62 64 64 62 64 66 64 64 65 65 66 71 69 67 65 71 69 70 55 60 66 60 61 59 59 57 57 62 64 62 61 61
44 46 49 53 55 55 56 56 61 64 59 62 62 63 59 61 61 64 66 66 68 70 68 75 76 73 70 71 72 69 61 59 63 71 67 61 56 60 59 61 64 62 60 57
39 42 45 47 47 48 52 55 59 62 60 61 60 62 60 65 66 65 66 65 70 72 70 75 83 79 76 72 71 71 74 70 68 68 65 66 66 64 60 65 64 63 64 62
35 38 41 42 44 47 50 52 57 57 56 57 56 58 61 61 65 65 67 65 65 70 75 75 81 82 78 77 76 74 73 74 73 75 73 73 71 74 71 68 65 65 63 61
32 34 36 37 39 42 45 47 48 47 54 54 56 57 57 58 61 65 67 63 64 68 73 73 80 87 85 82 81 80 78 75 73 77 75 73 70 72 67 60 61 62 62 60
31 32 33 35 36 40 43 44 44 47 49 49 50 53 55 57 58 59 61 62 63 62 70 73 75 90 90 87 87 83 83 81 73 74 79 78 76 75 76 77 81 74 72 71
29 31 31 33 36 38 40 42 41 42 46 47 49 49 51 54 55 56 58 59 63 62 66 72 75 81 93 92 89 88 87 87 84 82 80 79 85 80 79 84 88 82 80 80
29 30 31 32 34 37 38 38 37 39 44 42 43 46 48 49 48 53 57 58 58 61 64 68 76 79 86 96 93 92 89 88 89 90 89 86 88 89 90 89 93 87 86 87
30 31 31 33 35 37 38 37 34 38 42 34 38 41 41 41 44 50 54 56 56 57 60 64 74 76 80 86 96 100 95 90 90 91 89 90 93 95 96 98 98 97 94 92
29 29 32 34 35 37 39 36 33 36 36 33 37 37 36 37 40 46 49 52 54 53 57 63 69 76 79 81 85 88 93 99 100 97 95 95 97 96 96 96 96 97 98 97
25 28 32 33 38 37 37 34 33 32 31 34 34 38 38 37 40 42 45 47 51 55 58 62 65 68 74 76 79 85 87 88 92 96 100 102 104 104 103 104 103 104 104 101
26 29 33 35 36 35 33 33 32 30 32 33 32 32 36 37 38 40 41 42 48 51 54 56 60 61 65 71 75 75 80 83 87 89 94 90 91 90 91 91 90 91 90 88
26 29 32 35 34 31 32 30 31 30 29 30 32 33 33 35 34 36 36 39 45 48 49 51 57 59 60 63 66 69 74 74 74 76 76 80 80 79 82 82 83 83 82 82
25 28 32 34 28 27 27 25 24 26 27 29 31 32 32 32 32 33 37 37 39 41 43 47 53 56 56 57 60 62 65 68 70 72 74 74 74 73 77 76 74 76 77 78
23 28 33 31 28 29 32 36 35 31 28 28 29 29 29 30 30 32 32 34 36 39 42 47 50 53 54 55 55 57 59 61 64 65 67 68 70 70 73 74 74 74 75 76
23 30 32 32 30 31 31 28 29 28 28 28 27 26 27 27 30 32 34 36 37 39 43 47 49 50 51 52 55 57 59 61 63 64 64 66 68 70 70 70 71 72 73 74
25 29 31 31 28 26 26 28 28 27 26 27 27 27 27 29 30 30 31 33 35 40 42 45 45 47 47 51 54 57 59 60 61 62 62 63 64 65 67 68 69 69 71 73
24 26 28 29 28 25 23 23 22 23 25 26 27 28 28 28 27 28 30 31 33 35 38 41 42 43 46 50 54 56 57 58 58 58 58 59 60 61 63 64 67 67 66 65
26 27 30 29 25 20 20 20 20 19 20 21 22 23 24 24 26 28 30 31 32 34 36 38 37 39 43 46 49 50 49 48 50 51 52 53 56 59 62 65 63 61 59 55
31 32 31 29 27 23 21 19 20 21 22 22 22 22 23 25 25 25 27 28 28 29 32 32 34 41 43 42 42 42 43 44 46 48 51 55 58 59 59 56 51 50 49 48
30 30 33 31 28 26 24 23 21 21 21 21 21 21 22 23 27 28 27 25 26 26 26 26 29 34 37 38 39 45 50 53 56 58 58 59 58 55 54 55 56 56 55 54
30 32 33 32 30 28 26 25 24 24 24 24 24 24 25 23 21 16 17 18 19 19 20 23 23 25 25 25 28 33 38 44 51 55 57 59 59 57 53 50 49 48 49 50
28 29 32 32 33 33 32 32 31 31 28 26 22 18 18 19 19 18 18 19 19 18 20 21 20 22 24 26 28 31 33 35 39 41 43 44 44 45 46 46 45 46 46 46
26 27 29 28 28 27 26 23 21 20 17 15 13 12 13 13 14 14 14 15 16 17 17 17 19 20 23 26 28 30 30 31 32 34 35 36 38 39 40 39 41 41 42 43
29 30 30 30 30 29 27 26 25 23 22 19 17 15 13 12 11 10 10 11 11 13 14 15 16 17 18 21 23 25 27 30 31 33 34 35 37 38 39 39 40 41 41 42

GFSNW_250_spd_084.txt.gz
Wind_Speed
48 50 53 56 60 63 63 68 67 73 77 71 65 63 69 68 67 66 67 66 64 60 53 54 53 52 52 54 63 59 59 48 45 49 54 54 55 52 52 52 52 48 49 53
41 45 47 49 51 55 60 61 66 69 71 65 64 68 68 67 63 60 60 59 56 55 51 56 56 54 56 57 65 62 66 56 46 48 50 51 54 54 53 59 55 56 53 50
35 37 42 43 45 49 51 56 62 66 65 62 63 65 67 65 61 56 56 55 57 56 54 57 57 58 61 62 66 67 68 66 53 51 51 55 56 50 51 57 63 57 56 57
32 33 37 39 40 43 44 49 59 64 61 62 64 63 61 62 61 59 58 56 56 59 57 59 60 61 65 67 65 69 65 70 63 58 59 54 55 54 57 52 57 60 57 56
27 28 31 34 37 38 42 48 56 60 57 60 61 59 60 61 62 63 60 58 59 59 60 60 61 62 65 70 67 69 66 70 71 64 65 62 60 65 57 59 61 61 60 58
24 26 27 31 33 37 41 48 50 51 55 58 55 59 62 61 62 60 59 60 62 63 65 57 59 62 64 71 69 73 73 77 72 70 67 65 58 63 64 64 66 64 58 61
22 23 25 28 32 36 41 44 45 45 51 51 54 55 55 57 59 58 59 58 58 57 57 57 60 65 66 75 74 73 78 78 78 76 65 65 64 67 63 63 63 68 60 68
23 23 24 27 31 34 39 39 40 44 45 47 48 51 51 53 54 53 55 57 55 55 55 52 59 67 68 74 80 77 77 82 80 81 75 61 67 70 70 70 67 67 68 64
23 23 25 27 30 33 36 37 38 41 44 45 48 45 46 49 49 50 51 54 51 53 55 54 55 62 71 74 83 81 79 84 83 85 79 76 71 71 73 75 77 69 71 74
25 24 24 26 29 32 34 35 37 37 40 42 41 41 42 44 44 46 52 50 48 50 54 53 54 59 71 75 84 86 83 81 83 85 83 80 79 74 75 78 79 76 76 75
28 27 27 27 28 31 34 34 34 35 37 32 34 36 39 41 43 45 45 45 47 52 53 52 56 62 68 79 82 87 86 84 82 84 85 81 85 85 82 85 84 82 82 79
29 29 30 30 31 32 33 32 32 31 31 28 30 32 35 38 38 39 41 45 45 50 51 54 58 62 67 75 78 83 89 88 85 85 85 86 85 85 87 85 87 87 87 86
30 30 30 30 33 34 34 34 30 27 29 27 34 35 33 34 35 35 37 39 43 46 51 55 58 64 66 69 78 83 90 92 90 88 88 88 89 90 91 93 90 90 92 95
27 27 27 30 34 34 36 31 25 29 29 31 31 32 36 33 33 34 35 38 40 43 52 55 57 61 62 64 71 77 87 92 92 95 92 92 95 95 93 93 95 97 96 96
24 27 29 33 33 35 33 27 23 27 30 29 30 32 30 32 32 32 33 34 38 44 48 52 55 55 59 62 66 74 78 85 94 96 94 98 99 96 97 96 96 99 100 101
23 27 31 33 32 28 22 19 26 30 29 30 29 27 29 28 29 29 30 32 34 39 45 49 52 54 57 61 64 64 71 77 81 90 97 98 99 101 103 103 102 103 104 106
24 27 27 28 27 25 29 31 24 27 28 27 25 25 25 27 28 29 30 29 32 36 38 42 47 50 50 54 60 61 62 67 72 78 83 86 90 93 97 97 96 95 95 96
21 22 24 26 26 26 20 22 25 27 25 25 24 23 25 25 25 26 26 28 30 32 36 40 44 46 48 49 52 57 62 63 65 70 73 76 80 80 82 84 86 86 87 88
19 19 21 22 23 22 22 25 25 25 25 25 24 24 24 24 25 27 27 28 29 31 34 38 40 42 42 46 51 55 59 61 63 64 64 69 72 74 75 77 80 81 81 80
17 17 21 23 23 22 24 25 24 24 24 24 24 24 23 22 22 23 24 26 27 30 33 34 36 39 42 45 50 55 58 60 61 61 61 64 65 68 69 72 73 74 76 78
19 21 23 22 19 19 23 25 26 26 24 23 23 22 21 22 22 23 24 25 26 28 30 33 34 37 42 46 50 53 55 57 58 58 60 62 63 65 67 69 71 73 75 74
25 27 26 23 23 23 25 25 24 24 23 23 22 21 20 20 21 22 22 24 25 28 31 30 32 41 42 42 43 45 47 48 51 54 57 59 61 63 65 66 68 70 69 68
24 29 33 29 28 26 26 26 25 23 22 20 19 18 18 20 21 20 20 21 22 25 26 28 35 36 35 36 38 39 41 43 46 49 52 54 56 58 59 61 62 62 62 60
22 25 30 30 28 25 22 20 20 20 19 18 17 17 17 18 19 19 19 20 20 22 25 30 31 30 32 35 39 43 46 49 50 51 52 53 55 56 57 58 58 59 61 63
24 24 24 25 26 25 23 20 19 17 16 15 15 15 13 10 11 13 16 18 21 24 27 30 31 34 38 41 43 46 48 49 51 53 55 56 56 57 57 57 56 55 54 53
24 25 24 22 22 21 20 19 18 16 13 10 7 8 9 9 10 10 10 11 12 15 17 18 20 21 24 28 28 31 33 33 33 35 37 38 40 42 44 45 46 47 47 48
26 25 25 24 23 22 20 15 12 9 11 12 11 12 11 9 8 7 7 7 7 9 11 12 16 19 20 22 25 30 30 31 31 34 35 38 40 42 44 46 47 49 49 50

GFSNW_250_spd_087.txt.gz
Wind_Speed
38 38 40 40 41 43 46 50 60 63 66 66 62 65 70 73 72 75 78 79 77 77 77 74 75 72 65 52 49 49 45 49 49 51 43 40 42 43 56 53 45 43 44 44
35 34 35 35 36 38 39 45 55 57 58 56 59 64 68 69 67 67 67 71 72 71 71 66 67 59 48 47 46 47 48 56 53 54 44 39 45 54 51 50 50 48 48 42
33 31 30 30 31 31 36 39 49 50 51 54 56 61 64 66 66 63 62 62 61 60 57 55 55 48 43 46 45 49 53 61 54 57 49 44 49 57 54 53 50 47 46 47
31 28 26 25 26 28 32 37 44 47 45 51 54 60 63 65 65 62 60 58 57 56 53 48 48 45 42 45 46 53 58 62 57 59 56 51 57 59 50 50 53 52 52 52
27 25 23 23 24 27 31 37 40 38 43 48 55 55 60 61 62 59 58 58 56 53 46 43 42 38 41 47 49 60 58 66 65 65 62 56 62 56 53 57 56 57 57 59
25 23 22 23 25 27 30 34 34 37 42 46 50 55 60 59 58 54 56 54 52 54 46 39 45 42 44 49 51 63 63 65 73 70 69 60 58 59 61 59 63 62 68 69
26 22 21 22 23 26 28 29 28 34 37 38 47 51 54 54 54 55 52 50 49 49 48 50 46 40 46 51 53 65 69 69 74 73 75 64 63 60 59 62 64 62 60 55
25 23 21 20 23 24 24 27 30 34 35 40 42 44 47 49 49 52 49 49 49 47 49 51 47 47 44 53 57 66 75 72 74 71 78 71 64 61 63 62 65 67 59 57
25 24 21 21 22 21 21 24 28 32 33 41 40 38 40 44 47 47 49 47 49 51 53 41 42 47 50 54 59 64 75 76 75 76 70 78 77 69 67 67 71 61 61 64
26 25 24 22 23 22 22 23 25 31 36 35 36 37 37 41 43 44 44 46 50 54 40 34 42 47 49 54 61 66 71 78 77 76 75 67 78 79 74 75 70 64 65 67
27 27 26 25 24 24 23 24 25 28 27 28 31 32 38 38 38 41 44 47 49 47 42 43 50 51 48 54 65 67 68 76 78 78 78 72 73 76 81 80 71 63 64 68
27 26 27 27 26 26 24 25 26 24 23 24 29 34 37 38 40 41 42 45 49 45 41 44 49 52 55 58 62 70 73 74 81 78 82 83 82 80 79 78 74 66 65 67
28 27 27 28 28 27 28 26 22 23 22 28 32 30 31 34 35 37 39 44 45 38 38 44 51 53 54 60 61 66 68 74 84 82 80 81 88 85 85 85 86 82 77 73
29 28 27 26 27 29 28 30 23 22 24 28 24 28 29 27 32 34 37 39 36 36 42 45 48 51 52 58 61 62 68 70 77 87 83 84 84 88 91 93 95 91 89 86
26 25 26 26 27 28 29 28 22 21 23 22 27 27 27 30 30 30 31 33 35 36 41 45 46 48 50 53 57 58 61 69 75 85 89 89 86 89 92 98 95 93 93 91
25 25 28 28 29 27 26 26 19 19 23 27 28 24 28 27 26 26 27 27 30 34 34 39 43 46 49 51 52 57 63 65 74 81 89 92 92 92 93 90 90 94 95 95
22 23 26 26 26 26 24 22 21 23 24 23 24 24 24 23 23 24 26 29 32 31 33 38 42 45 48 49 50 55 61 63 66 76 81 86 93 93 94 92 91 92 93 96
19 21 21 22 20 20 18 20 24 25 22 22 22 20 22 22 23 26 28 29 31 31 33 36 39 41 44 45 48 50 54 58 62 64 72 79 85 91 95 97 97 98 97 98
14 14 14 15 16 19 25 25 20 22 21 22 23 23 20 20 24 28 29 31 31 31 33 34 35 36 39 43 46 47 49 55 59 61 64 69 76 81 85 91 96 98 101 102
12 14 18 22 26 25 21 21 21 21 21 19 20 22 20 24 26 27 27 26 27 27 29 30 32 36 39 42 45 47 50 53 57 59 62 65 66 69 74 80 83 85 88 91
17 18 21 22 23 21 21 22 23 22 22 22 21 22 24 25 26 25 24 24 25 26 26 28 30 34 37 41 44 46 46 48 51 53 57 61 65 68 70 72 74 75 76 77
23 29 28 25 22 21 22 24 23 24 24 25 24 22 23 23 21 20 20 19 19 19 21 23 27 30 32 35 37 38 40 42 45 47 50 53 57 61 64 67 70 73 74 75
25 29 28 26 25 25 26 26 26 25 24 24 23 22 19 19 19 19 18 18 20 19 19 23 25 27 29 30 33 36 39 42 46 49 51 55 58 62 64 66 68 70 72 73
29 27 27 25 25 24 24 22 22 22 21 19 18 16 15 14 13 12 13 13 14 17 20 20 20 26 29 31 34 38 41 44 47 49 51 53 55 58 60 63 64 64 65 65
28 25 26 28 28 27 26 25 23 23 21 19 16 13 11 9 7 6 9 10 14 18 21 21 24 28 30 30 33 35 37 39 40 43 45 47 49 51 53 54 55 57 58 59
28 27 27 27 27 26 25 23 22 21 18 15 12 9 7 6 7 9 9 9 11 12 14 15 16 19 23 26 29 32 35 38 41 44 47 49 50 50 52 52 53 54 55 55
29 27 26 24 23 22 20 17 13 11 9 9 7 8 7 6 7 7 6 4 2 2 4 6 9 13 16 19 23 27 30 34 37 40 43 45 47 49 51 52 53 54 54 54

GFSNW_250_spd_090.txt.gz
Wind_Speed
48 43 40 38 36 37 36 38 41 38 41 45 49 57 64 67 67 67 70 72 75 73 79 79 78 77 75 72 69 69 70 67 66 55 49 43 41 43 41 43 48 54 55 56
44 40 38 34 32 32 33 36 33 31 33 38 47 56 63 64 65 66 65 67 69 69 71 74 73 72 71 68 66 66 65 62 57 45 42 45 49 46 40 45 49 55 57 54
41 37 36 33 30 29 30 30 26 27 28 35 45 54 60 59 59 62 64 63 64 65 66 68 67 67 65 62 59 57 55 53 50 44 45 52 52 50 46 47 50 51 59 54
38 35 33 31 27 26 27 26 25 24 27 34 45 51 53 53 54 56 56 60 59 58 58 60 62 60 59 54 54 54 52 51 47 48 51 57 57 50 49 49 45 51 60 58
35 33 32 29 25 23 22 21 19 24 31 37 37 40 47 50 51 55 54 58 57 55 55 51 50 48 45 43 49 49 48 50 48 52 55 64 62 55 50 52 49 54 60 59
32 31 29 26 23 20 19 17 19 20 26 31 39 45 48 50 49 51 51 51 50 50 49 47 46 46 43 43 46 47 49 51 53 57 58 65 66 57 49 51 53 60 64 63
31 29 28 23 21 18 17 17 21 24 26 30 37 43 44 48 48 48 47 49 49 48 47 47 46 47 41 40 44 49 52 55 58 60 59 64 69 62 55 51 61 62 59 64
30 27 27 22 19 18 16 16 19 22 26 31 34 37 36 40 42 45 43 45 47 44 45 46 44 42 40 43 44 47 51 55 61 65 61 69 67 66 59 54 61 63 62 62
28 27 26 24 19 17 16 17 18 22 29 32 30 32 36 37 39 43 43 44 45 44 46 46 44 42 43 44 47 49 51 56 61 67 64 67 72 74 65 60 63 64 62 61
27 27 25 24 22 17 18 19 21 21 21 24 28 31 34 35 39 41 39 42 45 45 48 45 42 40 42 48 49 51 56 58 61 70 66 64 75 72 70 67 63 68 66 65
26 26 25 24 23 20 20 20 20 19 22 26 28 30 35 36 37 39 40 43 45 49 45 41 40 41 40 45 51 50 55 57 60 69 69 65 69 75 76 68 66 71 74 71
26 26 25 24 23 22 21 20 19 21 24 26 27 32 35 37 40 40 40 44 47 49 43 40 40 43 42 48 53 54 53 58 62 66 72 68 70 68 75 75 73 75 76 74
27 27 26 26 25 24 21 21 22 21 26 28 28 27 30 35 37 38 41 42 43 46 39 36 35 36 44 52 53 57 63 60 60 61 75 73 72 70 72 78 80 78 78 74
29 27 26 28 26 24 23 21 21 22 24 24 24 29 29 30 35 38 39 40 40 36 34 35 40 45 49 53 55 54 52 58 62 63 66 78 76 72 73 75 80 86 86 82
28 26 25 26 26 25 24 23 21 24 22 22 27 30 28 31 32 34 33 33 33 35 37 40 42 47 50 52 52 54 57 56 60 64 66 76 83 80 78 78 80 82 85 85
27 25 26 27 27 24 23 24 23 20 21 27 31 27 27 26 25 25 27 28 33 36 39 38 39 41 46 50 52 51 55 58 59 61 69 73 83 90 86 84 87 86 86 84
24 24 24 25 27 26 28 26 15 18 25 27 28 25 24 23 23 24 25 26 28 30 32 34 36 40 43 43 46 51 52 57 61 63 68 73 76 80 91 91 88 87 88 88
19 21 21 23 23 26 25 19 21 27 29 28 24 26 24 21 22 24 27 26 28 29 30 30 32 34 36 40 43 46 50 54 56 57 60 64 69 73 76 83 88 87 87 86
15 17 17 19 22 22 22 26 29 27 24 21 24 24 23 24 25 25 25 25 26 27 27 27 29 31 34 38 41 45 47 50 51 53 57 60 64 65 71 78 85 93 96 93
14 16 17 19 21 25 28 26 22 21 23 24 23 22 21 22 22 22 22 23 24 23 25 26 29 31 34 37 40 42 45 48 51 53 55 59 63 66 68 70 76 82 85 88
18 20 23 25 26 25 23 24 22 24 24 22 22 21 21 20 18 20 21 22 22 24 26 28 30 33 34 36 37 38 42 46 48 49 50 53 58 62 66 69 70 72 75 80
16 21 22 24 25 24 23 24 25 25 24 23 21 20 19 17 17 17 18 21 23 24 23 25 27 28 28 29 29 32 35 38 41 44 48 51 53 57 61 64 68 70 73 74
23 27 29 28 28 27 27 27 25 23 22 21 21 21 21 20 18 19 20 20 19 19 20 22 21 23 25 26 28 31 34 36 40 43 47 50 52 55 58 61 63 66 67 69
28 28 28 24 24 24 24 23 22 21 19 21 23 23 21 21 21 18 16 15 14 14 14 17 20 23 25 27 29 33 35 38 41 43 46 49 51 53 55 57 60 62 63 64
26 24 26 29 28 28 26 26 25 25 24 23 23 20 19 17 16 16 15 15 16 17 16 17 19 22 25 26 29 31 34 37 40 42 44 47 49 51 54 56 58 61 62 63
26 27 28 27 26 27 27 26 24 24 21 19 19 18 16 15 13 11 10 10 12 12 14 16 18 21 24 28 30 33 35 38 40 43 45 47 49 51 52 54 54 55 57 57
24 26 26 26 25 25 24 24 24 23 22 21 18 16 14 13 13 13 13 12 10 9 11 12 14 17 20 23 26 29 32 35 38 41 44 46 48 50 52 53 54 54 54 55

GFSNW_250_spd_096.txt.gz
Wind_Speed
72 70 66 64 61 58 52 47 42 37 35 33 32 32 34 35 36 44 50 55 59 62 66 67 71 81 81 81 79 77 76 72 68 66 60 60 59 56 54 51 48 39 35 37
69 66 63 63 60 55 48 42 36 34 30 28 28 27 28 32 37 43 48 51 57 58 62 67 68 73 81 84 84 82 83 78 72 67 64 64 63 58 55 50 47 41 29 36
67 64 64 62 56 51 43 38 34 30 26 24 25 25 26 31 36 41 47 50 56 54 60 65 68 70 73 77 78 80 78 78 74 71 68 67 64 62 59 53 47 40 33 36
62 63 62 60 51 47 38 35 31 27 23 20 22 21 25 29 35 42 47 49 55 55 60 65 68 69 67 66 67 69 72 73 76 77 72 68 66 66 56 50 44 37 33 37
61 61 58 56 47 45 34 32 28 24 21 18 19 20 22 29 35 38 43 45 47 54 57 59 58 59 58 61 62 63 63 64 67 67 66 67 68 59 52 44 37 35 34 38
60 58 55 52 43 43 33 27 27 21 18 17 19 19 23 24 31 33 34 38 44 44 44 46 52 55 56 57 60 61 61 59 58 61 60 58 56 52 48 42 36 32 36 43
58 54 51 48 41 39 31 26 26 20 17 16 16 19 19 23 27 31 34 39 41 41 43 48 50 52 53 54 56 58 61 59 57 58 56 56 53 47 44 40 34 33 41 52
56 50 48 45 40 35 31 24 24 19 16 15 15 17 23 27 29 29 31 37 40 43 43 45 48 50 52 52 52 54 56 56 57 57 55 54 50 46 44 39 36 38 45 57
53 47 45 42 39 33 30 25 22 17 15 17 16 16 23 25 29 34 36 38 40 43 46 49 51 50 49 48 49 49 50 52 53 52 52 51 52 48 45 42 40 41 49 52
50 45 42 40 36 31 28 25 22 17 14 15 16 17 23 27 29 35 36 39 42 44 45 45 45 45 45 44 47 47 47 48 50 47 48 50 52 48 43 41 44 46 53 51
48 43 39 38 35 30 27 22 22 18 14 15 15 18 21 28 32 35 36 38 39 40 42 43 45 44 42 44 46 45 45 46 46 44 47 51 47 44 41 43 47 53 57 56
45 41 37 36 33 31 25 23 20 20 16 16 16 18 21 25 31 34 36 37 39 41 43 43 44 43 42 42 42 42 43 44 45 46 48 50 47 45 41 46 52 60 64 64
43 38 35 34 32 30 24 25 18 21 18 17 18 19 20 23 28 34 37 37 36 38 40 42 41 40 41 42 40 40 42 44 46 46 49 50 46 45 44 49 54 65 73 71
40 36 33 32 31 29 26 24 22 19 22 21 20 20 19 21 25 28 30 34 35 37 39 39 39 39 41 41 42 44 46 47 49 52 50 50 45 42 47 51 56 65 76 80
37 34 32 31 29 29 27 24 24 21 25 23 20 20 19 20 21 25 29 31 33 33 36 37 39 41 42 43 45 47 48 51 54 55 49 50 49 46 48 49 59 62 75 85
34 33 32 31 30 28 28 29 26 24 25 25 22 21 21 21 22 23 27 29 32 33 37 35 37 41 42 43 46 49 52 55 55 53 49 50 52 50 50 51 55 61 64 73
33 32 32 32 30 29 29 32 28 26 23 26 26 25 23 22 21 21 23 25 26 30 34 35 35 39 42 45 49 53 53 55 52 48 47 50 50 54 55 56 59 61 61 63
31 31 33 34 31 29 31 35 33 28 27 29 27 30 22 20 20 22 23 23 27 29 31 32 33 35 36 43 47 48 49 47 47 46 45 48 48 51 55 56 58 58 61 62
30 31 32 30 24 29 35 34 34 27 29 33 33 28 22 21 20 22 22 23 25 23 23 25 27 29 34 37 40 42 40 41 44 46 45 45 45 47 51 56 59 60 61 62
29 29 26 21 23 28 35 31 30 23 30 35 30 26 23 19 20 18 18 18 19 19 20 23 26 28 29 32 33 33 34 37 41 43 42 42 42 43 43 50 56 59 61 63
24 22 22 24 26 28 28 23 21 25 33 34 29 24 21 20 18 17 16 17 17 18 20 21 22 22 23 26 30 33 36 38 40 42 42 41 41 43 45 49 54 59 62 63
21 21 21 21 20 21 22 25 30 29 23 24 23 22 19 17 16 16 15 16 17 16 16 16 16 17 19 21 22 24 27 30 32 36 38 39 40 43 46 49 52 55 58 61
19 19 22 25 26 27 28 29 28 27 25 25 23 20 20 20 17 16 16 15 15 17 18 20 19 18 18 18 20 21 24 26 29 33 36 38 40 43 45 48 51 54 57 60
22 22 24 24 24 24 25 24 24 24 25 24 22 20 17 19 20 20 20 18 16 14 12 11 9 9 10 11 12 15 18 21 24 27 31 33 37 40 43 45 48 51 55 58
18 19 22 24 26 25 26 25 25 24 23 21 20 20 19 20 20 17 14 10 6 4 2 2 5 7 9 12 14 18 21 24 28 31 35 38 41 44 47 50 52 54 56 57
26 28 28 28 28 28 29 29 29 28 25 23 22 22 21 18 15 12 10 7 5 1 2 4 6 8 12 15 18 21 24 28 32 36 40 44 47 50 52 54 56 58 59 61
27 30 30 30 30 29 29 28 29 27 25 23 20 17 15 14 12 8 7 5 5 5 5 6 7 9 12 17 21 26 30 34 39 44 47 49 51 53 54 54 55 56 56 57

GFSNW_250_spd_099.txt.gz
Wind_Speed
88 86 84 78 71 69 67 60 56 50 46 37 32 29 26 23 22 26 29 36 43 49 56 57 62 64 69 73 71 63 61 58 56 53 55 59 63 63 63 61 58 56 53 47
85 83 78 71 68 65 64 57 52 46 39 33 28 26 23 21 25 25 28 34 42 49 54 56 59 61 66 70 70 68 67 61 57 56 55 58 58 54 50 48 46 41 37 40
82 79 71 66 64 60 60 54 48 42 32 28 25 23 21 20 21 26 30 34 43 52 54 55 59 61 65 71 72 70 70 70 66 62 61 60 59 57 53 50 48 43 33 37
79 70 66 64 60 58 56 50 44 38 29 27 24 20 17 16 20 25 28 34 44 47 53 56 59 64 65 70 75 78 79 77 75 71 68 65 64 60 58 55 51 47 40 43
71 67 64 61 57 55 52 46 42 35 28 25 22 19 17 16 19 21 25 32 41 47 56 58 61 64 67 70 74 77 76 76 75 72 69 67 67 65 64 63 54 54 50 44
67 65 62 59 56 53 48 42 40 30 27 23 21 17 16 16 15 15 21 30 41 46 50 55 57 57 62 64 65 63 67 72 72 70 69 68 69 66 64 64 60 54 50 45
66 62 59 56 54 50 45 39 38 27 26 22 19 17 16 16 17 19 24 29 36 41 45 51 53 54 54 52 56 54 56 59 63 63 64 62 61 59 56 56 49 48 43 36
63 59 57 55 53 48 43 37 36 26 25 22 17 16 16 18 22 25 28 30 32 35 38 46 46 46 45 45 48 52 53 55 57 58 57 57 56 53 50 50 44 39 33 33
62 58 55 54 50 45 41 34 33 26 23 21 18 17 17 20 26 27 30 31 36 39 43 41 41 45 46 48 48 50 52 53 55 55 56 57 55 52 48 47 40 37 32 34
61 58 56 51 47 43 39 32 31 26 22 21 19 17 18 19 24 26 31 33 35 40 43 44 47 49 49 48 47 48 48 50 50 51 56 58 55 50 48 49 42 38 35 37
60 56 52 47 44 41 37 31 29 25 21 19 20 18 19 20 22 26 30 36 38 39 42 47 47 45 46 46 46 45 44 45 46 47 51 53 49 47 47 47 45 39 38 42
57 53 47 45 42 39 34 31 24 25 22 19 19 18 19 20 22 26 30 32 37 40 41 44 44 46 44 43 43 43 43 45 46 46 47 47 44 45 45 45 45 40 41 49
54 50 47 43 40 37 32 29 22 23 23 19 17 18 18 21 22 23 25 31 35 39 43 43 43 43 41 42 43 44 45 46 45 45 45 45 44 43 44 43 43 41 43 52
51 50 46 42 39 34 31 27 25 21 23 21 15 18 17 19 21 22 24 28 32 36 39 39 41 42 42 43 44 45 44 44 45 44 45 45 44 44 44 44 42 43 46 54
49 47 43 40 37 32 30 27 25 23 22 22 18 18 20 20 20 22 25 27 31 34 36 37 40 42 43 45 45 44 45 45 47 46 46 45 45 46 46 45 45 47 48 54
46 44 41 38 35 31 30 31 24 23 20 22 21 20 21 19 19 21 22 24 29 32 34 36 39 41 42 44 46 46 48 48 49 49 49 48 48 47 46 47 47 48 49 53
42 41 38 37 33 31 30 32 26 24 21 21 23 24 20 19 20 22 24 24 25 28 31 32 35 38 40 42 44 44 47 49 51 51 50 47 47 48 47 44 46 50 48 52
38 38 37 35 32 28 31 34 28 23 20 20 26 27 20 20 20 21 23 24 26 26 28 28 31 34 36 41 42 45 47 47 48 48 46 45 43 45 46 45 48 50 49 48
36 36 34 29 24 29 38 32 29 22 19 22 28 26 20 20 20 21 20 21 21 23 24 26 29 30 33 33 38 39 40 41 41 41 41 41 41 40 44 45 48 51 51 52
34 30 23 24 32 36 33 30 25 17 13 24 29 27 23 18 19 18 18 17 19 19 19 22 24 26 27 31 33 35 36 36 36 38 39 41 41 39 39 43 46 49 53 54
25 26 30 33 31 31 26 19 17 19 20 31 31 27 25 18 17 16 15 17 16 16 19 20 21 22 25 28 31 32 33 34 36 38 39 40 38 38 40 43 46 49 52 56
30 29 27 24 22 21 15 16 22 24 28 30 27 22 22 18 16 17 17 16 16 16 13 12 14 16 17 19 22 24 25 26 28 30 32 34 36 37 39 40 42 46 50 55
24 22 21 20 18 18 25 30 25 25 23 21 20 21 19 20 19 18 16 14 15 14 13 13 12 13 14 15 17 18 19 21 22 23 27 29 32 35 37 39 42 46 50 54
20 21 21 23 25 25 20 21 20 20 21 19 20 23 21 19 18 17 15 13 12 10 10 9 9 10 11 12 12 13 15 17 21 24 27 30 34 37 39 42 44 47 50 54
18 18 17 18 18 18 19 19 19 21 21 22 22 21 20 18 14 11 11 11 12 12 12 10 9 8 7 7 9 12 16 19 23 27 31 34 37 41 44 46 48 50 51 53
21 22 23 22 22 23 23 24 24 24 26 25 24 22 19 16 15 17 17 17 15 12 11 7 3 0 4 8 12 16 19 23 28 32 36 40 43 46 47 48 49 50 51 52
25 24 24 24 25 26 27 27 27 27 27 24 22 21 22 22 21 19 17 14 12 10 6 3 0 5 9 12 17 21 25 29 33 37 41 45 49 51 52 54 55 55 53 51

GFSNW_250_spd_102.txt.gz
Wind_Speed
103 100 94 92 86 83 83 79 71 67 62 58 49 40 35 29 24 21 22 26 30 25 31 38 43 46 51 54 62 65 60 57 52 49 48 48 49 48 47 47 48 48 48 52
99 94 90 84 81 79 78 71 66 62 60 52 45 35 29 24 18 17 20 25 26 27 33 38 43 48 53 57 63 63 61 58 52 50 46 43 42 44 44 44 46 48 50 50
95 89 81 80 76 74 73 65 63 59 56 48 40 31 24 19 17 17 19 23 25 31 35 39 46 48 52 56 62 65 61 59 56 53 50 46 42 43 47 50 52 54 54 52
86 79 76 76 71 71 68 60 58 56 51 44 38 28 21 15 15 15 17 19 24 29 32 41 49 50 54 57 63 67 66 64 62 56 52 49 47 46 47 50 51 52 47 45
77 74 73 71 67 66 62 57 54 52 46 40 35 26 18 12 12 13 15 21 26 29 35 42 46 51 55 58 62 70 74 70 68 63 59 57 54 52 51 51 53 52 50 47
73 72 71 70 67 62 59 53 50 50 42 37 33 25 17 11 11 14 17 21 24 25 35 42 49 54 56 59 62 66 71 75 72 69 65 63 59 56 56 55 52 51 48 48
71 70 70 67 65 59 55 50 47 45 38 34 31 24 15 14 15 19 22 24 24 29 37 43 48 53 54 56 61 63 66 63 67 66 65 62 62 61 60 58 57 56 54 54
69 70 69 67 60 57 52 50 46 42 36 32 28 22 17 16 18 21 23 26 26 28 34 41 49 53 53 52 55 58 59 58 62 65 65 65 64 63 63 62 62 61 58 57
70 71 69 63 57 55 50 48 43 40 33 30 26 22 18 18 20 20 25 29 27 28 31 37 45 47 48 48 50 52 52 52 58 62 64 67 67 65 66 64 63 60 56 51
72 70 65 60 56 55 47 44 40 37 32 29 23 21 18 18 20 20 23 29 30 30 30 34 41 44 44 45 43 48 49 51 55 59 59 61 62 61 61 60 57 54 49 45
72 67 64 59 56 50 45 42 39 34 31 27 21 20 18 18 20 20 22 27 31 33 34 35 40 44 45 46 45 46 47 50 54 56 56 56 56 57 59 56 52 50 47 43
68 65 62 57 52 48 42 40 36 34 31 25 20 19 19 18 19 21 22 26 32 35 36 39 41 43 43 47 50 50 48 49 51 52 54 52 52 53 53 52 51 48 46 45
66 63 58 54 50 46 40 39 34 33 30 24 19 17 18 19 19 20 22 27 30 35 40 40 42 47 49 50 49 48 48 48 48 49 49 49 49 49 48 49 49 48 48 47
63 60 56 52 48 44 40 36 35 32 30 23 18 17 18 18 19 20 23 25 30 35 39 42 43 45 45 46 46 46 46 46 46 45 47 47 46 46 46 47 47 48 49 48
61 58 55 52 47 43 40 34 34 32 27 23 19 16 16 18 19 20 21 24 26 32 36 38 41 42 45 45 43 44 45 46 46 46 46 46 44 45 47 47 48 47 48 49
58 55 52 49 45 41 38 36 31 30 26 23 20 16 14 17 19 20 21 23 24 26 30 35 38 41 42 43 44 45 47 47 48 47 46 46 46 46 48 48 48 46 47 49
52 51 48 45 43 39 36 35 28 29 25 22 21 15 14 16 18 21 22 23 25 28 30 33 35 37 39 40 43 43 45 46 46 47 46 46 46 46 46 47 47 48 48 50
46 45 43 42 38 34 34 34 29 27 24 23 23 15 14 18 18 20 23 22 24 27 28 29 33 34 37 37 38 40 42 43 45 46 46 47 46 46 46 46 47 48 50 51
42 41 38 35 31 33 36 32 27 24 23 26 22 18 16 17 19 21 21 22 23 24 24 28 31 32 33 30 34 36 38 39 40 42 43 43 43 43 46 48 49 49 50 52
37 34 30 28 33 36 32 27 24 23 23 28 24 19 17 19 19 20 20 19 21 23 25 26 24 26 26 28 31 32 33 34 36 37 38 40 43 42 44 47 48 50 51 52
28 27 27 34 33 31 26 21 21 22 25 29 26 21 19 20 19 19 19 19 19 20 23 21 22 23 23 24 27 29 30 31 32 33 34 37 39 41 42 44 45 46 48 52
32 33 35 35 29 21 15 16 20 26 28 31 26 20 21 19 19 19 20 16 15 16 15 16 17 17 18 20 21 22 23 26 28 30 32 34 36 37 39 41 44 46 48 51
32 32 28 22 18 17 22 29 33 30 25 20 14 16 17 21 20 19 17 15 16 15 13 11 11 12 13 14 16 18 20 23 25 28 30 33 36 39 41 43 45 47 50 53
25 24 23 21 23 28 32 29 21 18 16 17 18 17 20 21 20 19 18 15 12 12 13 13 12 13 14 16 18 19 21 23 25 26 28 31 34 36 39 41 44 46 48 50
24 24 25 29 30 27 19 17 21 22 20 19 18 21 21 20 18 17 16 15 14 14 13 14 14 15 15 14 14 15 17 19 21 23 25 29 32 36 39 41 44 46 48 49
25 25 25 23 23 23 23 23 23 23 23 24 23 22 21 21 22 21 20 18 17 14 14 13 11 9 9 9 9 12 15 19 22 26 29 32 36 40 43 46 48 48 47 48
28 28 29 28 25 25 26 26 25 26 25 25 26 26 27 26 25 24 21 19 16 12 11 9 6 3 5 9 13 17 20 24 28 31 35 39 42 45 48 50 49 49 51 52

GFSNW_250_spd_105.txt.gz
Wind_Speed
96 100 100 102 104 104 100 105 102 95 87 82 75 66 57 49 38 33 27 25 24 24 22 24 23 25 31 36 39 43 45 51 49 46 42 44 48 50 52 56 59 62 67 74
93 97 104 104 100 103 104 101 95 86 81 77 68 60 50 41 34 29 21 18 19 21 23 25 27 30 34 37 42 46 52 52 50 47 42 41 43 46 46 53 54 57 60 61
94 100 101 104 106 105 103 94 87 80 76 72 61 54 45 36 29 25 17 15 18 20 23 24 22 32 38 42 46 50 58 56 51 49 46 42 43 44 44 43 46 49 50 52
100 102 104 103 104 103 96 92 77 75 71 63 56 50 39 34 27 22 16 14 16 18 21 24 31 35 40 45 49 53 61 58 52 50 48 46 44 43 41 41 43 43 42 44
100 103 101 99 100 99 93 79 72 70 65 58 53 46 36 31 27 22 17 14 15 17 20 18 25 34 40 45 50 57 64 61 57 54 51 48 47 46 46 45 49 49 46 45
99 97 100 100 98 95 82 71 68 63 59 53 50 44 33 29 25 21 19 18 16 19 20 23 30 39 44 46 52 56 66 67 63 60 59 56 55 52 52 50 46 52 51 51
98 98 98 99 95 83 73 66 65 59 56 51 46 43 31 27 25 20 20 20 16 17 21 26 31 37 43 46 51 57 66 68 67 64 62 59 56 55 52 46 50 51 52 54
95 94 94 93 81 72 67 64 60 57 51 50 44 39 32 24 25 21 21 22 20 20 22 27 32 41 46 49 54 59 63 70 68 65 64 63 60 57 54 53 53 53 54 55
101 88 85 78 71 67 65 61 57 53 49 49 41 37 31 24 23 21 22 22 23 25 25 28 33 39 46 53 58 58 62 65 70 69 66 65 63 61 59 58 57 56 57 57
79 78 74 69 65 64 63 61 55 51 49 47 39 35 31 24 24 20 22 22 23 28 29 30 34 39 47 51 51 54 59 59 60 67 69 69 67 66 65 63 61 62 62 61
70 68 67 64 64 64 61 58 54 51 47 44 38 32 30 25 22 21 20 23 25 28 33 32 33 36 41 45 48 53 53 53 52 54 60 65 66 67 67 65 65 65 64 63
69 68 66 67 65 64 60 58 54 49 45 42 36 31 29 25 21 21 20 24 27 29 32 35 33 34 40 42 45 48 50 51 50 50 54 57 61 64 65 66 66 66 66 65
70 69 67 67 67 64 59 58 49 46 42 40 35 31 28 24 23 21 20 24 27 29 33 38 40 39 40 41 41 44 47 50 51 49 51 52 55 57 58 59 59 59 59 58
72 71 69 67 65 63 57 52 48 43 43 38 33 30 26 24 23 20 20 22 25 27 32 36 41 45 44 44 45 47 50 52 52 52 50 50 51 53 54 55 56 55 55 55
71 70 68 66 63 60 54 50 47 43 41 36 32 28 25 25 22 21 20 20 22 27 30 31 36 41 44 45 47 50 51 51 49 49 48 48 48 49 51 52 54 54 54 54
71 69 67 63 59 55 52 48 46 40 38 35 30 26 24 24 22 21 20 19 21 25 28 32 33 34 37 41 44 44 43 42 44 45 46 48 48 49 51 51 51 52 54 55
68 65 61 59 55 52 49 45 41 39 36 32 28 26 23 22 22 22 21 20 21 24 28 30 32 33 33 33 36 40 41 42 43 44 44 45 47 48 49 49 50 51 51 52
64 61 59 56 52 47 44 44 37 36 34 31 30 25 22 21 22 21 21 20 19 21 24 26 29 30 31 33 35 36 37 39 41 42 44 44 45 46 46 47 48 49 50 52
58 56 53 49 43 42 43 39 34 33 32 32 29 25 22 21 21 21 20 19 19 19 22 25 27 27 27 25 29 31 33 35 37 39 40 40 42 43 45 46 46 48 50 52
50 48 43 39 39 41 39 35 30 30 31 33 30 25 20 20 21 20 19 19 17 18 20 21 22 22 23 25 27 29 30 31 33 35 37 38 41 42 43 44 46 48 50 52
41 38 35 36 39 39 33 28 28 31 34 33 28 24 22 21 21 21 19 18 17 18 19 15 17 19 18 18 23 26 26 28 30 31 33 36 39 41 43 46 47 49 52 54
38 37 38 39 36 30 25 27 30 33 35 35 27 22 22 20 20 21 18 17 15 14 13 15 16 14 15 16 18 21 24 26 28 29 31 33 35 39 41 44 46 48 50 53
36 36 36 30 24 22 27 32 38 39 36 28 15 20 22 22 22 21 18 14 14 14 14 13 14 15 15 16 18 19 21 23 24 26 28 31 33 36 39 42 44 47 50 52
30 28 25 24 25 30 37 42 35 32 23 17 19 21 20 21 23 19 18 18 15 14 15 15 15 15 15 15 15 15 16 18 20 22 25 28 31 34 38 41 44 47 50 52
28 27 30 35 40 42 39 32 25 22 20 21 21 19 20 22 23 21 18 17 17 16 14 13 12 10 9 10 12 14 16 17 19 21 24 27 30 34 38 41 44 47 49 52
32 36 39 39 36 31 26 25 24 25 23 21 22 23 23 23 22 21 22 20 16 12 10 10 9 8 9 10 10 12 14 16 20 23 26 30 33 37 40 43 46 49 51 52
34 35 33 30 25 25 24 27 26 22 23 23 24 25 26 26 25 23 19 16 15 13 12 11 11 9 8 8 10 13 17 21 25 29 32 35 38 41 44 46 48 50 50 51

GFSNW_250_spd_108.txt.gz
Wind_Speed
93 92 91 89 90 90 94 95 97 105 107 106 105 95 87 77 73 62 54 45 38 33 24 17 13 18 18 24 27 27 25 30 32 36 37 38 33 34 38 47 47 47 45 51
86 86 86 87 91 89 93 101 102 102 104 106 101 91 82 71 66 58 48 41 35 28 19 15 12 17 17 22 22 25 27 30 36 34 35 33 32 36 38 36 45 53 52 60
81 84 84 87 89 91 93 98 101 98 103 99 94 89 74 67 59 53 43 37 30 24 15 12 13 18 22 29 33 31 34 35 37 41 40 36 36 41 48 52 53 57 62 67
79 81 81 86 87 91 94 95 96 100 99 93 88 85 66 60 51 46 40 30 26 21 12 9 15 20 27 31 34 38 40 44 48 45 39 37 40 45 48 51 54 53 52 52
81 83 83 85 89 91 94 92 95 100 96 95 86 73 65 53 48 39 37 31 22 19 14 9 14 23 32 35 38 43 46 50 48 40 45 46 48 48 48 47 49 53 56 57
83 81 86 89 88 92 94 94 97 99 95 84 79 67 59 49 44 38 33 30 20 19 15 11 18 27 34 38 44 45 51 52 50 49 43 45 43 45 45 46 53 53 50 49
84 86 86 86 90 96 98 97 93 89 85 83 70 63 51 46 41 36 29 27 20 18 15 14 20 28 36 41 45 50 56 59 57 54 54 54 51 50 51 53 53 51 49 49
84 86 89 88 88 97 96 91 87 86 81 69 62 56 47 44 39 35 28 24 19 19 18 18 20 31 39 44 48 51 55 61 59 58 55 53 52 50 51 52 51 51 50 49
87 90 92 91 95 89 88 86 85 75 65 61 58 49 45 42 37 33 29 24 20 19 21 22 24 31 39 46 49 52 55 59 62 61 58 57 56 54 53 52 52 51 50 49
94 93 91 95 90 87 81 86 77 66 62 59 55 46 44 41 36 30 31 25 21 20 26 27 28 31 40 49 52 54 57 61 63 64 63 60 58 56 57 53 53 54 52 50
97 94 90 88 85 88 87 74 69 62 59 58 49 47 45 40 35 29 27 28 23 23 28 30 31 33 38 45 54 58 60 63 65 67 67 63 62 60 59 58 58 58 56 54
89 83 83 83 82 72 67 65 61 58 61 52 48 48 44 39 34 30 26 27 25 24 29 33 33 36 39 41 49 52 57 59 60 62 66 68 67 66 64 64 63 62 61 61
80 80 75 72 67 63 61 61 59 61 56 48 47 48 44 39 34 29 27 26 26 27 29 33 35 39 39 39 41 43 49 53 57 56 57 61 68 71 70 68 68 69 69 69
68 67 66 65 64 62 62 62 60 60 56 50 48 46 43 39 34 29 26 26 26 28 29 31 36 38 39 40 40 42 43 47 51 52 51 52 57 63 68 72 74 75 75 75
68 67 66 65 64 63 62 63 61 59 54 51 47 44 41 37 33 29 26 24 26 28 29 30 32 34 38 40 40 42 43 45 48 50 50 50 51 55 59 62 64 66 67 68
68 67 66 66 65 64 64 64 60 56 54 49 45 42 39 35 31 27 26 22 24 26 28 27 28 30 33 37 38 37 41 48 50 52 53 51 51 51 53 55 56 58 59 60
68 67 67 66 67 64 62 61 59 54 48 47 43 40 36 33 28 25 24 21 21 23 24 24 25 27 31 31 32 33 34 38 40 45 46 43 44 47 49 51 52 53 54 55
68 68 67 65 64 62 62 60 54 48 46 45 42 36 33 30 25 24 21 19 19 20 21 22 22 23 26 28 30 30 31 31 33 34 36 38 40 43 46 48 50 51 52 53
67 66 64 62 60 61 59 54 48 44 43 42 39 33 31 27 24 23 19 18 18 18 17 18 19 19 20 19 23 25 27 30 32 33 34 37 39 41 42 44 46 48 49 52
64 63 61 60 58 55 52 48 41 39 40 40 36 31 28 25 24 22 19 18 17 16 16 14 13 15 16 21 23 22 23 25 27 29 31 33 35 37 39 41 43 45 48 50
59 58 58 56 53 50 46 39 36 36 39 38 31 28 26 23 22 20 18 17 16 14 14 12 15 18 16 15 17 20 23 24 25 26 28 31 33 36 38 40 43 45 48 50
55 53 49 47 44 40 34 32 34 36 38 37 30 25 24 22 22 20 18 16 15 14 14 15 14 11 14 16 18 19 20 21 22 24 26 28 31 33 37 39 42 44 47 50
46 44 42 39 32 25 28 34 36 42 39 26 19 22 23 23 20 19 15 12 12 15 14 11 10 10 11 12 13 14 15 17 18 20 22 25 28 31 34 38 41 44 47 50
39 37 34 29 25 30 35 42 44 33 26 17 20 24 24 22 20 18 14 16 15 12 11 10 9 8 7 7 8 10 12 14 16 18 20 23 26 29 32 35 38 42 45 48
31 30 27 30 37 41 43 46 32 24 18 23 24 24 21 21 21 20 20 17 14 13 11 9 7 6 7 9 8 8 10 12 15 17 20 23 27 30 34 37 40 44 47 50
29 30 35 41 43 42 36 30 25 23 24 25 25 21 19 22 21 22 19 17 15 11 11 10 9 7 7 6 6 8 11 14 16 20 23 27 31 34 38 42 45 48 51 54
35 39 42 39 37 33 28 24 24 23 25 23 20 20 22 21 23 24 21 19 16 15 13 11 9 7 6 7 8 10 13 17 21 24 28 32 34 35 38 41 42 48 51 52

GFSNW_250_spd_111.txt.gz
Wind_Speed
71 74 77 81 85 84 82 79 78 81 87 95 104 109 110 106 94 89 77 66 57 51 42 33 24 18 14 13 11 19 19 19 20 23 25 29 31 31 33 36 36 26 22 35
72 70 72 76 82 76 78 75 79 87 90 97 100 99 94 90 91 82 69 61 51 47 34 27 19 15 13 12 14 14 12 17 25 26 29 29 27 33 42 40 41 32 31 46
73 71 71 74 71 70 75 75 79 85 91 95 92 88 88 85 84 71 62 54 49 43 29 21 18 12 10 15 20 21 21 25 29 35 32 32 34 36 41 45 45 40 45 55
69 72 68 74 70 73 72 71 77 83 85 84 85 84 87 90 85 64 55 49 46 38 26 21 15 9 15 22 27 27 29 34 38 37 40 39 38 42 46 48 48 50 54 50
69 67 68 69 68 71 74 76 81 80 81 84 82 84 87 84 69 53 51 48 40 31 23 18 13 11 20 26 32 32 38 42 44 42 43 45 49 51 46 49 56 53 49 48
67 65 64 67 69 74 76 77 79 79 83 84 86 88 85 76 61 51 48 45 37 27 22 13 14 16 25 29 34 38 44 44 44 43 45 47 44 42 43 47 47 46 48 48
63 66 68 69 71 75 76 77 80 80 78 85 85 87 88 67 53 48 45 40 34 25 21 15 20 21 29 34 35 41 43 44 47 50 51 50 44 44 47 49 50 50 51 49
71 72 73 72 72 74 74 76 78 79 82 83 87 86 70 59 49 47 44 38 32 25 19 19 22 24 31 36 39 44 48 51 51 53 53 50 47 48 48 51 53 54 55 54
73 72 74 74 74 76 75 78 79 78 82 83 84 80 71 55 47 42 40 36 30 24 22 20 24 28 35 39 44 47 48 53 55 54 54 53 49 49 49 49 51 53 53 51
76 74 76 77 77 80 79 80 80 81 85 85 83 73 60 50 45 38 36 35 30 25 23 21 24 30 35 43 47 50 53 57 56 55 52 51 51 51 49 50 51 52 53 54
76 76 77 77 78 78 82 82 85 85 91 78 69 58 52 48 40 37 34 34 31 26 23 25 25 32 37 43 47 52 55 59 61 61 58 56 53 54 53 54 54 53 53 53
82 80 83 79 83 82 78 87 84 80 76 62 58 54 50 45 40 36 33 32 31 27 24 26 27 29 35 42 50 53 58 60 63 65 64 60 58 57 56 57 57 55 55 55
84 83 83 87 88 86 87 85 80 72 68 60 58 53 49 44 42 38 34 31 30 28 24 26 30 29 33 40 45 51 55 57 60 61 63 64 65 63 61 60 60 59 58 59
90 90 88 84 90 85 82 78 72 67 60 55 54 51 46 46 43 39 35 31 28 27 26 25 29 30 32 35 40 46 51 55 57 57 59 61 63 65 67 67 64 63 63 63
91 89 89 82 78 80 71 65 58 56 55 53 52 48 47 45 44 40 35 30 26 25 25 27 26 30 31 33 34 38 43 47 52 55 57 59 60 61 63 67 69 71 71 71
82 79 74 71 66 65 64 59 56 54 54 54 49 47 46 45 43 39 34 28 24 22 23 25 26 26 30 31 33 33 37 42 46 49 52 54 56 58 60 63 67 72 75 77
76 71 66 62 61 60 59 57 55 55 54 52 51 47 44 43 41 36 31 25 22 21 21 22 23 23 28 30 30 31 31 33 37 42 49 50 54 57 58 61 64 66 67 68
67 64 62 60 60 58 57 55 55 55 53 53 50 46 43 42 37 31 26 24 20 19 19 19 19 20 24 26 24 28 29 29 30 30 33 39 45 47 50 52 55 55 59 60
66 65 62 60 61 61 57 55 53 49 51 53 51 43 41 38 31 27 24 22 18 18 17 16 16 17 19 21 23 25 26 27 29 31 33 34 34 35 37 39 43 49 53 56
65 62 62 62 61 56 53 49 48 48 53 54 46 41 38 33 27 24 22 20 17 16 16 14 16 16 17 19 19 20 23 25 26 25 27 27 29 31 33 36 40 42 46 49
61 60 59 59 56 51 47 46 44 49 52 51 45 39 32 29 24 22 20 18 16 15 16 15 15 14 15 14 15 17 19 20 22 24 26 28 28 31 33 35 38 40 43 46
58 58 57 55 51 47 42 42 47 51 53 50 39 31 26 23 20 21 19 16 15 15 14 11 11 13 13 13 14 13 13 15 16 18 20 22 26 28 30 33 36 39 42 45
57 55 53 51 46 39 40 45 51 57 50 36 27 25 22 22 21 21 18 15 14 14 12 9 10 10 10 10 11 10 11 13 15 16 18 19 21 23 26 29 32 36 39 43
53 51 46 42 39 42 48 48 54 49 37 25 22 24 23 23 22 21 16 16 14 12 11 10 8 7 7 8 9 9 8 7 8 10 12 14 16 19 22 26 30 33 38 42
44 41 39 42 39 43 40 50 48 36 22 19 23 25 23 23 21 18 17 15 14 12 10 9 8 7 7 5 3 3 3 5 7 9 12 16 19 23 26 30 34 38 43 46
39 39 39 40 40 42 44 45 35 22 18 23 26 23 20 20 19 20 19 16 15 12 11 11 10 9 6 4 2 1 3 6 9 12 16 19 23 28 31 34 37 41 45 47
36 36 37 39 42 42 40 33 22 18 24 26 24 20 19 23 23 20 17 18 18 15 12 11 11 9 6 3 1 3 6 9 12 15 17 20 24 29 33 37 41 44 47 49

GFSNW_250_spd_114.txt.gz
Wind_Speed
76 75 80 78 78 74 74 66 68 70 76 79 81 83 87 87 87 88 93 96 102 80 71 63 53 41 36 29 25 17 14 15 17 20 22 27 28 28 32 33 33 29 32 29
74 77 74 73 72 70 69 72 70 73 75 77 79 79 79 80 84 88 92 90 76 73 60 54 43 33 31 25 17 10 6 13 20 25 28 30 34 33 36 41 45 37 40 35
73 75 73 69 61 65 64 69 72 75 79 74 72 71 71 75 79 79 82 70 75 66 54 45 38 27 26 22 13 12 7 17 23 23 26 32 37 41 47 49 44 46 48 38
72 74 68 63 65 66 66 66 69 70 69 69 68 69 70 73 78 76 74 68 70 57 48 39 37 24 20 18 17 18 17 24 29 32 36 41 45 50 54 46 50 46 49 49
65 62 65 60 61 66 67 69 69 69 66 66 70 67 70 73 73 75 72 76 59 50 42 34 33 21 17 20 23 23 27 33 34 40 47 50 49 54 50 47 46 51 49 52
60 61 63 63 62 64 68 64 65 67 62 62 64 67 71 70 73 76 72 67 51 45 39 31 25 21 19 23 28 28 31 35 39 44 50 53 56 51 58 53 50 50 48 47
58 60 59 60 62 70 64 62 66 60 60 62 63 66 67 70 75 77 78 61 47 40 38 30 22 21 21 25 29 31 38 42 46 48 52 54 58 60 56 54 53 50 46 47
64 65 62 60 63 61 61 61 56 58 63 63 65 67 69 73 71 77 68 49 43 37 34 28 23 21 23 27 33 38 40 45 45 50 54 55 55 52 54 49 45 45 43 43
65 61 60 62 60 56 54 55 58 62 65 63 66 67 71 72 74 76 56 43 39 36 30 26 22 22 23 30 37 41 41 47 48 47 50 54 51 51 52 52 50 49 48 48
61 59 59 59 57 58 59 60 63 64 66 65 68 70 73 75 75 61 48 39 39 34 28 24 21 23 23 32 37 42 45 49 51 51 50 50 52 49 50 52 53 51 53 53
57 58 59 61 60 63 63 62 64 65 67 68 70 73 74 79 71 53 43 38 39 33 27 23 21 22 23 32 39 47 49 50 52 54 53 51 49 49 50 51 53 54 55 57
61 62 62 61 62 65 65 65 64 66 68 70 71 74 78 76 70 47 39 38 36 33 27 22 23 20 24 33 41 47 51 54 57 56 56 55 53 54 53 53 54 54 56 57
63 64 63 61 64 63 63 66 65 66 69 72 75 75 78 70 51 42 38 36 34 31 29 24 22 24 24 32 39 46 51 55 57 58 58 57 58 59 61 60 59 59 58 58
66 64 63 64 63 65 66 65 68 71 71 73 76 75 65 54 45 41 37 35 32 29 29 26 22 25 25 29 36 43 50 53 58 60 61 61 59 57 57 61 63 63 62 61
69 66 67 66 68 68 70 69 72 70 72 71 70 62 56 51 43 39 37 35 31 29 27 26 24 25 27 29 31 41 46 52 57 61 61 61 61 64 64 64 63 63 64 66
75 68 67 65 66 68 68 70 67 70 72 69 58 52 52 45 43 39 38 35 31 29 26 25 25 23 24 28 29 31 40 45 48 54 58 62 63 63 63 63 64 66 66 67
76 76 73 74 73 70 72 73 66 63 63 58 50 48 44 44 40 38 37 35 30 25 24 24 24 23 23 26 25 28 31 37 41 45 51 55 58 61 65 65 63 64 65 67
76 74 73 74 72 72 68 66 62 57 53 50 47 44 43 40 38 38 36 33 27 22 22 22 22 22 22 23 25 26 28 32 37 39 41 46 49 52 57 57 60 62 63 67
74 72 69 67 64 63 58 54 52 51 51 50 46 44 42 39 37 37 35 30 24 20 20 21 20 20 19 20 21 23 25 28 32 35 37 38 40 40 41 42 45 51 57 59
68 66 66 63 57 54 52 49 50 52 54 50 46 42 38 37 38 36 31 27 22 19 18 18 17 17 18 18 20 21 23 25 26 27 28 29 32 33 36 38 40 41 42 46
68 65 63 59 54 51 48 47 48 53 54 50 44 36 37 37 37 33 27 23 19 20 17 15 16 17 16 15 18 18 19 20 21 23 24 25 27 29 30 32 34 36 37 40
63 61 57 54 50 45 42 45 51 56 56 44 35 36 37 37 35 29 23 20 19 18 13 13 15 15 15 14 14 13 14 16 17 18 19 19 21 23 25 27 29 32 34 37
59 56 52 48 44 44 47 49 55 57 43 35 39 38 39 35 30 25 21 19 18 15 14 13 12 13 13 12 11 10 10 10 10 10 11 14 16 18 20 23 26 29 32 35
56 54 51 46 45 42 44 48 53 50 41 35 36 39 36 30 26 24 20 18 16 15 13 11 11 10 10 10 8 6 6 7 7 7 7 8 10 13 16 20 24 27 30 34
45 43 39 37 39 43 47 49 51 50 39 34 33 34 27 24 22 21 18 18 15 14 12 12 12 11 9 8 8 8 6 4 2 3 5 7 11 15 18 21 26 29 32 36
44 43 46 45 44 47 47 50 50 43 39 31 27 29 23 20 19 20 22 17 16 15 14 13 13 12 11 10 8 7 5 3 2 5 9 12 14 18 21 25 28 31 35 40
46 46 43 46 45 47 47 49 46 38 31 27 27 27 19 21 22 23 19 19 19 17 17 16 13 12 12 10 8 6 4 5 8 10 11 14 17 19 23 27 32 35 40 44

GFSNW_250_spd_117.txt.gz
Wind_Speed
58 60 60 63 62 59 63 61 58 61 66 60 62 57 64 68 68 68 70 73 77 81 79 79 81 86 75 59 46 35 25 17 17 16 13 15 17 19 20 23 28 30 31 35
62 55 58 60 57 52 51 56 59 61 65 62 61 63 64 68 65 69 71 72 76 75 75 78 79 69 56 46 36 24 18 11 12 16 16 20 21 23 29 30 31 34 36 39
58 62 66 65 62 58 59 64 64 64 62 63 61 63 63 66 68 68 71 71 69 67 74 77 72 59 45 39 28 20 19 14 12 16 20 24 28 33 34 35 37 41 43 44
54 56 67 68 69 62 57 53 52 57 59 59 61 61 62 58 62 65 68 64 61 66 72 72 60 50 38 35 25 20 19 14 15 21 26 27 31 34 32 33 42 41 46 48
48 55 63 65 66 59 56 54 52 56 54 57 56 57 57 57 60 62 60 57 62 66 69 72 53 43 33 29 24 20 20 19 23 29 30 35 37 37 35 37 44 48 45 45
51 53 49 48 46 45 51 57 56 54 58 58 56 54 54 57 59 56 56 59 62 66 71 64 47 39 30 26 23 23 25 24 31 35 39 44 45 42 43 42 43 44 46 44
53 49 48 48 49 47 48 48 56 56 57 54 54 54 55 55 55 55 56 58 63 66 75 58 43 36 29 25 22 25 25 30 37 39 48 53 52 51 50 47 44 47 49 48
52 51 49 46 41 41 47 47 49 54 56 53 52 53 55 54 53 57 59 62 67 67 69 50 42 31 31 23 24 27 29 34 39 44 53 55 57 57 54 52 49 48 51 48
54 54 52 53 51 51 52 50 52 49 50 51 49 50 50 53 56 58 60 65 66 74 55 44 38 31 29 24 25 29 31 37 42 46 55 58 60 59 58 54 54 51 49 46
59 51 49 47 50 53 51 49 48 49 49 47 48 48 53 54 58 59 63 66 69 63 47 42 36 30 27 24 26 32 35 38 40 51 56 57 57 57 62 59 55 52 49 46
58 52 49 50 50 49 48 47 47 48 49 46 48 54 55 58 60 61 64 68 70 51 44 39 35 30 26 25 28 33 39 41 45 47 55 59 57 60 56 58 59 56 53 52
57 53 51 50 49 49 50 47 46 49 49 50 54 56 58 59 60 61 66 68 52 45 43 38 34 31 26 26 28 33 39 41 48 47 54 57 61 54 59 59 59 59 54 51
55 56 56 55 53 51 49 47 51 52 54 54 56 58 60 59 61 65 64 60 48 43 42 38 32 30 26 27 29 32 40 43 46 51 52 55 58 59 59 58 59 60 61 61
54 51 50 50 51 49 50 50 51 53 54 53 56 56 58 60 59 61 59 50 43 42 41 37 32 29 28 27 29 33 38 46 49 51 52 56 57 58 58 62 63 63 62 62
54 52 54 53 51 51 52 52 53 52 54 54 57 58 58 57 62 56 49 42 41 40 39 36 31 28 27 26 29 32 37 43 50 55 54 57 58 61 61 62 62 64 66 66
60 57 59 57 55 54 53 55 55 55 56 57 59 58 58 60 56 46 41 39 39 39 38 34 30 28 25 26 29 31 36 40 45 51 55 58 59 58 60 61 63 65 66 65
59 58 57 57 56 54 55 58 57 54 55 57 55 59 61 55 45 41 40 41 40 38 36 33 28 26 25 25 27 31 34 39 41 45 50 55 56 56 60 62 62 62 61 62
62 60 58 56 54 53 55 56 55 54 55 59 61 58 52 42 41 41 42 40 40 38 35 30 26 22 22 24 26 28 30 34 38 41 42 45 50 51 53 56 55 56 58 59
67 64 61 60 56 56 59 57 59 60 57 57 53 47 41 39 39 40 40 41 39 36 31 28 24 20 21 22 23 25 27 30 32 35 37 39 42 43 45 47 47 49 52 54
68 66 64 62 60 59 58 59 58 59 52 49 43 40 38 37 39 40 40 39 37 32 27 25 22 19 21 19 19 20 21 23 26 28 30 32 35 36 38 38 39 42 46 48
68 66 63 61 58 55 52 49 53 53 49 46 41 35 36 39 39 39 38 36 32 28 24 21 20 19 17 17 17 18 19 20 21 22 24 27 28 30 32 33 34 35 37 40
65 65 62 59 57 54 51 51 52 50 50 42 34 35 39 38 39 36 37 34 28 24 20 18 19 17 16 15 15 15 15 15 16 18 18 19 20 22 23 25 27 29 31 33
61 59 56 51 50 50 50 57 58 55 40 31 38 39 37 37 34 34 34 29 25 21 18 17 17 16 14 13 11 12 12 12 13 14 15 16 16 18 20 21 22 24 26 28
57 55 54 50 46 47 55 61 56 47 37 37 38 36 35 32 32 33 30 24 20 19 16 15 14 13 12 11 10 10 11 11 12 12 13 13 13 14 14 15 17 20 24 27
51 51 50 50 53 54 57 56 53 41 38 36 36 32 28 31 32 30 26 20 19 18 16 15 13 12 11 12 12 11 11 12 12 11 9 8 8 9 12 15 19 23 27 29
47 45 46 47 49 49 52 53 47 43 38 34 28 29 32 32 32 27 23 18 20 18 17 16 14 13 13 13 13 12 12 10 8 6 6 7 10 14 17 19 20 23 27 30
45 45 47 49 48 49 50 48 40 37 34 29 29 32 32 30 28 24 21 22 23 18 18 17 17 16 16 15 14 11 9 7 6 6 9 12 14 16 18 21 24 28 32 36

GFSNW_250_spd_120.txt.gz
Wind_Speed
36 34 38 48 52 54 55 52 58 64 63 69 67 70 71 59 56 52 54 59 55 59 65 70 70 72 75 73 74 66 49 49 41 33 22 17 15 13 15 17 16 18 20 24
42 46 45 48 44 42 48 50 54 57 57 55 55 52 49 48 46 50 50 53 58 62 64 61 65 68 67 69 65 50 46 42 33 26 17 16 14 17 18 17 19 21 25 32
49 53 50 53 54 46 49 50 51 54 55 55 52 43 41 42 49 49 51 51 58 63 61 60 65 62 61 61 52 41 42 33 25 17 14 16 19 20 19 20 23 28 29 31
56 57 50 47 52 48 44 42 40 40 38 38 36 40 41 45 47 49 50 53 54 58 59 62 60 61 59 57 47 37 37 27 20 11 14 21 23 23 22 25 27 28 30 35
65 64 59 53 48 49 43 41 39 35 32 34 37 45 43 40 43 44 45 49 53 52 57 56 60 58 58 52 42 37 31 23 15 15 20 27 29 24 25 30 29 31 34 43
64 65 58 53 49 45 48 46 45 42 39 40 35 35 38 40 41 43 49 51 50 51 56 58 59 58 56 43 37 33 26 21 18 24 27 31 33 26 28 33 32 34 37 43
66 62 54 44 45 40 32 35 41 46 44 42 39 39 39 38 42 43 49 50 50 53 53 58 56 65 53 38 33 29 22 21 25 35 36 41 39 32 33 38 36 42 39 43
69 63 48 50 38 33 37 39 35 34 38 40 41 41 43 43 43 47 46 46 48 49 54 53 59 62 46 39 31 29 21 23 28 39 43 43 46 41 42 42 42 46 44 46
70 63 55 57 46 40 33 32 32 33 36 36 36 40 40 42 41 44 44 46 49 51 55 57 61 52 42 37 32 28 24 24 32 43 51 48 49 45 49 46 43 45 49 50
70 59 64 56 46 40 41 37 36 38 37 34 39 35 37 38 40 41 44 48 50 54 59 61 58 45 39 35 32 29 28 25 33 45 54 54 51 50 52 52 47 46 47 51
63 62 58 54 49 44 38 38 42 39 34 36 37 39 39 38 39 42 47 50 55 58 60 61 52 42 38 34 33 30 30 30 31 43 53 63 57 56 55 54 53 49 47 49
61 61 67 57 50 46 44 44 43 41 40 38 38 39 39 40 42 45 49 54 57 59 59 57 46 40 37 34 32 31 29 32 34 40 49 59 66 62 60 59 56 57 55 51
58 62 60 56 52 47 46 45 45 43 42 40 41 40 41 43 44 47 51 54 55 59 62 50 44 41 37 35 32 32 31 32 36 37 42 51 59 69 65 64 61 61 61 61
60 56 54 54 52 47 48 47 43 41 40 40 43 42 42 45 46 50 53 53 57 58 55 45 43 40 37 35 33 32 32 32 36 40 41 44 54 62 68 70 67 66 63 64
58 55 54 48 53 49 46 44 43 42 42 42 43 44 45 46 48 50 52 54 56 55 45 44 44 40 37 34 32 32 32 33 36 40 42 44 46 53 63 67 66 67 68 67
56 57 52 50 51 47 45 48 45 45 46 45 45 44 45 48 50 51 52 56 55 45 44 44 41 39 36 33 31 30 31 33 35 38 41 43 45 48 52 57 62 64 62 63
57 51 51 49 43 45 50 50 48 46 45 45 46 46 49 51 51 50 54 52 44 41 44 42 40 37 34 29 27 28 30 33 35 36 38 42 44 46 48 51 53 57 58 59
55 50 48 47 44 42 45 45 46 45 46 46 45 48 49 47 47 50 51 43 41 41 43 41 39 36 30 26 25 26 28 29 32 35 36 38 42 46 48 48 49 48 48 51
56 53 54 48 43 44 47 50 48 47 47 47 45 46 46 46 48 48 44 40 39 42 42 42 39 33 26 23 23 23 24 25 28 32 33 35 38 41 43 44 43 43 45 47
58 54 52 49 46 48 50 50 49 47 48 45 45 46 47 46 42 41 38 36 39 42 42 40 36 28 24 21 19 19 20 23 25 27 29 31 32 34 35 36 37 39 40 41
57 55 54 51 49 51 52 49 48 46 44 44 45 42 37 37 39 37 34 35 39 42 41 36 30 25 21 18 17 17 19 20 22 23 24 25 28 30 31 33 34 35 36 38
60 59 57 54 52 52 51 49 48 45 45 47 39 36 37 37 35 33 34 36 40 41 38 31 26 23 17 17 16 16 15 16 17 18 20 21 22 24 25 26 27 28 29 30
64 61 57 55 53 52 51 51 51 47 45 37 36 40 36 33 32 33 34 38 39 39 33 27 22 18 17 16 13 14 13 14 14 15 16 17 18 18 18 19 20 21 21 22
66 62 59 56 55 54 55 52 45 43 39 38 38 34 32 33 32 33 36 38 37 35 29 24 19 17 16 14 12 13 12 13 13 12 13 13 13 14 14 14 14 15 16 19
56 59 60 58 58 56 53 51 47 43 39 35 34 33 34 31 33 36 36 36 34 31 25 21 18 17 14 12 12 11 12 12 11 11 11 10 9 8 8 9 11 14 19 22
52 53 56 59 59 55 53 49 44 36 32 33 31 33 31 34 37 35 34 32 32 27 23 20 19 15 14 13 11 11 11 11 10 9 8 7 6 6 8 12 16 19 21 23
50 52 55 56 54 53 48 41 38 33 34 34 31 32 36 37 35 32 33 31 29 22 21 21 18 16 14 14 12 12 12 12 11 8 6 5 6 9 12 15 18 21 23 26

GFSNW_250_spd_123.txt.gz
Wind_Speed
31 27 25 21 25 28 28 29 37 41 49 60 66 68 70 70 67 66 70 69 70 68 70 60 51 54 60 59 61 57 63 65 65 55 42 34 30 23 19 17 16 14 18 24
26 24 26 27 30 28 26 26 31 38 42 49 55 56 57 59 58 58 62 63 61 49 48 46 48 52 54 59 59 58 60 61 56 43 34 30 25 19 18 15 18 18 18 19
34 33 36 35 34 38 38 35 34 35 36 37 44 46 49 50 44 43 41 37 37 39 42 44 48 51 54 58 58 60 58 54 46 34 28 27 23 16 15 16 19 18 20 21
47 37 39 37 40 30 32 35 30 30 31 35 38 40 39 38 36 36 37 33 31 39 40 43 46 51 56 57 59 57 55 44 37 29 26 25 20 16 16 19 19 18 21 24
56 52 49 45 39 40 38 37 36 28 22 26 31 36 40 39 33 26 25 30 37 35 36 42 49 53 56 56 54 52 49 35 30 25 25 23 23 20 18 21 20 22 26 28
53 52 55 52 49 40 46 40 39 31 23 21 23 24 27 28 22 26 29 30 31 34 40 45 48 51 51 49 51 50 40 31 26 25 26 28 28 24 24 24 24 25 27 37
56 53 51 50 50 45 41 33 35 34 27 26 25 25 27 28 27 26 32 33 32 37 40 46 50 53 48 49 48 47 33 27 23 27 28 32 35 26 30 29 26 28 29 35
61 56 53 46 49 50 43 37 35 32 31 27 29 28 26 26 24 27 30 28 32 38 42 47 50 50 48 50 49 43 31 25 23 28 31 34 38 35 33 36 33 32 33 35
67 60 55 57 48 48 45 44 39 31 29 33 35 29 28 29 28 29 30 32 35 39 43 46 48 49 53 51 48 38 29 25 24 28 34 36 43 42 38 39 38 37 37 38
69 66 59 57 54 50 48 44 38 29 28 29 33 33 34 32 31 32 33 32 37 40 44 46 50 51 53 53 43 35 30 26 24 28 35 39 46 47 43 43 40 41 41 43
67 72 61 62 56 50 50 36 28 30 32 30 32 32 32 31 31 33 34 36 39 42 45 49 50 53 55 53 41 33 31 27 25 28 33 43 45 54 53 46 46 46 42 45
74 68 65 57 51 47 40 38 29 34 32 32 33 33 31 31 32 34 36 38 42 45 47 50 52 56 56 48 39 33 30 29 28 27 32 40 48 52 57 59 54 50 48 48
72 66 63 59 61 55 52 41 32 35 37 35 34 34 35 36 35 35 36 41 45 47 49 51 54 57 55 43 38 35 29 30 30 28 29 39 46 54 59 61 60 58 54 52
67 71 63 62 57 54 45 43 34 37 37 38 38 36 35 35 36 36 37 42 46 48 51 53 57 58 48 42 36 34 32 29 29 29 29 33 43 51 57 63 66 65 63 60
64 61 58 56 50 54 50 47 40 40 38 39 37 36 38 36 35 37 40 44 48 50 51 56 57 51 46 41 37 36 35 30 29 29 30 32 38 47 55 59 63 67 68 67
63 63 57 49 47 50 47 43 41 36 40 39 39 37 35 36 35 37 42 46 47 50 54 55 53 48 45 40 38 36 34 30 28 28 30 32 34 39 47 55 60 61 61 61
65 67 59 51 49 47 45 47 38 35 35 39 36 36 36 37 40 41 44 45 48 51 54 54 50 47 43 40 38 35 31 28 26 26 28 32 34 35 38 45 50 53 56 60
57 59 56 57 53 48 45 41 44 40 38 38 39 39 39 40 38 40 44 46 48 50 51 49 48 45 42 39 36 31 27 26 25 27 29 31 33 34 36 37 41 46 51 53
54 55 52 53 48 46 42 42 47 43 41 43 43 42 41 39 38 41 43 44 50 49 46 47 45 42 40 40 33 26 25 25 25 27 28 30 31 32 34 34 35 37 40 42
53 49 45 44 46 47 43 43 41 42 46 44 40 39 38 38 38 40 42 46 41 41 43 45 42 39 39 36 30 23 24 25 25 25 27 28 29 29 29 30 31 32 33 34
52 49 49 45 43 43 42 41 38 37 37 39 40 40 38 40 39 40 41 37 38 40 43 43 40 39 38 32 26 22 23 23 21 21 22 23 24 25 25 26 27 28 29 31
56 52 50 46 39 41 42 36 34 35 37 40 39 40 40 41 42 42 38 37 38 40 42 42 39 40 36 28 22 21 22 20 18 18 18 20 21 22 23 23 24 25 27 27
52 48 46 44 40 42 41 35 37 41 43 43 41 40 43 42 41 36 35 35 36 38 41 40 40 40 32 24 19 19 21 16 17 16 16 16 16 17 18 18 19 20 21 21
52 50 47 41 37 41 44 42 43 44 44 42 42 43 44 40 35 32 32 33 35 38 38 39 41 37 28 21 17 19 17 15 15 13 12 12 11 11 11 12 14 13 12 12
53 51 48 44 45 48 47 46 44 42 42 43 44 41 36 32 31 32 31 32 36 37 38 39 39 32 24 19 16 15 13 12 11 10 9 9 8 8 8 8 7 6 8 12
54 53 52 52 52 50 46 45 43 43 44 42 38 33 32 33 33 30 32 33 36 37 38 38 36 28 20 18 15 12 11 10 9 8 7 7 7 8 7 4 5 9 13 16
53 55 55 53 50 49 47 46 45 43 38 37 35 36 38 37 34 29 32 34 36 38 38 36 31 24 19 18 14 11 10 8 8 9 10 10 8 6 6 7 10 12 15 20